<?xml version="1.0" encoding="UTF-8" standalone="no" ?>
<gpx xmlns="http://www.topografix.com/GPX/1/1" xmlns:xsi="http://www.w3.org/2001/XMLSchema-instance" xsi:schemaLocation="http://www.topografix.com/GPX/1/1 http://www.topografix.com/GPX/1/1/gpx.xsd" version="1.1" creator="VisuGPX - https://www.visugpx.com">
  <metadata>
    <name>La balade de Juliette Marche des coteaux</name>
    <desc><![CDATA[6.6 km autour de Mirabel dénivelé 195 m environ
Marche proposée dans le cadre de la Course des Coteaux ]]></desc>
  </metadata>
  <trk>
    <name><![CDATA[A_pied on GPSies.com]]></name>
    <trkseg>
      <trkpt lat="44.14405" lon="1.42008">
        <ele>30</ele>
        <time>2011-01-26T08:39:02Z</time>
      </trkpt>
      <trkpt lat="44.14382" lon="1.42027">
        <ele>30</ele>
        <time>2011-01-26T08:39:13Z</time>
      </trkpt>
      <trkpt lat="44.14381" lon="1.42027">
        <ele>30</ele>
        <time>2011-01-26T08:39:14Z</time>
      </trkpt>
      <trkpt lat="44.14379" lon="1.42028">
        <ele>30</ele>
        <time>2011-01-26T08:39:14Z</time>
      </trkpt>
      <trkpt lat="44.14378" lon="1.42029">
        <ele>30</ele>
        <time>2011-01-26T08:39:15Z</time>
      </trkpt>
      <trkpt lat="44.14376" lon="1.42031">
        <ele>30</ele>
        <time>2011-01-26T08:39:16Z</time>
      </trkpt>
      <trkpt lat="44.14373" lon="1.42031">
        <ele>30</ele>
        <time>2011-01-26T08:39:17Z</time>
      </trkpt>
      <trkpt lat="44.14372" lon="1.42032">
        <ele>30</ele>
        <time>2011-01-26T08:39:17Z</time>
      </trkpt>
      <trkpt lat="44.14371" lon="1.42033">
        <ele>30</ele>
        <time>2011-01-26T08:39:18Z</time>
      </trkpt>
      <trkpt lat="44.1437" lon="1.42035">
        <ele>30</ele>
        <time>2011-01-26T08:39:19Z</time>
      </trkpt>
      <trkpt lat="44.14368" lon="1.42035">
        <ele>30</ele>
        <time>2011-01-26T08:39:19Z</time>
      </trkpt>
      <trkpt lat="44.14366" lon="1.42036">
        <ele>30</ele>
        <time>2011-01-26T08:39:20Z</time>
      </trkpt>
      <trkpt lat="44.14365" lon="1.42037">
        <ele>30</ele>
        <time>2011-01-26T08:39:21Z</time>
      </trkpt>
      <trkpt lat="44.14363" lon="1.42038">
        <ele>30</ele>
        <time>2011-01-26T08:39:21Z</time>
      </trkpt>
      <trkpt lat="44.14362" lon="1.42039">
        <ele>30</ele>
        <time>2011-01-26T08:39:22Z</time>
      </trkpt>
      <trkpt lat="44.1436" lon="1.42041">
        <ele>30</ele>
        <time>2011-01-26T08:39:23Z</time>
      </trkpt>
      <trkpt lat="44.14358" lon="1.42042">
        <ele>30</ele>
        <time>2011-01-26T08:39:24Z</time>
      </trkpt>
      <trkpt lat="44.14356" lon="1.42044">
        <ele>30</ele>
        <time>2011-01-26T08:39:25Z</time>
      </trkpt>
      <trkpt lat="44.14353" lon="1.42045">
        <ele>30</ele>
        <time>2011-01-26T08:39:26Z</time>
      </trkpt>
      <trkpt lat="44.14351" lon="1.42047">
        <ele>30</ele>
        <time>2011-01-26T08:39:27Z</time>
      </trkpt>
      <trkpt lat="44.14349" lon="1.42049">
        <ele>30</ele>
        <time>2011-01-26T08:39:28Z</time>
      </trkpt>
      <trkpt lat="44.14347" lon="1.42052">
        <ele>30</ele>
        <time>2011-01-26T08:39:29Z</time>
      </trkpt>
      <trkpt lat="44.14345" lon="1.42053">
        <ele>30</ele>
        <time>2011-01-26T08:39:30Z</time>
      </trkpt>
      <trkpt lat="44.14343" lon="1.42055">
        <ele>30</ele>
        <time>2011-01-26T08:39:31Z</time>
      </trkpt>
      <trkpt lat="44.14341" lon="1.42057">
        <ele>30</ele>
        <time>2011-01-26T08:39:32Z</time>
      </trkpt>
      <trkpt lat="44.14339" lon="1.4206">
        <ele>30</ele>
        <time>2011-01-26T08:39:33Z</time>
      </trkpt>
      <trkpt lat="44.14337" lon="1.42062">
        <ele>30</ele>
        <time>2011-01-26T08:39:34Z</time>
      </trkpt>
      <trkpt lat="44.14335" lon="1.42064">
        <ele>30</ele>
        <time>2011-01-26T08:39:35Z</time>
      </trkpt>
      <trkpt lat="44.14334" lon="1.42066">
        <ele>30</ele>
        <time>2011-01-26T08:39:36Z</time>
      </trkpt>
      <trkpt lat="44.14332" lon="1.42068">
        <ele>30</ele>
        <time>2011-01-26T08:39:37Z</time>
      </trkpt>
      <trkpt lat="44.1433" lon="1.4207">
        <ele>30</ele>
        <time>2011-01-26T08:39:38Z</time>
      </trkpt>
      <trkpt lat="44.14328" lon="1.42073">
        <ele>30</ele>
        <time>2011-01-26T08:39:39Z</time>
      </trkpt>
      <trkpt lat="44.14327" lon="1.42075">
        <ele>30</ele>
        <time>2011-01-26T08:39:40Z</time>
      </trkpt>
      <trkpt lat="44.14326" lon="1.42078">
        <ele>30</ele>
        <time>2011-01-26T08:39:41Z</time>
      </trkpt>
      <trkpt lat="44.14325" lon="1.42081">
        <ele>30</ele>
        <time>2011-01-26T08:39:42Z</time>
      </trkpt>
      <trkpt lat="44.14323" lon="1.42083">
        <ele>30</ele>
        <time>2011-01-26T08:39:42Z</time>
      </trkpt>
      <trkpt lat="44.14323" lon="1.42086">
        <ele>30</ele>
        <time>2011-01-26T08:39:43Z</time>
      </trkpt>
      <trkpt lat="44.14322" lon="1.42089">
        <ele>30</ele>
        <time>2011-01-26T08:39:44Z</time>
      </trkpt>
      <trkpt lat="44.14321" lon="1.42092">
        <ele>30</ele>
        <time>2011-01-26T08:39:45Z</time>
      </trkpt>
      <trkpt lat="44.1432" lon="1.42095">
        <ele>30</ele>
        <time>2011-01-26T08:39:46Z</time>
      </trkpt>
      <trkpt lat="44.14319" lon="1.42098">
        <ele>30</ele>
        <time>2011-01-26T08:39:47Z</time>
      </trkpt>
      <trkpt lat="44.14318" lon="1.42102">
        <ele>30</ele>
        <time>2011-01-26T08:39:48Z</time>
      </trkpt>
      <trkpt lat="44.14318" lon="1.42105">
        <ele>30</ele>
        <time>2011-01-26T08:39:49Z</time>
      </trkpt>
      <trkpt lat="44.14317" lon="1.42108">
        <ele>30</ele>
        <time>2011-01-26T08:39:50Z</time>
      </trkpt>
      <trkpt lat="44.14317" lon="1.42112">
        <ele>30</ele>
        <time>2011-01-26T08:39:51Z</time>
      </trkpt>
      <trkpt lat="44.14316" lon="1.42114">
        <ele>30</ele>
        <time>2011-01-26T08:39:52Z</time>
      </trkpt>
      <trkpt lat="44.14316" lon="1.42118">
        <ele>30</ele>
        <time>2011-01-26T08:39:53Z</time>
      </trkpt>
      <trkpt lat="44.14315" lon="1.42121">
        <ele>30</ele>
        <time>2011-01-26T08:39:54Z</time>
      </trkpt>
      <trkpt lat="44.14315" lon="1.42125">
        <ele>30</ele>
        <time>2011-01-26T08:39:55Z</time>
      </trkpt>
      <trkpt lat="44.14315" lon="1.42128">
        <ele>30</ele>
        <time>2011-01-26T08:39:56Z</time>
      </trkpt>
      <trkpt lat="44.14314" lon="1.42132">
        <ele>30</ele>
        <time>2011-01-26T08:39:57Z</time>
      </trkpt>
      <trkpt lat="44.14315" lon="1.42135">
        <ele>30</ele>
        <time>2011-01-26T08:39:58Z</time>
      </trkpt>
      <trkpt lat="44.14314" lon="1.42138">
        <ele>30</ele>
        <time>2011-01-26T08:39:59Z</time>
      </trkpt>
      <trkpt lat="44.14314" lon="1.42141">
        <ele>30</ele>
        <time>2011-01-26T08:40:00Z</time>
      </trkpt>
      <trkpt lat="44.14314" lon="1.42145">
        <ele>30</ele>
        <time>2011-01-26T08:40:01Z</time>
      </trkpt>
      <trkpt lat="44.14314" lon="1.42148">
        <ele>30</ele>
        <time>2011-01-26T08:40:02Z</time>
      </trkpt>
      <trkpt lat="44.14314" lon="1.42151">
        <ele>30</ele>
        <time>2011-01-26T08:40:03Z</time>
      </trkpt>
      <trkpt lat="44.14314" lon="1.42155">
        <ele>30</ele>
        <time>2011-01-26T08:40:04Z</time>
      </trkpt>
      <trkpt lat="44.14314" lon="1.42158">
        <ele>30</ele>
        <time>2011-01-26T08:40:05Z</time>
      </trkpt>
      <trkpt lat="44.14314" lon="1.42162">
        <ele>30</ele>
        <time>2011-01-26T08:40:06Z</time>
      </trkpt>
      <trkpt lat="44.14313" lon="1.42165">
        <ele>30</ele>
        <time>2011-01-26T08:40:07Z</time>
      </trkpt>
      <trkpt lat="44.14313" lon="1.42169">
        <ele>30</ele>
        <time>2011-01-26T08:40:08Z</time>
      </trkpt>
      <trkpt lat="44.14312" lon="1.42172">
        <ele>30</ele>
        <time>2011-01-26T08:40:09Z</time>
      </trkpt>
      <trkpt lat="44.14312" lon="1.42175">
        <ele>30</ele>
        <time>2011-01-26T08:40:10Z</time>
      </trkpt>
      <trkpt lat="44.14312" lon="1.42179">
        <ele>30</ele>
        <time>2011-01-26T08:40:11Z</time>
      </trkpt>
      <trkpt lat="44.14312" lon="1.42182">
        <ele>30</ele>
        <time>2011-01-26T08:40:12Z</time>
      </trkpt>
      <trkpt lat="44.14312" lon="1.42186">
        <ele>30</ele>
        <time>2011-01-26T08:40:13Z</time>
      </trkpt>
      <trkpt lat="44.14311" lon="1.42189">
        <ele>30</ele>
        <time>2011-01-26T08:40:14Z</time>
      </trkpt>
      <trkpt lat="44.14311" lon="1.42193">
        <ele>30</ele>
        <time>2011-01-26T08:40:15Z</time>
      </trkpt>
      <trkpt lat="44.14311" lon="1.42197">
        <ele>30</ele>
        <time>2011-01-26T08:40:16Z</time>
      </trkpt>
      <trkpt lat="44.14311" lon="1.422">
        <ele>30</ele>
        <time>2011-01-26T08:40:17Z</time>
      </trkpt>
      <trkpt lat="44.14311" lon="1.42203">
        <ele>30</ele>
        <time>2011-01-26T08:40:18Z</time>
      </trkpt>
      <trkpt lat="44.1431" lon="1.42207">
        <ele>30</ele>
        <time>2011-01-26T08:40:19Z</time>
      </trkpt>
      <trkpt lat="44.1431" lon="1.4221">
        <ele>30</ele>
        <time>2011-01-26T08:40:20Z</time>
      </trkpt>
      <trkpt lat="44.1431" lon="1.42213">
        <ele>30</ele>
        <time>2011-01-26T08:40:21Z</time>
      </trkpt>
      <trkpt lat="44.1431" lon="1.42217">
        <ele>30</ele>
        <time>2011-01-26T08:40:22Z</time>
      </trkpt>
      <trkpt lat="44.14309" lon="1.4222">
        <ele>30</ele>
        <time>2011-01-26T08:40:23Z</time>
      </trkpt>
      <trkpt lat="44.14309" lon="1.42224">
        <ele>30</ele>
        <time>2011-01-26T08:40:24Z</time>
      </trkpt>
      <trkpt lat="44.14309" lon="1.42227">
        <ele>30</ele>
        <time>2011-01-26T08:40:25Z</time>
      </trkpt>
      <trkpt lat="44.14309" lon="1.4223">
        <ele>30</ele>
        <time>2011-01-26T08:40:26Z</time>
      </trkpt>
      <trkpt lat="44.14309" lon="1.42234">
        <ele>30</ele>
        <time>2011-01-26T08:40:26Z</time>
      </trkpt>
      <trkpt lat="44.14309" lon="1.42237">
        <ele>30</ele>
        <time>2011-01-26T08:40:27Z</time>
      </trkpt>
      <trkpt lat="44.14308" lon="1.4224">
        <ele>30</ele>
        <time>2011-01-26T08:40:28Z</time>
      </trkpt>
      <trkpt lat="44.14308" lon="1.42244">
        <ele>30</ele>
        <time>2011-01-26T08:40:29Z</time>
      </trkpt>
      <trkpt lat="44.14308" lon="1.42247">
        <ele>30</ele>
        <time>2011-01-26T08:40:30Z</time>
      </trkpt>
      <trkpt lat="44.14307" lon="1.4225">
        <ele>30</ele>
        <time>2011-01-26T08:40:31Z</time>
      </trkpt>
      <trkpt lat="44.14307" lon="1.42253">
        <ele>30</ele>
        <time>2011-01-26T08:40:32Z</time>
      </trkpt>
      <trkpt lat="44.14306" lon="1.42257">
        <ele>30</ele>
        <time>2011-01-26T08:40:33Z</time>
      </trkpt>
      <trkpt lat="44.14305" lon="1.42259">
        <ele>30</ele>
        <time>2011-01-26T08:40:34Z</time>
      </trkpt>
      <trkpt lat="44.14302" lon="1.42259">
        <ele>30</ele>
        <time>2011-01-26T08:40:35Z</time>
      </trkpt>
      <trkpt lat="44.14301" lon="1.42258">
        <ele>30</ele>
        <time>2011-01-26T08:40:36Z</time>
      </trkpt>
      <trkpt lat="44.14299" lon="1.42256">
        <ele>30</ele>
        <time>2011-01-26T08:40:37Z</time>
      </trkpt>
      <trkpt lat="44.14297" lon="1.42254">
        <ele>30</ele>
        <time>2011-01-26T08:40:38Z</time>
      </trkpt>
      <trkpt lat="44.14296" lon="1.42251">
        <ele>30</ele>
        <time>2011-01-26T08:40:39Z</time>
      </trkpt>
      <trkpt lat="44.14294" lon="1.42249">
        <ele>30</ele>
        <time>2011-01-26T08:40:40Z</time>
      </trkpt>
      <trkpt lat="44.14292" lon="1.42247">
        <ele>30</ele>
        <time>2011-01-26T08:40:40Z</time>
      </trkpt>
      <trkpt lat="44.14291" lon="1.42244">
        <ele>30</ele>
        <time>2011-01-26T08:40:41Z</time>
      </trkpt>
      <trkpt lat="44.14289" lon="1.42242">
        <ele>30</ele>
        <time>2011-01-26T08:40:42Z</time>
      </trkpt>
      <trkpt lat="44.14287" lon="1.42239">
        <ele>30</ele>
        <time>2011-01-26T08:40:44Z</time>
      </trkpt>
      <trkpt lat="44.14286" lon="1.42236">
        <ele>30</ele>
        <time>2011-01-26T08:40:45Z</time>
      </trkpt>
      <trkpt lat="44.14284" lon="1.42233">
        <ele>30</ele>
        <time>2011-01-26T08:40:46Z</time>
      </trkpt>
      <trkpt lat="44.14283" lon="1.42229">
        <ele>30</ele>
        <time>2011-01-26T08:40:47Z</time>
      </trkpt>
      <trkpt lat="44.14282" lon="1.42226">
        <ele>30</ele>
        <time>2011-01-26T08:40:48Z</time>
      </trkpt>
      <trkpt lat="44.1428" lon="1.42223">
        <ele>30</ele>
        <time>2011-01-26T08:40:49Z</time>
      </trkpt>
      <trkpt lat="44.1428" lon="1.4222">
        <ele>30</ele>
        <time>2011-01-26T08:40:50Z</time>
      </trkpt>
      <trkpt lat="44.14278" lon="1.42217">
        <ele>30</ele>
        <time>2011-01-26T08:40:51Z</time>
      </trkpt>
      <trkpt lat="44.14277" lon="1.42213">
        <ele>30</ele>
        <time>2011-01-26T08:40:52Z</time>
      </trkpt>
      <trkpt lat="44.14276" lon="1.4221">
        <ele>30</ele>
        <time>2011-01-26T08:40:53Z</time>
      </trkpt>
      <trkpt lat="44.14275" lon="1.42207">
        <ele>30</ele>
        <time>2011-01-26T08:40:54Z</time>
      </trkpt>
      <trkpt lat="44.14274" lon="1.42204">
        <ele>30</ele>
        <time>2011-01-26T08:40:55Z</time>
      </trkpt>
      <trkpt lat="44.14272" lon="1.422">
        <ele>30</ele>
        <time>2011-01-26T08:40:56Z</time>
      </trkpt>
      <trkpt lat="44.14271" lon="1.42197">
        <ele>30</ele>
        <time>2011-01-26T08:40:57Z</time>
      </trkpt>
      <trkpt lat="44.14269" lon="1.42194">
        <ele>30</ele>
        <time>2011-01-26T08:40:58Z</time>
      </trkpt>
      <trkpt lat="44.14268" lon="1.42192">
        <ele>30</ele>
        <time>2011-01-26T08:40:59Z</time>
      </trkpt>
      <trkpt lat="44.14266" lon="1.42189">
        <ele>30</ele>
        <time>2011-01-26T08:41:00Z</time>
      </trkpt>
      <trkpt lat="44.14265" lon="1.42186">
        <ele>30</ele>
        <time>2011-01-26T08:41:01Z</time>
      </trkpt>
      <trkpt lat="44.14263" lon="1.42184">
        <ele>30</ele>
        <time>2011-01-26T08:41:02Z</time>
      </trkpt>
      <trkpt lat="44.14261" lon="1.42181">
        <ele>30</ele>
        <time>2011-01-26T08:41:03Z</time>
      </trkpt>
      <trkpt lat="44.14259" lon="1.42179">
        <ele>30</ele>
        <time>2011-01-26T08:41:04Z</time>
      </trkpt>
      <trkpt lat="44.14258" lon="1.42176">
        <ele>30</ele>
        <time>2011-01-26T08:41:05Z</time>
      </trkpt>
      <trkpt lat="44.14256" lon="1.42174">
        <ele>30</ele>
        <time>2011-01-26T08:41:06Z</time>
      </trkpt>
      <trkpt lat="44.14253" lon="1.42172">
        <ele>30</ele>
        <time>2011-01-26T08:41:07Z</time>
      </trkpt>
      <trkpt lat="44.14251" lon="1.4217">
        <ele>30</ele>
        <time>2011-01-26T08:41:08Z</time>
      </trkpt>
      <trkpt lat="44.14249" lon="1.42168">
        <ele>30</ele>
        <time>2011-01-26T08:41:09Z</time>
      </trkpt>
      <trkpt lat="44.14247" lon="1.42166">
        <ele>30</ele>
        <time>2011-01-26T08:41:11Z</time>
      </trkpt>
      <trkpt lat="44.14244" lon="1.42164">
        <ele>30</ele>
        <time>2011-01-26T08:41:12Z</time>
      </trkpt>
      <trkpt lat="44.14242" lon="1.42162">
        <ele>30</ele>
        <time>2011-01-26T08:41:13Z</time>
      </trkpt>
      <trkpt lat="44.1424" lon="1.42161">
        <ele>30</ele>
        <time>2011-01-26T08:41:14Z</time>
      </trkpt>
      <trkpt lat="44.14237" lon="1.4216">
        <ele>30</ele>
        <time>2011-01-26T08:41:15Z</time>
      </trkpt>
      <trkpt lat="44.14235" lon="1.42159">
        <ele>30</ele>
        <time>2011-01-26T08:41:16Z</time>
      </trkpt>
      <trkpt lat="44.14233" lon="1.42158">
        <ele>30</ele>
        <time>2011-01-26T08:41:17Z</time>
      </trkpt>
      <trkpt lat="44.1423" lon="1.42157">
        <ele>30</ele>
        <time>2011-01-26T08:41:18Z</time>
      </trkpt>
      <trkpt lat="44.14227" lon="1.42157">
        <ele>30</ele>
        <time>2011-01-26T08:41:19Z</time>
      </trkpt>
      <trkpt lat="44.14225" lon="1.42156">
        <ele>30</ele>
        <time>2011-01-26T08:41:20Z</time>
      </trkpt>
      <trkpt lat="44.14222" lon="1.42156">
        <ele>30</ele>
        <time>2011-01-26T08:41:21Z</time>
      </trkpt>
      <trkpt lat="44.1422" lon="1.42156">
        <ele>30</ele>
        <time>2011-01-26T08:41:22Z</time>
      </trkpt>
      <trkpt lat="44.14217" lon="1.42156">
        <ele>30</ele>
        <time>2011-01-26T08:41:23Z</time>
      </trkpt>
      <trkpt lat="44.14215" lon="1.42156">
        <ele>30</ele>
        <time>2011-01-26T08:41:24Z</time>
      </trkpt>
      <trkpt lat="44.14213" lon="1.42156">
        <ele>30</ele>
        <time>2011-01-26T08:41:25Z</time>
      </trkpt>
      <trkpt lat="44.1421" lon="1.42156">
        <ele>30</ele>
        <time>2011-01-26T08:41:26Z</time>
      </trkpt>
      <trkpt lat="44.14208" lon="1.42156">
        <ele>30</ele>
        <time>2011-01-26T08:41:27Z</time>
      </trkpt>
      <trkpt lat="44.14206" lon="1.42156">
        <ele>30</ele>
        <time>2011-01-26T08:41:28Z</time>
      </trkpt>
      <trkpt lat="44.14203" lon="1.42156">
        <ele>30</ele>
        <time>2011-01-26T08:41:29Z</time>
      </trkpt>
      <trkpt lat="44.14201" lon="1.42157">
        <ele>30</ele>
        <time>2011-01-26T08:41:29Z</time>
      </trkpt>
      <trkpt lat="44.14198" lon="1.42157">
        <ele>30</ele>
        <time>2011-01-26T08:41:31Z</time>
      </trkpt>
      <trkpt lat="44.14196" lon="1.42157">
        <ele>30</ele>
        <time>2011-01-26T08:41:31Z</time>
      </trkpt>
      <trkpt lat="44.14193" lon="1.42156">
        <ele>30</ele>
        <time>2011-01-26T08:41:33Z</time>
      </trkpt>
      <trkpt lat="44.14191" lon="1.42156">
        <ele>30</ele>
        <time>2011-01-26T08:41:33Z</time>
      </trkpt>
      <trkpt lat="44.14189" lon="1.42156">
        <ele>30</ele>
        <time>2011-01-26T08:41:34Z</time>
      </trkpt>
      <trkpt lat="44.14186" lon="1.42156">
        <ele>30</ele>
        <time>2011-01-26T08:41:35Z</time>
      </trkpt>
      <trkpt lat="44.14184" lon="1.42155">
        <ele>30</ele>
        <time>2011-01-26T08:41:36Z</time>
      </trkpt>
      <trkpt lat="44.14182" lon="1.42155">
        <ele>30</ele>
        <time>2011-01-26T08:41:37Z</time>
      </trkpt>
      <trkpt lat="44.14179" lon="1.42155">
        <ele>30</ele>
        <time>2011-01-26T08:41:38Z</time>
      </trkpt>
      <trkpt lat="44.14177" lon="1.42154">
        <ele>30</ele>
        <time>2011-01-26T08:41:39Z</time>
      </trkpt>
      <trkpt lat="44.14175" lon="1.42154">
        <ele>30</ele>
        <time>2011-01-26T08:41:40Z</time>
      </trkpt>
      <trkpt lat="44.14172" lon="1.42154">
        <ele>30</ele>
        <time>2011-01-26T08:41:41Z</time>
      </trkpt>
      <trkpt lat="44.1417" lon="1.42153">
        <ele>30</ele>
        <time>2011-01-26T08:41:42Z</time>
      </trkpt>
      <trkpt lat="44.14167" lon="1.42153">
        <ele>30</ele>
        <time>2011-01-26T08:41:43Z</time>
      </trkpt>
      <trkpt lat="44.14165" lon="1.42153">
        <ele>30</ele>
        <time>2011-01-26T08:41:44Z</time>
      </trkpt>
      <trkpt lat="44.14162" lon="1.42152">
        <ele>30</ele>
        <time>2011-01-26T08:41:45Z</time>
      </trkpt>
      <trkpt lat="44.14159" lon="1.42151">
        <ele>30</ele>
        <time>2011-01-26T08:41:46Z</time>
      </trkpt>
      <trkpt lat="44.14157" lon="1.42151">
        <ele>30</ele>
        <time>2011-01-26T08:41:47Z</time>
      </trkpt>
      <trkpt lat="44.14155" lon="1.42151">
        <ele>30</ele>
        <time>2011-01-26T08:41:48Z</time>
      </trkpt>
      <trkpt lat="44.14152" lon="1.4215">
        <ele>30</ele>
        <time>2011-01-26T08:41:49Z</time>
      </trkpt>
      <trkpt lat="44.14149" lon="1.4215">
        <ele>30</ele>
        <time>2011-01-26T08:41:50Z</time>
      </trkpt>
      <trkpt lat="44.14147" lon="1.4215">
        <ele>30</ele>
        <time>2011-01-26T08:41:51Z</time>
      </trkpt>
      <trkpt lat="44.14145" lon="1.42149">
        <ele>30</ele>
        <time>2011-01-26T08:41:52Z</time>
      </trkpt>
      <trkpt lat="44.14142" lon="1.4215">
        <ele>30</ele>
        <time>2011-01-26T08:41:53Z</time>
      </trkpt>
      <trkpt lat="44.1414" lon="1.4215">
        <ele>30</ele>
        <time>2011-01-26T08:41:54Z</time>
      </trkpt>
      <trkpt lat="44.14137" lon="1.42149">
        <ele>30</ele>
        <time>2011-01-26T08:41:55Z</time>
      </trkpt>
      <trkpt lat="44.14135" lon="1.42149">
        <ele>30</ele>
        <time>2011-01-26T08:41:56Z</time>
      </trkpt>
      <trkpt lat="44.14132" lon="1.42148">
        <ele>30</ele>
        <time>2011-01-26T08:41:57Z</time>
      </trkpt>
      <trkpt lat="44.1413" lon="1.42148">
        <ele>30</ele>
        <time>2011-01-26T08:41:58Z</time>
      </trkpt>
      <trkpt lat="44.14127" lon="1.42148">
        <ele>30</ele>
        <time>2011-01-26T08:41:59Z</time>
      </trkpt>
      <trkpt lat="44.14125" lon="1.42148">
        <ele>30</ele>
        <time>2011-01-26T08:42:00Z</time>
      </trkpt>
      <trkpt lat="44.14122" lon="1.42147">
        <ele>30</ele>
        <time>2011-01-26T08:42:01Z</time>
      </trkpt>
      <trkpt lat="44.14119" lon="1.42148">
        <ele>30</ele>
        <time>2011-01-26T08:42:02Z</time>
      </trkpt>
      <trkpt lat="44.14117" lon="1.42148">
        <ele>30</ele>
        <time>2011-01-26T08:42:03Z</time>
      </trkpt>
      <trkpt lat="44.14114" lon="1.42148">
        <ele>30</ele>
        <time>2011-01-26T08:42:04Z</time>
      </trkpt>
      <trkpt lat="44.14112" lon="1.42148">
        <ele>30</ele>
        <time>2011-01-26T08:42:05Z</time>
      </trkpt>
      <trkpt lat="44.14109" lon="1.42149">
        <ele>30</ele>
        <time>2011-01-26T08:42:07Z</time>
      </trkpt>
      <trkpt lat="44.14106" lon="1.4215">
        <ele>30</ele>
        <time>2011-01-26T08:42:08Z</time>
      </trkpt>
      <trkpt lat="44.14103" lon="1.4215">
        <ele>30</ele>
        <time>2011-01-26T08:42:09Z</time>
      </trkpt>
      <trkpt lat="44.14101" lon="1.42149">
        <ele>30</ele>
        <time>2011-01-26T08:42:10Z</time>
      </trkpt>
      <trkpt lat="44.14098" lon="1.42149">
        <ele>30</ele>
        <time>2011-01-26T08:42:11Z</time>
      </trkpt>
      <trkpt lat="44.14096" lon="1.42148">
        <ele>30</ele>
        <time>2011-01-26T08:42:12Z</time>
      </trkpt>
      <trkpt lat="44.14093" lon="1.42148">
        <ele>30</ele>
        <time>2011-01-26T08:42:13Z</time>
      </trkpt>
      <trkpt lat="44.14091" lon="1.42147">
        <ele>30</ele>
        <time>2011-01-26T08:42:14Z</time>
      </trkpt>
      <trkpt lat="44.14088" lon="1.42146">
        <ele>30</ele>
        <time>2011-01-26T08:42:15Z</time>
      </trkpt>
      <trkpt lat="44.14085" lon="1.42146">
        <ele>30</ele>
        <time>2011-01-26T08:42:16Z</time>
      </trkpt>
      <trkpt lat="44.14083" lon="1.42144">
        <ele>30</ele>
        <time>2011-01-26T08:42:17Z</time>
      </trkpt>
      <trkpt lat="44.14081" lon="1.42143">
        <ele>30</ele>
        <time>2011-01-26T08:42:18Z</time>
      </trkpt>
      <trkpt lat="44.14079" lon="1.42142">
        <ele>30</ele>
        <time>2011-01-26T08:42:19Z</time>
      </trkpt>
      <trkpt lat="44.14077" lon="1.4214">
        <ele>30</ele>
        <time>2011-01-26T08:42:20Z</time>
      </trkpt>
      <trkpt lat="44.14075" lon="1.42139">
        <ele>30</ele>
        <time>2011-01-26T08:42:21Z</time>
      </trkpt>
      <trkpt lat="44.14072" lon="1.42137">
        <ele>30</ele>
        <time>2011-01-26T08:42:22Z</time>
      </trkpt>
      <trkpt lat="44.1407" lon="1.42135">
        <ele>30</ele>
        <time>2011-01-26T08:42:23Z</time>
      </trkpt>
      <trkpt lat="44.14068" lon="1.42133">
        <ele>30</ele>
        <time>2011-01-26T08:42:24Z</time>
      </trkpt>
      <trkpt lat="44.14067" lon="1.42132">
        <ele>30</ele>
        <time>2011-01-26T08:42:25Z</time>
      </trkpt>
      <trkpt lat="44.14065" lon="1.4213">
        <ele>30</ele>
        <time>2011-01-26T08:42:26Z</time>
      </trkpt>
      <trkpt lat="44.14063" lon="1.42129">
        <ele>30</ele>
        <time>2011-01-26T08:42:26Z</time>
      </trkpt>
      <trkpt lat="44.14061" lon="1.42127">
        <ele>30</ele>
        <time>2011-01-26T08:42:27Z</time>
      </trkpt>
      <trkpt lat="44.14059" lon="1.42125">
        <ele>30</ele>
        <time>2011-01-26T08:42:28Z</time>
      </trkpt>
      <trkpt lat="44.14057" lon="1.42124">
        <ele>30</ele>
        <time>2011-01-26T08:42:29Z</time>
      </trkpt>
      <trkpt lat="44.14055" lon="1.42122">
        <ele>30</ele>
        <time>2011-01-26T08:42:30Z</time>
      </trkpt>
      <trkpt lat="44.14052" lon="1.42121">
        <ele>30</ele>
        <time>2011-01-26T08:42:31Z</time>
      </trkpt>
      <trkpt lat="44.1405" lon="1.4212">
        <ele>30</ele>
        <time>2011-01-26T08:42:32Z</time>
      </trkpt>
      <trkpt lat="44.14048" lon="1.4212">
        <ele>30</ele>
        <time>2011-01-26T08:42:33Z</time>
      </trkpt>
      <trkpt lat="44.14045" lon="1.42119">
        <ele>30</ele>
        <time>2011-01-26T08:42:34Z</time>
      </trkpt>
      <trkpt lat="44.14042" lon="1.4212">
        <ele>30</ele>
        <time>2011-01-26T08:42:35Z</time>
      </trkpt>
      <trkpt lat="44.1404" lon="1.42121">
        <ele>30</ele>
        <time>2011-01-26T08:42:36Z</time>
      </trkpt>
      <trkpt lat="44.14037" lon="1.42121">
        <ele>30</ele>
        <time>2011-01-26T08:42:37Z</time>
      </trkpt>
      <trkpt lat="44.14035" lon="1.42123">
        <ele>30</ele>
        <time>2011-01-26T08:42:38Z</time>
      </trkpt>
      <trkpt lat="44.14033" lon="1.42124">
        <ele>30</ele>
        <time>2011-01-26T08:42:39Z</time>
      </trkpt>
      <trkpt lat="44.14031" lon="1.42126">
        <ele>30</ele>
        <time>2011-01-26T08:42:40Z</time>
      </trkpt>
      <trkpt lat="44.14029" lon="1.42128">
        <ele>30</ele>
        <time>2011-01-26T08:42:41Z</time>
      </trkpt>
      <trkpt lat="44.14028" lon="1.42131">
        <ele>30</ele>
        <time>2011-01-26T08:42:42Z</time>
      </trkpt>
      <trkpt lat="44.14026" lon="1.42134">
        <ele>30</ele>
        <time>2011-01-26T08:42:43Z</time>
      </trkpt>
      <trkpt lat="44.14024" lon="1.42137">
        <ele>30</ele>
        <time>2011-01-26T08:42:44Z</time>
      </trkpt>
      <trkpt lat="44.14022" lon="1.4214">
        <ele>30</ele>
        <time>2011-01-26T08:42:46Z</time>
      </trkpt>
      <trkpt lat="44.14021" lon="1.42143">
        <ele>30</ele>
        <time>2011-01-26T08:42:47Z</time>
      </trkpt>
      <trkpt lat="44.1402" lon="1.42147">
        <ele>30</ele>
        <time>2011-01-26T08:42:48Z</time>
      </trkpt>
      <trkpt lat="44.14019" lon="1.42151">
        <ele>30</ele>
        <time>2011-01-26T08:42:49Z</time>
      </trkpt>
      <trkpt lat="44.14019" lon="1.42155">
        <ele>30</ele>
        <time>2011-01-26T08:42:50Z</time>
      </trkpt>
      <trkpt lat="44.14018" lon="1.42158">
        <ele>30</ele>
        <time>2011-01-26T08:42:51Z</time>
      </trkpt>
      <trkpt lat="44.14018" lon="1.42162">
        <ele>30</ele>
        <time>2011-01-26T08:42:52Z</time>
      </trkpt>
      <trkpt lat="44.14018" lon="1.42165">
        <ele>30</ele>
        <time>2011-01-26T08:42:53Z</time>
      </trkpt>
      <trkpt lat="44.14018" lon="1.42169">
        <ele>30</ele>
        <time>2011-01-26T08:42:54Z</time>
      </trkpt>
      <trkpt lat="44.14018" lon="1.42172">
        <ele>30</ele>
        <time>2011-01-26T08:42:55Z</time>
      </trkpt>
      <trkpt lat="44.14018" lon="1.42176">
        <ele>30</ele>
        <time>2011-01-26T08:42:56Z</time>
      </trkpt>
      <trkpt lat="44.14018" lon="1.42179">
        <ele>30</ele>
        <time>2011-01-26T08:42:57Z</time>
      </trkpt>
      <trkpt lat="44.14017" lon="1.42183">
        <ele>30</ele>
        <time>2011-01-26T08:42:58Z</time>
      </trkpt>
      <trkpt lat="44.14017" lon="1.42186">
        <ele>30</ele>
        <time>2011-01-26T08:42:59Z</time>
      </trkpt>
      <trkpt lat="44.14017" lon="1.4219">
        <ele>30</ele>
        <time>2011-01-26T08:43:00Z</time>
      </trkpt>
      <trkpt lat="44.14016" lon="1.42193">
        <ele>30</ele>
        <time>2011-01-26T08:43:01Z</time>
      </trkpt>
      <trkpt lat="44.14014" lon="1.42197">
        <ele>30</ele>
        <time>2011-01-26T08:43:02Z</time>
      </trkpt>
      <trkpt lat="44.14013" lon="1.422">
        <ele>30</ele>
        <time>2011-01-26T08:43:03Z</time>
      </trkpt>
      <trkpt lat="44.14011" lon="1.42203">
        <ele>30</ele>
        <time>2011-01-26T08:43:04Z</time>
      </trkpt>
      <trkpt lat="44.14009" lon="1.42206">
        <ele>30</ele>
        <time>2011-01-26T08:43:06Z</time>
      </trkpt>
      <trkpt lat="44.14007" lon="1.42208">
        <ele>30</ele>
        <time>2011-01-26T08:43:07Z</time>
      </trkpt>
      <trkpt lat="44.14005" lon="1.4221">
        <ele>30</ele>
        <time>2011-01-26T08:43:08Z</time>
      </trkpt>
      <trkpt lat="44.14003" lon="1.42212">
        <ele>30</ele>
        <time>2011-01-26T08:43:09Z</time>
      </trkpt>
      <trkpt lat="44.14" lon="1.42214">
        <ele>30</ele>
        <time>2011-01-26T08:43:10Z</time>
      </trkpt>
      <trkpt lat="44.13998" lon="1.42215">
        <ele>30</ele>
        <time>2011-01-26T08:43:11Z</time>
      </trkpt>
      <trkpt lat="44.13996" lon="1.42216">
        <ele>30</ele>
        <time>2011-01-26T08:43:12Z</time>
      </trkpt>
      <trkpt lat="44.13993" lon="1.42217">
        <ele>30</ele>
        <time>2011-01-26T08:43:13Z</time>
      </trkpt>
      <trkpt lat="44.1399" lon="1.42218">
        <ele>30</ele>
        <time>2011-01-26T08:43:14Z</time>
      </trkpt>
      <trkpt lat="44.13988" lon="1.42218">
        <ele>30</ele>
        <time>2011-01-26T08:43:15Z</time>
      </trkpt>
      <trkpt lat="44.13985" lon="1.42218">
        <ele>30</ele>
        <time>2011-01-26T08:43:16Z</time>
      </trkpt>
      <trkpt lat="44.13983" lon="1.42219">
        <ele>30</ele>
        <time>2011-01-26T08:43:17Z</time>
      </trkpt>
      <trkpt lat="44.13981" lon="1.42219">
        <ele>30</ele>
        <time>2011-01-26T08:43:18Z</time>
      </trkpt>
      <trkpt lat="44.13978" lon="1.42219">
        <ele>30</ele>
        <time>2011-01-26T08:43:19Z</time>
      </trkpt>
      <trkpt lat="44.13976" lon="1.42219">
        <ele>30</ele>
        <time>2011-01-26T08:43:20Z</time>
      </trkpt>
      <trkpt lat="44.13973" lon="1.42219">
        <ele>30</ele>
        <time>2011-01-26T08:43:21Z</time>
      </trkpt>
      <trkpt lat="44.13971" lon="1.4222">
        <ele>30</ele>
        <time>2011-01-26T08:43:22Z</time>
      </trkpt>
      <trkpt lat="44.13968" lon="1.4222">
        <ele>30</ele>
        <time>2011-01-26T08:43:23Z</time>
      </trkpt>
      <trkpt lat="44.13965" lon="1.4222">
        <ele>30</ele>
        <time>2011-01-26T08:43:24Z</time>
      </trkpt>
      <trkpt lat="44.13963" lon="1.42219">
        <ele>30</ele>
        <time>2011-01-26T08:43:25Z</time>
      </trkpt>
      <trkpt lat="44.1396" lon="1.42219">
        <ele>30</ele>
        <time>2011-01-26T08:43:26Z</time>
      </trkpt>
      <trkpt lat="44.13958" lon="1.42219">
        <ele>30</ele>
        <time>2011-01-26T08:43:27Z</time>
      </trkpt>
      <trkpt lat="44.13955" lon="1.42219">
        <ele>30</ele>
        <time>2011-01-26T08:43:28Z</time>
      </trkpt>
      <trkpt lat="44.13953" lon="1.4222">
        <ele>30</ele>
        <time>2011-01-26T08:43:29Z</time>
      </trkpt>
      <trkpt lat="44.1395" lon="1.4222">
        <ele>30</ele>
        <time>2011-01-26T08:43:30Z</time>
      </trkpt>
      <trkpt lat="44.13947" lon="1.4222">
        <ele>30</ele>
        <time>2011-01-26T08:43:31Z</time>
      </trkpt>
      <trkpt lat="44.13945" lon="1.42221">
        <ele>30</ele>
        <time>2011-01-26T08:43:33Z</time>
      </trkpt>
      <trkpt lat="44.13942" lon="1.42222">
        <ele>30</ele>
        <time>2011-01-26T08:43:33Z</time>
      </trkpt>
      <trkpt lat="44.1394" lon="1.42223">
        <ele>30</ele>
        <time>2011-01-26T08:43:34Z</time>
      </trkpt>
      <trkpt lat="44.13938" lon="1.42224">
        <ele>30</ele>
        <time>2011-01-26T08:43:35Z</time>
      </trkpt>
      <trkpt lat="44.13936" lon="1.42225">
        <ele>30</ele>
        <time>2011-01-26T08:43:36Z</time>
      </trkpt>
      <trkpt lat="44.13933" lon="1.42226">
        <ele>30</ele>
        <time>2011-01-26T08:43:37Z</time>
      </trkpt>
      <trkpt lat="44.13931" lon="1.42228">
        <ele>30</ele>
        <time>2011-01-26T08:43:38Z</time>
      </trkpt>
      <trkpt lat="44.13929" lon="1.42229">
        <ele>30</ele>
        <time>2011-01-26T08:43:39Z</time>
      </trkpt>
      <trkpt lat="44.13926" lon="1.4223">
        <ele>30</ele>
        <time>2011-01-26T08:43:40Z</time>
      </trkpt>
      <trkpt lat="44.13924" lon="1.42231">
        <ele>30</ele>
        <time>2011-01-26T08:43:41Z</time>
      </trkpt>
      <trkpt lat="44.13921" lon="1.42233">
        <ele>30</ele>
        <time>2011-01-26T08:43:42Z</time>
      </trkpt>
      <trkpt lat="44.13919" lon="1.42235">
        <ele>30</ele>
        <time>2011-01-26T08:43:44Z</time>
      </trkpt>
      <trkpt lat="44.13916" lon="1.42236">
        <ele>30</ele>
        <time>2011-01-26T08:43:45Z</time>
      </trkpt>
      <trkpt lat="44.13914" lon="1.42238">
        <ele>30</ele>
        <time>2011-01-26T08:43:46Z</time>
      </trkpt>
      <trkpt lat="44.13912" lon="1.42239">
        <ele>30</ele>
        <time>2011-01-26T08:43:47Z</time>
      </trkpt>
      <trkpt lat="44.1391" lon="1.42241">
        <ele>30</ele>
        <time>2011-01-26T08:43:48Z</time>
      </trkpt>
      <trkpt lat="44.13907" lon="1.42243">
        <ele>30</ele>
        <time>2011-01-26T08:43:49Z</time>
      </trkpt>
      <trkpt lat="44.13905" lon="1.42244">
        <ele>30</ele>
        <time>2011-01-26T08:43:50Z</time>
      </trkpt>
      <trkpt lat="44.13903" lon="1.42246">
        <ele>30</ele>
        <time>2011-01-26T08:43:51Z</time>
      </trkpt>
      <trkpt lat="44.139" lon="1.42248">
        <ele>30</ele>
        <time>2011-01-26T08:43:52Z</time>
      </trkpt>
      <trkpt lat="44.13898" lon="1.42249">
        <ele>30</ele>
        <time>2011-01-26T08:43:53Z</time>
      </trkpt>
      <trkpt lat="44.13896" lon="1.42251">
        <ele>30</ele>
        <time>2011-01-26T08:43:54Z</time>
      </trkpt>
      <trkpt lat="44.13893" lon="1.42252">
        <ele>30</ele>
        <time>2011-01-26T08:43:55Z</time>
      </trkpt>
      <trkpt lat="44.13891" lon="1.42254">
        <ele>30</ele>
        <time>2011-01-26T08:43:56Z</time>
      </trkpt>
      <trkpt lat="44.13889" lon="1.42256">
        <ele>30</ele>
        <time>2011-01-26T08:43:57Z</time>
      </trkpt>
      <trkpt lat="44.13886" lon="1.42258">
        <ele>30</ele>
        <time>2011-01-26T08:43:58Z</time>
      </trkpt>
      <trkpt lat="44.13884" lon="1.4226">
        <ele>30</ele>
        <time>2011-01-26T08:43:59Z</time>
      </trkpt>
      <trkpt lat="44.13882" lon="1.42261">
        <ele>30</ele>
        <time>2011-01-26T08:44:00Z</time>
      </trkpt>
      <trkpt lat="44.13879" lon="1.42263">
        <ele>30</ele>
        <time>2011-01-26T08:44:01Z</time>
      </trkpt>
      <trkpt lat="44.13877" lon="1.42265">
        <ele>30</ele>
        <time>2011-01-26T08:44:03Z</time>
      </trkpt>
      <trkpt lat="44.13875" lon="1.42267">
        <ele>30</ele>
        <time>2011-01-26T08:44:03Z</time>
      </trkpt>
      <trkpt lat="44.13872" lon="1.42269">
        <ele>30</ele>
        <time>2011-01-26T08:44:05Z</time>
      </trkpt>
      <trkpt lat="44.1387" lon="1.42271">
        <ele>30</ele>
        <time>2011-01-26T08:44:06Z</time>
      </trkpt>
      <trkpt lat="44.13868" lon="1.42273">
        <ele>30</ele>
        <time>2011-01-26T08:44:07Z</time>
      </trkpt>
      <trkpt lat="44.13866" lon="1.42275">
        <ele>30</ele>
        <time>2011-01-26T08:44:08Z</time>
      </trkpt>
      <trkpt lat="44.13864" lon="1.42276">
        <ele>30</ele>
        <time>2011-01-26T08:44:09Z</time>
      </trkpt>
      <trkpt lat="44.13861" lon="1.42278">
        <ele>30</ele>
        <time>2011-01-26T08:44:10Z</time>
      </trkpt>
      <trkpt lat="44.13859" lon="1.4228">
        <ele>30</ele>
        <time>2011-01-26T08:44:11Z</time>
      </trkpt>
      <trkpt lat="44.13857" lon="1.42282">
        <ele>30</ele>
        <time>2011-01-26T08:44:12Z</time>
      </trkpt>
      <trkpt lat="44.13855" lon="1.42284">
        <ele>30</ele>
        <time>2011-01-26T08:44:13Z</time>
      </trkpt>
      <trkpt lat="44.13852" lon="1.42286">
        <ele>30</ele>
        <time>2011-01-26T08:44:14Z</time>
      </trkpt>
      <trkpt lat="44.1385" lon="1.42287">
        <ele>30</ele>
        <time>2011-01-26T08:44:15Z</time>
      </trkpt>
      <trkpt lat="44.13848" lon="1.42289">
        <ele>30</ele>
        <time>2011-01-26T08:44:16Z</time>
      </trkpt>
      <trkpt lat="44.13845" lon="1.42291">
        <ele>30</ele>
        <time>2011-01-26T08:44:17Z</time>
      </trkpt>
      <trkpt lat="44.13843" lon="1.42293">
        <ele>30</ele>
        <time>2011-01-26T08:44:18Z</time>
      </trkpt>
      <trkpt lat="44.13841" lon="1.42295">
        <ele>30</ele>
        <time>2011-01-26T08:44:19Z</time>
      </trkpt>
      <trkpt lat="44.13839" lon="1.42298">
        <ele>30</ele>
        <time>2011-01-26T08:44:20Z</time>
      </trkpt>
      <trkpt lat="44.13837" lon="1.423">
        <ele>30</ele>
        <time>2011-01-26T08:44:22Z</time>
      </trkpt>
      <trkpt lat="44.13835" lon="1.42302">
        <ele>30</ele>
        <time>2011-01-26T08:44:23Z</time>
      </trkpt>
      <trkpt lat="44.13833" lon="1.42305">
        <ele>30</ele>
        <time>2011-01-26T08:44:24Z</time>
      </trkpt>
      <trkpt lat="44.13831" lon="1.42307">
        <ele>30</ele>
        <time>2011-01-26T08:44:25Z</time>
      </trkpt>
      <trkpt lat="44.13829" lon="1.4231">
        <ele>30</ele>
        <time>2011-01-26T08:44:26Z</time>
      </trkpt>
      <trkpt lat="44.13827" lon="1.42312">
        <ele>30</ele>
        <time>2011-01-26T08:44:27Z</time>
      </trkpt>
      <trkpt lat="44.13825" lon="1.42315">
        <ele>30</ele>
        <time>2011-01-26T08:44:28Z</time>
      </trkpt>
      <trkpt lat="44.13823" lon="1.42318">
        <ele>30</ele>
        <time>2011-01-26T08:44:29Z</time>
      </trkpt>
      <trkpt lat="44.13822" lon="1.42321">
        <ele>30</ele>
        <time>2011-01-26T08:44:30Z</time>
      </trkpt>
      <trkpt lat="44.1382" lon="1.42323">
        <ele>30</ele>
        <time>2011-01-26T08:44:31Z</time>
      </trkpt>
      <trkpt lat="44.13818" lon="1.42326">
        <ele>30</ele>
        <time>2011-01-26T08:44:32Z</time>
      </trkpt>
      <trkpt lat="44.13816" lon="1.42329">
        <ele>30</ele>
        <time>2011-01-26T08:44:33Z</time>
      </trkpt>
      <trkpt lat="44.13815" lon="1.42332">
        <ele>30</ele>
        <time>2011-01-26T08:44:34Z</time>
      </trkpt>
      <trkpt lat="44.13813" lon="1.42334">
        <ele>30</ele>
        <time>2011-01-26T08:44:35Z</time>
      </trkpt>
      <trkpt lat="44.13811" lon="1.42337">
        <ele>30</ele>
        <time>2011-01-26T08:44:36Z</time>
      </trkpt>
      <trkpt lat="44.13809" lon="1.4234">
        <ele>30</ele>
        <time>2011-01-26T08:44:38Z</time>
      </trkpt>
      <trkpt lat="44.13807" lon="1.42343">
        <ele>30</ele>
        <time>2011-01-26T08:44:39Z</time>
      </trkpt>
      <trkpt lat="44.13805" lon="1.42346">
        <ele>30</ele>
        <time>2011-01-26T08:44:40Z</time>
      </trkpt>
      <trkpt lat="44.13804" lon="1.42349">
        <ele>30</ele>
        <time>2011-01-26T08:44:41Z</time>
      </trkpt>
      <trkpt lat="44.13802" lon="1.42351">
        <ele>30</ele>
        <time>2011-01-26T08:44:42Z</time>
      </trkpt>
      <trkpt lat="44.138" lon="1.42354">
        <ele>30</ele>
        <time>2011-01-26T08:44:43Z</time>
      </trkpt>
      <trkpt lat="44.13798" lon="1.42357">
        <ele>30</ele>
        <time>2011-01-26T08:44:44Z</time>
      </trkpt>
      <trkpt lat="44.13796" lon="1.42359">
        <ele>30</ele>
        <time>2011-01-26T08:44:45Z</time>
      </trkpt>
      <trkpt lat="44.13794" lon="1.42362">
        <ele>30</ele>
        <time>2011-01-26T08:44:46Z</time>
      </trkpt>
      <trkpt lat="44.13792" lon="1.42365">
        <ele>30</ele>
        <time>2011-01-26T08:44:47Z</time>
      </trkpt>
      <trkpt lat="44.13791" lon="1.42368">
        <ele>30</ele>
        <time>2011-01-26T08:44:48Z</time>
      </trkpt>
      <trkpt lat="44.13789" lon="1.4237">
        <ele>30</ele>
        <time>2011-01-26T08:44:49Z</time>
      </trkpt>
      <trkpt lat="44.13787" lon="1.42372">
        <ele>30</ele>
        <time>2011-01-26T08:44:51Z</time>
      </trkpt>
      <trkpt lat="44.13785" lon="1.42374">
        <ele>30</ele>
        <time>2011-01-26T08:44:51Z</time>
      </trkpt>
      <trkpt lat="44.13783" lon="1.42376">
        <ele>30</ele>
        <time>2011-01-26T08:44:52Z</time>
      </trkpt>
      <trkpt lat="44.13781" lon="1.42379">
        <ele>30</ele>
        <time>2011-01-26T08:44:53Z</time>
      </trkpt>
      <trkpt lat="44.1378" lon="1.42381">
        <ele>30</ele>
        <time>2011-01-26T08:44:54Z</time>
      </trkpt>
      <trkpt lat="44.13778" lon="1.42383">
        <ele>30</ele>
        <time>2011-01-26T08:44:55Z</time>
      </trkpt>
      <trkpt lat="44.13776" lon="1.42386">
        <ele>30</ele>
        <time>2011-01-26T08:44:56Z</time>
      </trkpt>
      <trkpt lat="44.13774" lon="1.42388">
        <ele>30</ele>
        <time>2011-01-26T08:44:57Z</time>
      </trkpt>
      <trkpt lat="44.13772" lon="1.4239">
        <ele>30</ele>
        <time>2011-01-26T08:44:58Z</time>
      </trkpt>
      <trkpt lat="44.1377" lon="1.42392">
        <ele>30</ele>
        <time>2011-01-26T08:44:59Z</time>
      </trkpt>
      <trkpt lat="44.13768" lon="1.42395">
        <ele>30</ele>
        <time>2011-01-26T08:45:00Z</time>
      </trkpt>
      <trkpt lat="44.13766" lon="1.42396">
        <ele>30</ele>
        <time>2011-01-26T08:45:01Z</time>
      </trkpt>
      <trkpt lat="44.13764" lon="1.42398">
        <ele>30</ele>
        <time>2011-01-26T08:45:02Z</time>
      </trkpt>
      <trkpt lat="44.13762" lon="1.424">
        <ele>30</ele>
        <time>2011-01-26T08:45:03Z</time>
      </trkpt>
      <trkpt lat="44.1376" lon="1.42402">
        <ele>30</ele>
        <time>2011-01-26T08:45:04Z</time>
      </trkpt>
      <trkpt lat="44.13757" lon="1.42404">
        <ele>30</ele>
        <time>2011-01-26T08:45:05Z</time>
      </trkpt>
      <trkpt lat="44.13755" lon="1.42405">
        <ele>30</ele>
        <time>2011-01-26T08:45:07Z</time>
      </trkpt>
      <trkpt lat="44.13752" lon="1.42406">
        <ele>30</ele>
        <time>2011-01-26T08:45:08Z</time>
      </trkpt>
      <trkpt lat="44.1375" lon="1.42406">
        <ele>30</ele>
        <time>2011-01-26T08:45:09Z</time>
      </trkpt>
      <trkpt lat="44.13748" lon="1.42407">
        <ele>30</ele>
        <time>2011-01-26T08:45:09Z</time>
      </trkpt>
      <trkpt lat="44.13746" lon="1.42408">
        <ele>30</ele>
        <time>2011-01-26T08:45:10Z</time>
      </trkpt>
      <trkpt lat="44.13743" lon="1.42408">
        <ele>30</ele>
        <time>2011-01-26T08:45:11Z</time>
      </trkpt>
      <trkpt lat="44.1374" lon="1.42409">
        <ele>30</ele>
        <time>2011-01-26T08:45:13Z</time>
      </trkpt>
      <trkpt lat="44.13738" lon="1.42409">
        <ele>30</ele>
        <time>2011-01-26T08:45:13Z</time>
      </trkpt>
      <trkpt lat="44.13736" lon="1.42408">
        <ele>30</ele>
        <time>2011-01-26T08:45:14Z</time>
      </trkpt>
      <trkpt lat="44.13733" lon="1.42408">
        <ele>30</ele>
        <time>2011-01-26T08:45:15Z</time>
      </trkpt>
      <trkpt lat="44.13731" lon="1.42407">
        <ele>30</ele>
        <time>2011-01-26T08:45:16Z</time>
      </trkpt>
      <trkpt lat="44.13728" lon="1.42406">
        <ele>30</ele>
        <time>2011-01-26T08:45:17Z</time>
      </trkpt>
      <trkpt lat="44.13726" lon="1.42405">
        <ele>30</ele>
        <time>2011-01-26T08:45:19Z</time>
      </trkpt>
      <trkpt lat="44.13723" lon="1.42403">
        <ele>30</ele>
        <time>2011-01-26T08:45:20Z</time>
      </trkpt>
      <trkpt lat="44.13721" lon="1.42402">
        <ele>30</ele>
        <time>2011-01-26T08:45:21Z</time>
      </trkpt>
      <trkpt lat="44.13719" lon="1.424">
        <ele>30</ele>
        <time>2011-01-26T08:45:22Z</time>
      </trkpt>
      <trkpt lat="44.13717" lon="1.42399">
        <ele>30</ele>
        <time>2011-01-26T08:45:23Z</time>
      </trkpt>
      <trkpt lat="44.13715" lon="1.42397">
        <ele>30</ele>
        <time>2011-01-26T08:45:23Z</time>
      </trkpt>
      <trkpt lat="44.13713" lon="1.42395">
        <ele>30</ele>
        <time>2011-01-26T08:45:24Z</time>
      </trkpt>
      <trkpt lat="44.1371" lon="1.42393">
        <ele>30</ele>
        <time>2011-01-26T08:45:26Z</time>
      </trkpt>
      <trkpt lat="44.13708" lon="1.42391">
        <ele>30</ele>
        <time>2011-01-26T08:45:27Z</time>
      </trkpt>
      <trkpt lat="44.13706" lon="1.42389">
        <ele>30</ele>
        <time>2011-01-26T08:45:28Z</time>
      </trkpt>
      <trkpt lat="44.13704" lon="1.42388">
        <ele>30</ele>
        <time>2011-01-26T08:45:29Z</time>
      </trkpt>
      <trkpt lat="44.13702" lon="1.42387">
        <ele>30</ele>
        <time>2011-01-26T08:45:29Z</time>
      </trkpt>
      <trkpt lat="44.13699" lon="1.42385">
        <ele>30</ele>
        <time>2011-01-26T08:45:31Z</time>
      </trkpt>
      <trkpt lat="44.13697" lon="1.42384">
        <ele>30</ele>
        <time>2011-01-26T08:45:32Z</time>
      </trkpt>
      <trkpt lat="44.13694" lon="1.42383">
        <ele>30</ele>
        <time>2011-01-26T08:45:33Z</time>
      </trkpt>
      <trkpt lat="44.13692" lon="1.42382">
        <ele>30</ele>
        <time>2011-01-26T08:45:34Z</time>
      </trkpt>
      <trkpt lat="44.13689" lon="1.42381">
        <ele>30</ele>
        <time>2011-01-26T08:45:35Z</time>
      </trkpt>
      <trkpt lat="44.13687" lon="1.42381">
        <ele>30</ele>
        <time>2011-01-26T08:45:36Z</time>
      </trkpt>
      <trkpt lat="44.13684" lon="1.4238">
        <ele>30</ele>
        <time>2011-01-26T08:45:37Z</time>
      </trkpt>
      <trkpt lat="44.13682" lon="1.4238">
        <ele>30</ele>
        <time>2011-01-26T08:45:38Z</time>
      </trkpt>
      <trkpt lat="44.13679" lon="1.4238">
        <ele>30</ele>
        <time>2011-01-26T08:45:39Z</time>
      </trkpt>
      <trkpt lat="44.13677" lon="1.42381">
        <ele>30</ele>
        <time>2011-01-26T08:45:40Z</time>
      </trkpt>
      <trkpt lat="44.13675" lon="1.42381">
        <ele>30</ele>
        <time>2011-01-26T08:45:41Z</time>
      </trkpt>
      <trkpt lat="44.13672" lon="1.42382">
        <ele>30</ele>
        <time>2011-01-26T08:45:42Z</time>
      </trkpt>
      <trkpt lat="44.1367" lon="1.42383">
        <ele>30</ele>
        <time>2011-01-26T08:45:43Z</time>
      </trkpt>
      <trkpt lat="44.13667" lon="1.42383">
        <ele>30</ele>
        <time>2011-01-26T08:45:44Z</time>
      </trkpt>
      <trkpt lat="44.13665" lon="1.42384">
        <ele>30</ele>
        <time>2011-01-26T08:45:45Z</time>
      </trkpt>
      <trkpt lat="44.13662" lon="1.42385">
        <ele>30</ele>
        <time>2011-01-26T08:45:46Z</time>
      </trkpt>
      <trkpt lat="44.1366" lon="1.42385">
        <ele>30</ele>
        <time>2011-01-26T08:45:47Z</time>
      </trkpt>
      <trkpt lat="44.13658" lon="1.42386">
        <ele>30</ele>
        <time>2011-01-26T08:45:47Z</time>
      </trkpt>
      <trkpt lat="44.13655" lon="1.42387">
        <ele>30</ele>
        <time>2011-01-26T08:45:48Z</time>
      </trkpt>
      <trkpt lat="44.13653" lon="1.42388">
        <ele>30</ele>
        <time>2011-01-26T08:45:50Z</time>
      </trkpt>
      <trkpt lat="44.1365" lon="1.42389">
        <ele>30</ele>
        <time>2011-01-26T08:45:51Z</time>
      </trkpt>
      <trkpt lat="44.13648" lon="1.42391">
        <ele>30</ele>
        <time>2011-01-26T08:45:52Z</time>
      </trkpt>
      <trkpt lat="44.13646" lon="1.42392">
        <ele>30</ele>
        <time>2011-01-26T08:45:53Z</time>
      </trkpt>
      <trkpt lat="44.13643" lon="1.42393">
        <ele>30</ele>
        <time>2011-01-26T08:45:54Z</time>
      </trkpt>
      <trkpt lat="44.13641" lon="1.42395">
        <ele>30</ele>
        <time>2011-01-26T08:45:55Z</time>
      </trkpt>
      <trkpt lat="44.13639" lon="1.42396">
        <ele>30</ele>
        <time>2011-01-26T08:45:56Z</time>
      </trkpt>
      <trkpt lat="44.13636" lon="1.42398">
        <ele>30</ele>
        <time>2011-01-26T08:45:57Z</time>
      </trkpt>
      <trkpt lat="44.13634" lon="1.424">
        <ele>30</ele>
        <time>2011-01-26T08:45:58Z</time>
      </trkpt>
      <trkpt lat="44.13631" lon="1.42402">
        <ele>30</ele>
        <time>2011-01-26T08:45:59Z</time>
      </trkpt>
      <trkpt lat="44.13629" lon="1.42404">
        <ele>30</ele>
        <time>2011-01-26T08:46:00Z</time>
      </trkpt>
      <trkpt lat="44.13627" lon="1.42405">
        <ele>30</ele>
        <time>2011-01-26T08:46:01Z</time>
      </trkpt>
      <trkpt lat="44.13625" lon="1.42407">
        <ele>30</ele>
        <time>2011-01-26T08:46:02Z</time>
      </trkpt>
      <trkpt lat="44.13623" lon="1.42409">
        <ele>30</ele>
        <time>2011-01-26T08:46:03Z</time>
      </trkpt>
      <trkpt lat="44.13621" lon="1.42411">
        <ele>30</ele>
        <time>2011-01-26T08:46:04Z</time>
      </trkpt>
      <trkpt lat="44.13619" lon="1.42413">
        <ele>30</ele>
        <time>2011-01-26T08:46:05Z</time>
      </trkpt>
      <trkpt lat="44.13617" lon="1.42415">
        <ele>30</ele>
        <time>2011-01-26T08:46:06Z</time>
      </trkpt>
      <trkpt lat="44.13615" lon="1.42417">
        <ele>30</ele>
        <time>2011-01-26T08:46:07Z</time>
      </trkpt>
      <trkpt lat="44.13613" lon="1.4242">
        <ele>30</ele>
        <time>2011-01-26T08:46:08Z</time>
      </trkpt>
      <trkpt lat="44.13611" lon="1.42422">
        <ele>30</ele>
        <time>2011-01-26T08:46:09Z</time>
      </trkpt>
      <trkpt lat="44.13609" lon="1.42424">
        <ele>30</ele>
        <time>2011-01-26T08:46:10Z</time>
      </trkpt>
      <trkpt lat="44.13607" lon="1.42427">
        <ele>30</ele>
        <time>2011-01-26T08:46:11Z</time>
      </trkpt>
      <trkpt lat="44.13604" lon="1.4243">
        <ele>30</ele>
        <time>2011-01-26T08:46:12Z</time>
      </trkpt>
      <trkpt lat="44.13603" lon="1.42432">
        <ele>30</ele>
        <time>2011-01-26T08:46:13Z</time>
      </trkpt>
      <trkpt lat="44.13601" lon="1.42435">
        <ele>30</ele>
        <time>2011-01-26T08:46:15Z</time>
      </trkpt>
      <trkpt lat="44.13599" lon="1.42437">
        <ele>30</ele>
        <time>2011-01-26T08:46:16Z</time>
      </trkpt>
      <trkpt lat="44.13597" lon="1.42439">
        <ele>30</ele>
        <time>2011-01-26T08:46:17Z</time>
      </trkpt>
      <trkpt lat="44.13595" lon="1.42442">
        <ele>30</ele>
        <time>2011-01-26T08:46:18Z</time>
      </trkpt>
      <trkpt lat="44.13593" lon="1.42445">
        <ele>30</ele>
        <time>2011-01-26T08:46:19Z</time>
      </trkpt>
      <trkpt lat="44.13591" lon="1.42447">
        <ele>30</ele>
        <time>2011-01-26T08:46:20Z</time>
      </trkpt>
      <trkpt lat="44.13589" lon="1.4245">
        <ele>30</ele>
        <time>2011-01-26T08:46:21Z</time>
      </trkpt>
      <trkpt lat="44.13588" lon="1.42453">
        <ele>30</ele>
        <time>2011-01-26T08:46:22Z</time>
      </trkpt>
      <trkpt lat="44.13586" lon="1.42456">
        <ele>30</ele>
        <time>2011-01-26T08:46:23Z</time>
      </trkpt>
      <trkpt lat="44.13584" lon="1.42458">
        <ele>30</ele>
        <time>2011-01-26T08:46:24Z</time>
      </trkpt>
      <trkpt lat="44.13583" lon="1.42461">
        <ele>30</ele>
        <time>2011-01-26T08:46:25Z</time>
      </trkpt>
      <trkpt lat="44.13581" lon="1.42464">
        <ele>30</ele>
        <time>2011-01-26T08:46:26Z</time>
      </trkpt>
      <trkpt lat="44.13579" lon="1.42467">
        <ele>30</ele>
        <time>2011-01-26T08:46:27Z</time>
      </trkpt>
      <trkpt lat="44.13578" lon="1.4247">
        <ele>30</ele>
        <time>2011-01-26T08:46:28Z</time>
      </trkpt>
      <trkpt lat="44.13577" lon="1.42473">
        <ele>30</ele>
        <time>2011-01-26T08:46:29Z</time>
      </trkpt>
      <trkpt lat="44.13575" lon="1.42475">
        <ele>30</ele>
        <time>2011-01-26T08:46:30Z</time>
      </trkpt>
      <trkpt lat="44.13574" lon="1.42478">
        <ele>30</ele>
        <time>2011-01-26T08:46:31Z</time>
      </trkpt>
      <trkpt lat="44.13573" lon="1.42481">
        <ele>30</ele>
        <time>2011-01-26T08:46:32Z</time>
      </trkpt>
      <trkpt lat="44.13571" lon="1.42484">
        <ele>30</ele>
        <time>2011-01-26T08:46:33Z</time>
      </trkpt>
      <trkpt lat="44.1357" lon="1.42487">
        <ele>30</ele>
        <time>2011-01-26T08:46:34Z</time>
      </trkpt>
      <trkpt lat="44.13569" lon="1.42491">
        <ele>30</ele>
        <time>2011-01-26T08:46:35Z</time>
      </trkpt>
      <trkpt lat="44.13567" lon="1.42494">
        <ele>30</ele>
        <time>2011-01-26T08:46:36Z</time>
      </trkpt>
      <trkpt lat="44.13566" lon="1.42497">
        <ele>30</ele>
        <time>2011-01-26T08:46:37Z</time>
      </trkpt>
      <trkpt lat="44.13565" lon="1.425">
        <ele>30</ele>
        <time>2011-01-26T08:46:38Z</time>
      </trkpt>
      <trkpt lat="44.13563" lon="1.42503">
        <ele>30</ele>
        <time>2011-01-26T08:46:40Z</time>
      </trkpt>
      <trkpt lat="44.13562" lon="1.42506">
        <ele>30</ele>
        <time>2011-01-26T08:46:41Z</time>
      </trkpt>
      <trkpt lat="44.1356" lon="1.4251">
        <ele>30</ele>
        <time>2011-01-26T08:46:42Z</time>
      </trkpt>
      <trkpt lat="44.13559" lon="1.42513">
        <ele>30</ele>
        <time>2011-01-26T08:46:43Z</time>
      </trkpt>
      <trkpt lat="44.13557" lon="1.42516">
        <ele>30</ele>
        <time>2011-01-26T08:46:44Z</time>
      </trkpt>
      <trkpt lat="44.13556" lon="1.42519">
        <ele>30</ele>
        <time>2011-01-26T08:46:45Z</time>
      </trkpt>
      <trkpt lat="44.13555" lon="1.42522">
        <ele>30</ele>
        <time>2011-01-26T08:46:46Z</time>
      </trkpt>
      <trkpt lat="44.13554" lon="1.42525">
        <ele>30</ele>
        <time>2011-01-26T08:46:47Z</time>
      </trkpt>
      <trkpt lat="44.13552" lon="1.42528">
        <ele>30</ele>
        <time>2011-01-26T08:46:48Z</time>
      </trkpt>
      <trkpt lat="44.13551" lon="1.42531">
        <ele>30</ele>
        <time>2011-01-26T08:46:49Z</time>
      </trkpt>
      <trkpt lat="44.1355" lon="1.42534">
        <ele>30</ele>
        <time>2011-01-26T08:46:50Z</time>
      </trkpt>
      <trkpt lat="44.13549" lon="1.42537">
        <ele>30</ele>
        <time>2011-01-26T08:46:51Z</time>
      </trkpt>
      <trkpt lat="44.13547" lon="1.4254">
        <ele>30</ele>
        <time>2011-01-26T08:46:52Z</time>
      </trkpt>
      <trkpt lat="44.13546" lon="1.42543">
        <ele>30</ele>
        <time>2011-01-26T08:46:53Z</time>
      </trkpt>
      <trkpt lat="44.13545" lon="1.42546">
        <ele>30</ele>
        <time>2011-01-26T08:46:54Z</time>
      </trkpt>
      <trkpt lat="44.13543" lon="1.42549">
        <ele>30</ele>
        <time>2011-01-26T08:46:55Z</time>
      </trkpt>
      <trkpt lat="44.13542" lon="1.42552">
        <ele>30</ele>
        <time>2011-01-26T08:46:56Z</time>
      </trkpt>
      <trkpt lat="44.13541" lon="1.42554">
        <ele>30</ele>
        <time>2011-01-26T08:46:57Z</time>
      </trkpt>
      <trkpt lat="44.13539" lon="1.42557">
        <ele>30</ele>
        <time>2011-01-26T08:46:58Z</time>
      </trkpt>
      <trkpt lat="44.13538" lon="1.4256">
        <ele>30</ele>
        <time>2011-01-26T08:46:59Z</time>
      </trkpt>
      <trkpt lat="44.13536" lon="1.42563">
        <ele>30</ele>
        <time>2011-01-26T08:47:00Z</time>
      </trkpt>
      <trkpt lat="44.13535" lon="1.42565">
        <ele>30</ele>
        <time>2011-01-26T08:47:01Z</time>
      </trkpt>
      <trkpt lat="44.13532" lon="1.42566">
        <ele>30</ele>
        <time>2011-01-26T08:47:02Z</time>
      </trkpt>
      <trkpt lat="44.1353" lon="1.42567">
        <ele>30</ele>
        <time>2011-01-26T08:47:03Z</time>
      </trkpt>
      <trkpt lat="44.13528" lon="1.42565">
        <ele>30</ele>
        <time>2011-01-26T08:47:04Z</time>
      </trkpt>
      <trkpt lat="44.13525" lon="1.42563">
        <ele>30</ele>
        <time>2011-01-26T08:47:05Z</time>
      </trkpt>
      <trkpt lat="44.13524" lon="1.4256">
        <ele>30</ele>
        <time>2011-01-26T08:47:06Z</time>
      </trkpt>
      <trkpt lat="44.13523" lon="1.42556">
        <ele>30</ele>
        <time>2011-01-26T08:47:07Z</time>
      </trkpt>
      <trkpt lat="44.13522" lon="1.42552">
        <ele>30</ele>
        <time>2011-01-26T08:47:08Z</time>
      </trkpt>
      <trkpt lat="44.13522" lon="1.42549">
        <ele>30</ele>
        <time>2011-01-26T08:47:09Z</time>
      </trkpt>
      <trkpt lat="44.13521" lon="1.42545">
        <ele>30</ele>
        <time>2011-01-26T08:47:10Z</time>
      </trkpt>
      <trkpt lat="44.13521" lon="1.42541">
        <ele>30</ele>
        <time>2011-01-26T08:47:11Z</time>
      </trkpt>
      <trkpt lat="44.1352" lon="1.42538">
        <ele>30</ele>
        <time>2011-01-26T08:47:12Z</time>
      </trkpt>
      <trkpt lat="44.1352" lon="1.42534">
        <ele>30</ele>
        <time>2011-01-26T08:47:14Z</time>
      </trkpt>
      <trkpt lat="44.13519" lon="1.4253">
        <ele>30</ele>
        <time>2011-01-26T08:47:15Z</time>
      </trkpt>
      <trkpt lat="44.13519" lon="1.42526">
        <ele>30</ele>
        <time>2011-01-26T08:47:16Z</time>
      </trkpt>
      <trkpt lat="44.13518" lon="1.42522">
        <ele>30</ele>
        <time>2011-01-26T08:47:17Z</time>
      </trkpt>
      <trkpt lat="44.13518" lon="1.42519">
        <ele>30</ele>
        <time>2011-01-26T08:47:18Z</time>
      </trkpt>
      <trkpt lat="44.13517" lon="1.42515">
        <ele>30</ele>
        <time>2011-01-26T08:47:19Z</time>
      </trkpt>
      <trkpt lat="44.13517" lon="1.42511">
        <ele>30</ele>
        <time>2011-01-26T08:47:20Z</time>
      </trkpt>
      <trkpt lat="44.13517" lon="1.42508">
        <ele>30</ele>
        <time>2011-01-26T08:47:21Z</time>
      </trkpt>
      <trkpt lat="44.13517" lon="1.42504">
        <ele>30</ele>
        <time>2011-01-26T08:47:22Z</time>
      </trkpt>
      <trkpt lat="44.13517" lon="1.42501">
        <ele>30</ele>
        <time>2011-01-26T08:47:23Z</time>
      </trkpt>
      <trkpt lat="44.13517" lon="1.42497">
        <ele>30</ele>
        <time>2011-01-26T08:47:24Z</time>
      </trkpt>
      <trkpt lat="44.13517" lon="1.42494">
        <ele>30</ele>
        <time>2011-01-26T08:47:25Z</time>
      </trkpt>
      <trkpt lat="44.13517" lon="1.42491">
        <ele>30</ele>
        <time>2011-01-26T08:47:26Z</time>
      </trkpt>
      <trkpt lat="44.13517" lon="1.42487">
        <ele>30</ele>
        <time>2011-01-26T08:47:27Z</time>
      </trkpt>
      <trkpt lat="44.13517" lon="1.42483">
        <ele>30</ele>
        <time>2011-01-26T08:47:28Z</time>
      </trkpt>
      <trkpt lat="44.13517" lon="1.4248">
        <ele>30</ele>
        <time>2011-01-26T08:47:29Z</time>
      </trkpt>
      <trkpt lat="44.13517" lon="1.42476">
        <ele>30</ele>
        <time>2011-01-26T08:47:30Z</time>
      </trkpt>
      <trkpt lat="44.13517" lon="1.42473">
        <ele>30</ele>
        <time>2011-01-26T08:47:31Z</time>
      </trkpt>
      <trkpt lat="44.13517" lon="1.42469">
        <ele>30</ele>
        <time>2011-01-26T08:47:32Z</time>
      </trkpt>
      <trkpt lat="44.13517" lon="1.42465">
        <ele>30</ele>
        <time>2011-01-26T08:47:33Z</time>
      </trkpt>
      <trkpt lat="44.13517" lon="1.42462">
        <ele>30</ele>
        <time>2011-01-26T08:47:34Z</time>
      </trkpt>
      <trkpt lat="44.13517" lon="1.42458">
        <ele>30</ele>
        <time>2011-01-26T08:47:36Z</time>
      </trkpt>
      <trkpt lat="44.13517" lon="1.42454">
        <ele>30</ele>
        <time>2011-01-26T08:47:37Z</time>
      </trkpt>
      <trkpt lat="44.13518" lon="1.42451">
        <ele>30</ele>
        <time>2011-01-26T08:47:38Z</time>
      </trkpt>
      <trkpt lat="44.13518" lon="1.42447">
        <ele>30</ele>
        <time>2011-01-26T08:47:39Z</time>
      </trkpt>
      <trkpt lat="44.13517" lon="1.42444">
        <ele>30</ele>
        <time>2011-01-26T08:47:40Z</time>
      </trkpt>
      <trkpt lat="44.13517" lon="1.42441">
        <ele>30</ele>
        <time>2011-01-26T08:47:41Z</time>
      </trkpt>
      <trkpt lat="44.13516" lon="1.42437">
        <ele>30</ele>
        <time>2011-01-26T08:47:42Z</time>
      </trkpt>
      <trkpt lat="44.13515" lon="1.42434">
        <ele>30</ele>
        <time>2011-01-26T08:47:43Z</time>
      </trkpt>
      <trkpt lat="44.13514" lon="1.42431">
        <ele>30</ele>
        <time>2011-01-26T08:47:44Z</time>
      </trkpt>
      <trkpt lat="44.13513" lon="1.42428">
        <ele>30</ele>
        <time>2011-01-26T08:47:45Z</time>
      </trkpt>
      <trkpt lat="44.13511" lon="1.42425">
        <ele>30</ele>
        <time>2011-01-26T08:47:46Z</time>
      </trkpt>
      <trkpt lat="44.13509" lon="1.42422">
        <ele>30</ele>
        <time>2011-01-26T08:47:47Z</time>
      </trkpt>
      <trkpt lat="44.13507" lon="1.4242">
        <ele>30</ele>
        <time>2011-01-26T08:47:48Z</time>
      </trkpt>
      <trkpt lat="44.13505" lon="1.42417">
        <ele>30</ele>
        <time>2011-01-26T08:47:49Z</time>
      </trkpt>
      <trkpt lat="44.13503" lon="1.42415">
        <ele>30</ele>
        <time>2011-01-26T08:47:50Z</time>
      </trkpt>
      <trkpt lat="44.13501" lon="1.42413">
        <ele>30</ele>
        <time>2011-01-26T08:47:51Z</time>
      </trkpt>
      <trkpt lat="44.13499" lon="1.42411">
        <ele>30</ele>
        <time>2011-01-26T08:47:52Z</time>
      </trkpt>
      <trkpt lat="44.13497" lon="1.42408">
        <ele>30</ele>
        <time>2011-01-26T08:47:53Z</time>
      </trkpt>
      <trkpt lat="44.13494" lon="1.42406">
        <ele>30</ele>
        <time>2011-01-26T08:47:54Z</time>
      </trkpt>
      <trkpt lat="44.13492" lon="1.42404">
        <ele>30</ele>
        <time>2011-01-26T08:47:55Z</time>
      </trkpt>
      <trkpt lat="44.1349" lon="1.42402">
        <ele>30</ele>
        <time>2011-01-26T08:47:56Z</time>
      </trkpt>
      <trkpt lat="44.13488" lon="1.424">
        <ele>30</ele>
        <time>2011-01-26T08:47:58Z</time>
      </trkpt>
      <trkpt lat="44.13486" lon="1.42398">
        <ele>30</ele>
        <time>2011-01-26T08:47:59Z</time>
      </trkpt>
      <trkpt lat="44.13484" lon="1.42397">
        <ele>30</ele>
        <time>2011-01-26T08:47:59Z</time>
      </trkpt>
      <trkpt lat="44.13482" lon="1.42395">
        <ele>30</ele>
        <time>2011-01-26T08:48:00Z</time>
      </trkpt>
      <trkpt lat="44.1348" lon="1.42393">
        <ele>30</ele>
        <time>2011-01-26T08:48:01Z</time>
      </trkpt>
      <trkpt lat="44.13478" lon="1.42391">
        <ele>30</ele>
        <time>2011-01-26T08:48:02Z</time>
      </trkpt>
      <trkpt lat="44.13476" lon="1.42389">
        <ele>30</ele>
        <time>2011-01-26T08:48:03Z</time>
      </trkpt>
      <trkpt lat="44.13474" lon="1.42388">
        <ele>30</ele>
        <time>2011-01-26T08:48:04Z</time>
      </trkpt>
      <trkpt lat="44.13472" lon="1.42386">
        <ele>30</ele>
        <time>2011-01-26T08:48:05Z</time>
      </trkpt>
      <trkpt lat="44.13469" lon="1.42384">
        <ele>30</ele>
        <time>2011-01-26T08:48:06Z</time>
      </trkpt>
      <trkpt lat="44.13467" lon="1.42382">
        <ele>30</ele>
        <time>2011-01-26T08:48:07Z</time>
      </trkpt>
      <trkpt lat="44.13465" lon="1.4238">
        <ele>30</ele>
        <time>2011-01-26T08:48:08Z</time>
      </trkpt>
      <trkpt lat="44.13463" lon="1.42378">
        <ele>30</ele>
        <time>2011-01-26T08:48:09Z</time>
      </trkpt>
      <trkpt lat="44.13461" lon="1.42376">
        <ele>30</ele>
        <time>2011-01-26T08:48:10Z</time>
      </trkpt>
      <trkpt lat="44.13459" lon="1.42374">
        <ele>30</ele>
        <time>2011-01-26T08:48:11Z</time>
      </trkpt>
      <trkpt lat="44.13457" lon="1.42371">
        <ele>30</ele>
        <time>2011-01-26T08:48:12Z</time>
      </trkpt>
      <trkpt lat="44.13456" lon="1.42369">
        <ele>30</ele>
        <time>2011-01-26T08:48:13Z</time>
      </trkpt>
      <trkpt lat="44.13454" lon="1.42367">
        <ele>30</ele>
        <time>2011-01-26T08:48:14Z</time>
      </trkpt>
      <trkpt lat="44.13453" lon="1.42365">
        <ele>30</ele>
        <time>2011-01-26T08:48:15Z</time>
      </trkpt>
      <trkpt lat="44.13451" lon="1.42363">
        <ele>30</ele>
        <time>2011-01-26T08:48:16Z</time>
      </trkpt>
      <trkpt lat="44.1345" lon="1.42361">
        <ele>30</ele>
        <time>2011-01-26T08:48:16Z</time>
      </trkpt>
      <trkpt lat="44.13448" lon="1.4236">
        <ele>30</ele>
        <time>2011-01-26T08:48:17Z</time>
      </trkpt>
      <trkpt lat="44.13447" lon="1.42358">
        <ele>30</ele>
        <time>2011-01-26T08:48:18Z</time>
      </trkpt>
      <trkpt lat="44.13446" lon="1.42356">
        <ele>30</ele>
        <time>2011-01-26T08:48:19Z</time>
      </trkpt>
      <trkpt lat="44.13445" lon="1.42354">
        <ele>30</ele>
        <time>2011-01-26T08:48:19Z</time>
      </trkpt>
      <trkpt lat="44.13443" lon="1.42352">
        <ele>30</ele>
        <time>2011-01-26T08:48:20Z</time>
      </trkpt>
      <trkpt lat="44.13442" lon="1.42349">
        <ele>30</ele>
        <time>2011-01-26T08:48:21Z</time>
      </trkpt>
      <trkpt lat="44.13441" lon="1.42347">
        <ele>30</ele>
        <time>2011-01-26T08:48:22Z</time>
      </trkpt>
      <trkpt lat="44.13441" lon="1.42344">
        <ele>30</ele>
        <time>2011-01-26T08:48:23Z</time>
      </trkpt>
      <trkpt lat="44.1344" lon="1.42341">
        <ele>30</ele>
        <time>2011-01-26T08:48:24Z</time>
      </trkpt>
      <trkpt lat="44.13439" lon="1.42338">
        <ele>30</ele>
        <time>2011-01-26T08:48:25Z</time>
      </trkpt>
      <trkpt lat="44.13438" lon="1.42335">
        <ele>30</ele>
        <time>2011-01-26T08:48:26Z</time>
      </trkpt>
      <trkpt lat="44.13438" lon="1.42332">
        <ele>30</ele>
        <time>2011-01-26T08:48:26Z</time>
      </trkpt>
      <trkpt lat="44.13438" lon="1.42329">
        <ele>30</ele>
        <time>2011-01-26T08:48:27Z</time>
      </trkpt>
      <trkpt lat="44.13437" lon="1.42326">
        <ele>30</ele>
        <time>2011-01-26T08:48:28Z</time>
      </trkpt>
      <trkpt lat="44.13437" lon="1.42323">
        <ele>30</ele>
        <time>2011-01-26T08:48:29Z</time>
      </trkpt>
      <trkpt lat="44.13437" lon="1.4232">
        <ele>30</ele>
        <time>2011-01-26T08:48:30Z</time>
      </trkpt>
      <trkpt lat="44.13437" lon="1.42318">
        <ele>30</ele>
        <time>2011-01-26T08:48:31Z</time>
      </trkpt>
      <trkpt lat="44.13437" lon="1.42315">
        <ele>30</ele>
        <time>2011-01-26T08:48:31Z</time>
      </trkpt>
      <trkpt lat="44.13437" lon="1.42312">
        <ele>30</ele>
        <time>2011-01-26T08:48:32Z</time>
      </trkpt>
      <trkpt lat="44.13437" lon="1.42309">
        <ele>30</ele>
        <time>2011-01-26T08:48:33Z</time>
      </trkpt>
      <trkpt lat="44.13437" lon="1.42306">
        <ele>30</ele>
        <time>2011-01-26T08:48:34Z</time>
      </trkpt>
      <trkpt lat="44.13437" lon="1.42302">
        <ele>30</ele>
        <time>2011-01-26T08:48:35Z</time>
      </trkpt>
      <trkpt lat="44.13437" lon="1.42299">
        <ele>30</ele>
        <time>2011-01-26T08:48:36Z</time>
      </trkpt>
      <trkpt lat="44.13437" lon="1.42296">
        <ele>30</ele>
        <time>2011-01-26T08:48:37Z</time>
      </trkpt>
      <trkpt lat="44.13437" lon="1.42293">
        <ele>30</ele>
        <time>2011-01-26T08:48:38Z</time>
      </trkpt>
      <trkpt lat="44.13437" lon="1.4229">
        <ele>30</ele>
        <time>2011-01-26T08:48:39Z</time>
      </trkpt>
      <trkpt lat="44.13437" lon="1.42287">
        <ele>30</ele>
        <time>2011-01-26T08:48:39Z</time>
      </trkpt>
      <trkpt lat="44.13438" lon="1.42284">
        <ele>30</ele>
        <time>2011-01-26T08:48:40Z</time>
      </trkpt>
      <trkpt lat="44.13438" lon="1.42281">
        <ele>30</ele>
        <time>2011-01-26T08:48:41Z</time>
      </trkpt>
      <trkpt lat="44.13438" lon="1.42278">
        <ele>30</ele>
        <time>2011-01-26T08:48:42Z</time>
      </trkpt>
      <trkpt lat="44.13438" lon="1.42275">
        <ele>30</ele>
        <time>2011-01-26T08:48:43Z</time>
      </trkpt>
      <trkpt lat="44.13439" lon="1.42272">
        <ele>30</ele>
        <time>2011-01-26T08:48:44Z</time>
      </trkpt>
      <trkpt lat="44.13439" lon="1.42269">
        <ele>30</ele>
        <time>2011-01-26T08:48:45Z</time>
      </trkpt>
      <trkpt lat="44.13439" lon="1.42266">
        <ele>30</ele>
        <time>2011-01-26T08:48:45Z</time>
      </trkpt>
      <trkpt lat="44.1344" lon="1.42263">
        <ele>30</ele>
        <time>2011-01-26T08:48:46Z</time>
      </trkpt>
      <trkpt lat="44.1344" lon="1.4226">
        <ele>30</ele>
        <time>2011-01-26T08:48:47Z</time>
      </trkpt>
      <trkpt lat="44.1344" lon="1.42257">
        <ele>30</ele>
        <time>2011-01-26T08:48:48Z</time>
      </trkpt>
      <trkpt lat="44.1344" lon="1.42254">
        <ele>30</ele>
        <time>2011-01-26T08:48:49Z</time>
      </trkpt>
      <trkpt lat="44.1344" lon="1.4225">
        <ele>30</ele>
        <time>2011-01-26T08:48:50Z</time>
      </trkpt>
      <trkpt lat="44.13441" lon="1.42247">
        <ele>30</ele>
        <time>2011-01-26T08:48:51Z</time>
      </trkpt>
      <trkpt lat="44.13441" lon="1.42244">
        <ele>30</ele>
        <time>2011-01-26T08:48:52Z</time>
      </trkpt>
      <trkpt lat="44.13441" lon="1.42241">
        <ele>30</ele>
        <time>2011-01-26T08:48:53Z</time>
      </trkpt>
      <trkpt lat="44.13442" lon="1.42238">
        <ele>30</ele>
        <time>2011-01-26T08:48:54Z</time>
      </trkpt>
      <trkpt lat="44.13442" lon="1.42235">
        <ele>30</ele>
        <time>2011-01-26T08:48:55Z</time>
      </trkpt>
      <trkpt lat="44.13442" lon="1.42232">
        <ele>30</ele>
        <time>2011-01-26T08:48:55Z</time>
      </trkpt>
      <trkpt lat="44.13443" lon="1.42229">
        <ele>30</ele>
        <time>2011-01-26T08:48:56Z</time>
      </trkpt>
      <trkpt lat="44.13443" lon="1.42226">
        <ele>30</ele>
        <time>2011-01-26T08:48:57Z</time>
      </trkpt>
      <trkpt lat="44.13443" lon="1.42223">
        <ele>30</ele>
        <time>2011-01-26T08:48:58Z</time>
      </trkpt>
      <trkpt lat="44.13443" lon="1.4222">
        <ele>30</ele>
        <time>2011-01-26T08:48:59Z</time>
      </trkpt>
      <trkpt lat="44.13443" lon="1.42217">
        <ele>30</ele>
        <time>2011-01-26T08:49:00Z</time>
      </trkpt>
      <trkpt lat="44.13443" lon="1.42213">
        <ele>30</ele>
        <time>2011-01-26T08:49:01Z</time>
      </trkpt>
      <trkpt lat="44.13443" lon="1.4221">
        <ele>30</ele>
        <time>2011-01-26T08:49:02Z</time>
      </trkpt>
      <trkpt lat="44.13443" lon="1.42207">
        <ele>30</ele>
        <time>2011-01-26T08:49:03Z</time>
      </trkpt>
      <trkpt lat="44.13443" lon="1.42204">
        <ele>30</ele>
        <time>2011-01-26T08:49:04Z</time>
      </trkpt>
      <trkpt lat="44.13443" lon="1.42201">
        <ele>30</ele>
        <time>2011-01-26T08:49:04Z</time>
      </trkpt>
      <trkpt lat="44.13443" lon="1.42198">
        <ele>30</ele>
        <time>2011-01-26T08:49:05Z</time>
      </trkpt>
      <trkpt lat="44.13443" lon="1.42195">
        <ele>30</ele>
        <time>2011-01-26T08:49:06Z</time>
      </trkpt>
      <trkpt lat="44.13443" lon="1.42192">
        <ele>30</ele>
        <time>2011-01-26T08:49:07Z</time>
      </trkpt>
      <trkpt lat="44.13442" lon="1.42189">
        <ele>30</ele>
        <time>2011-01-26T08:49:08Z</time>
      </trkpt>
      <trkpt lat="44.13442" lon="1.42187">
        <ele>30</ele>
        <time>2011-01-26T08:49:09Z</time>
      </trkpt>
      <trkpt lat="44.13442" lon="1.42184">
        <ele>30</ele>
        <time>2011-01-26T08:49:09Z</time>
      </trkpt>
      <trkpt lat="44.13442" lon="1.4218">
        <ele>30</ele>
        <time>2011-01-26T08:49:10Z</time>
      </trkpt>
      <trkpt lat="44.13441" lon="1.42177">
        <ele>30</ele>
        <time>2011-01-26T08:49:11Z</time>
      </trkpt>
      <trkpt lat="44.13441" lon="1.42175">
        <ele>30</ele>
        <time>2011-01-26T08:49:12Z</time>
      </trkpt>
      <trkpt lat="44.1344" lon="1.42172">
        <ele>30</ele>
        <time>2011-01-26T08:49:13Z</time>
      </trkpt>
      <trkpt lat="44.1344" lon="1.42169">
        <ele>30</ele>
        <time>2011-01-26T08:49:14Z</time>
      </trkpt>
      <trkpt lat="44.13439" lon="1.42167">
        <ele>30</ele>
        <time>2011-01-26T08:49:15Z</time>
      </trkpt>
      <trkpt lat="44.13439" lon="1.42164">
        <ele>30</ele>
        <time>2011-01-26T08:49:15Z</time>
      </trkpt>
      <trkpt lat="44.13438" lon="1.42161">
        <ele>30</ele>
        <time>2011-01-26T08:49:16Z</time>
      </trkpt>
      <trkpt lat="44.13438" lon="1.42159">
        <ele>30</ele>
        <time>2011-01-26T08:49:17Z</time>
      </trkpt>
      <trkpt lat="44.13438" lon="1.42157">
        <ele>30</ele>
        <time>2011-01-26T08:49:17Z</time>
      </trkpt>
      <trkpt lat="44.13437" lon="1.42154">
        <ele>30</ele>
        <time>2011-01-26T08:49:18Z</time>
      </trkpt>
      <trkpt lat="44.13437" lon="1.42152">
        <ele>30</ele>
        <time>2011-01-26T08:49:19Z</time>
      </trkpt>
      <trkpt lat="44.13436" lon="1.42149">
        <ele>30</ele>
        <time>2011-01-26T08:49:20Z</time>
      </trkpt>
      <trkpt lat="44.13435" lon="1.42147">
        <ele>30</ele>
        <time>2011-01-26T08:49:20Z</time>
      </trkpt>
      <trkpt lat="44.13435" lon="1.42144">
        <ele>30</ele>
        <time>2011-01-26T08:49:21Z</time>
      </trkpt>
      <trkpt lat="44.13434" lon="1.42142">
        <ele>30</ele>
        <time>2011-01-26T08:49:22Z</time>
      </trkpt>
      <trkpt lat="44.13433" lon="1.4214">
        <ele>30</ele>
        <time>2011-01-26T08:49:23Z</time>
      </trkpt>
      <trkpt lat="44.13433" lon="1.42137">
        <ele>30</ele>
        <time>2011-01-26T08:49:23Z</time>
      </trkpt>
      <trkpt lat="44.13432" lon="1.42135">
        <ele>30</ele>
        <time>2011-01-26T08:49:24Z</time>
      </trkpt>
      <trkpt lat="44.13432" lon="1.42132">
        <ele>30</ele>
        <time>2011-01-26T08:49:25Z</time>
      </trkpt>
      <trkpt lat="44.13431" lon="1.4213">
        <ele>30</ele>
        <time>2011-01-26T08:49:26Z</time>
      </trkpt>
      <trkpt lat="44.1343" lon="1.42127">
        <ele>30</ele>
        <time>2011-01-26T08:49:26Z</time>
      </trkpt>
      <trkpt lat="44.13429" lon="1.42125">
        <ele>30</ele>
        <time>2011-01-26T08:49:27Z</time>
      </trkpt>
      <trkpt lat="44.13428" lon="1.42123">
        <ele>30</ele>
        <time>2011-01-26T08:49:28Z</time>
      </trkpt>
      <trkpt lat="44.13427" lon="1.4212">
        <ele>30</ele>
        <time>2011-01-26T08:49:29Z</time>
      </trkpt>
      <trkpt lat="44.13427" lon="1.42117">
        <ele>30</ele>
        <time>2011-01-26T08:49:30Z</time>
      </trkpt>
      <trkpt lat="44.13425" lon="1.42115">
        <ele>30</ele>
        <time>2011-01-26T08:49:30Z</time>
      </trkpt>
      <trkpt lat="44.13425" lon="1.42113">
        <ele>30</ele>
        <time>2011-01-26T08:49:31Z</time>
      </trkpt>
      <trkpt lat="44.13424" lon="1.4211">
        <ele>30</ele>
        <time>2011-01-26T08:49:32Z</time>
      </trkpt>
      <trkpt lat="44.13422" lon="1.42108">
        <ele>30</ele>
        <time>2011-01-26T08:49:33Z</time>
      </trkpt>
      <trkpt lat="44.13421" lon="1.42106">
        <ele>30</ele>
        <time>2011-01-26T08:49:34Z</time>
      </trkpt>
      <trkpt lat="44.1342" lon="1.42103">
        <ele>30</ele>
        <time>2011-01-26T08:49:35Z</time>
      </trkpt>
      <trkpt lat="44.13419" lon="1.42101">
        <ele>30</ele>
        <time>2011-01-26T08:49:35Z</time>
      </trkpt>
      <trkpt lat="44.13417" lon="1.42099">
        <ele>30</ele>
        <time>2011-01-26T08:49:36Z</time>
      </trkpt>
      <trkpt lat="44.13416" lon="1.42097">
        <ele>30</ele>
        <time>2011-01-26T08:49:37Z</time>
      </trkpt>
      <trkpt lat="44.13414" lon="1.42095">
        <ele>30</ele>
        <time>2011-01-26T08:49:38Z</time>
      </trkpt>
      <trkpt lat="44.13412" lon="1.42093">
        <ele>30</ele>
        <time>2011-01-26T08:49:39Z</time>
      </trkpt>
      <trkpt lat="44.13411" lon="1.42091">
        <ele>30</ele>
        <time>2011-01-26T08:49:40Z</time>
      </trkpt>
      <trkpt lat="44.13409" lon="1.42089">
        <ele>30</ele>
        <time>2011-01-26T08:49:41Z</time>
      </trkpt>
      <trkpt lat="44.13408" lon="1.42087">
        <ele>30</ele>
        <time>2011-01-26T08:49:41Z</time>
      </trkpt>
      <trkpt lat="44.13406" lon="1.42084">
        <ele>30</ele>
        <time>2011-01-26T08:49:42Z</time>
      </trkpt>
      <trkpt lat="44.13404" lon="1.42082">
        <ele>30</ele>
        <time>2011-01-26T08:49:43Z</time>
      </trkpt>
      <trkpt lat="44.13403" lon="1.42081">
        <ele>30</ele>
        <time>2011-01-26T08:49:44Z</time>
      </trkpt>
      <trkpt lat="44.13401" lon="1.42079">
        <ele>30</ele>
        <time>2011-01-26T08:49:45Z</time>
      </trkpt>
      <trkpt lat="44.134" lon="1.42077">
        <ele>30</ele>
        <time>2011-01-26T08:49:46Z</time>
      </trkpt>
      <trkpt lat="44.13398" lon="1.42075">
        <ele>30</ele>
        <time>2011-01-26T08:49:47Z</time>
      </trkpt>
      <trkpt lat="44.13396" lon="1.42073">
        <ele>30</ele>
        <time>2011-01-26T08:49:47Z</time>
      </trkpt>
      <trkpt lat="44.13395" lon="1.42071">
        <ele>30</ele>
        <time>2011-01-26T08:49:48Z</time>
      </trkpt>
      <trkpt lat="44.13393" lon="1.42069">
        <ele>30</ele>
        <time>2011-01-26T08:49:49Z</time>
      </trkpt>
      <trkpt lat="44.13391" lon="1.42067">
        <ele>30</ele>
        <time>2011-01-26T08:49:50Z</time>
      </trkpt>
      <trkpt lat="44.1339" lon="1.42065">
        <ele>30</ele>
        <time>2011-01-26T08:49:51Z</time>
      </trkpt>
      <trkpt lat="44.13388" lon="1.42063">
        <ele>30</ele>
        <time>2011-01-26T08:49:52Z</time>
      </trkpt>
      <trkpt lat="44.13386" lon="1.4206">
        <ele>30</ele>
        <time>2011-01-26T08:49:53Z</time>
      </trkpt>
      <trkpt lat="44.13385" lon="1.42058">
        <ele>30</ele>
        <time>2011-01-26T08:49:54Z</time>
      </trkpt>
      <trkpt lat="44.13383" lon="1.42056">
        <ele>30</ele>
        <time>2011-01-26T08:49:54Z</time>
      </trkpt>
      <trkpt lat="44.13382" lon="1.42054">
        <ele>30</ele>
        <time>2011-01-26T08:49:55Z</time>
      </trkpt>
      <trkpt lat="44.1338" lon="1.42052">
        <ele>30</ele>
        <time>2011-01-26T08:49:56Z</time>
      </trkpt>
      <trkpt lat="44.13379" lon="1.42049">
        <ele>30</ele>
        <time>2011-01-26T08:49:57Z</time>
      </trkpt>
      <trkpt lat="44.13378" lon="1.42047">
        <ele>30</ele>
        <time>2011-01-26T08:49:58Z</time>
      </trkpt>
      <trkpt lat="44.13376" lon="1.42045">
        <ele>30</ele>
        <time>2011-01-26T08:49:59Z</time>
      </trkpt>
      <trkpt lat="44.13375" lon="1.42043">
        <ele>30</ele>
        <time>2011-01-26T08:50:00Z</time>
      </trkpt>
      <trkpt lat="44.13373" lon="1.4204">
        <ele>30</ele>
        <time>2011-01-26T08:50:01Z</time>
      </trkpt>
      <trkpt lat="44.13372" lon="1.42038">
        <ele>30</ele>
        <time>2011-01-26T08:50:02Z</time>
      </trkpt>
      <trkpt lat="44.13371" lon="1.42036">
        <ele>30</ele>
        <time>2011-01-26T08:50:02Z</time>
      </trkpt>
      <trkpt lat="44.13369" lon="1.42033">
        <ele>30</ele>
        <time>2011-01-26T08:50:03Z</time>
      </trkpt>
      <trkpt lat="44.13368" lon="1.42031">
        <ele>30</ele>
        <time>2011-01-26T08:50:04Z</time>
      </trkpt>
      <trkpt lat="44.13367" lon="1.42029">
        <ele>30</ele>
        <time>2011-01-26T08:50:05Z</time>
      </trkpt>
      <trkpt lat="44.13365" lon="1.42027">
        <ele>30</ele>
        <time>2011-01-26T08:50:06Z</time>
      </trkpt>
      <trkpt lat="44.13364" lon="1.42024">
        <ele>30</ele>
        <time>2011-01-26T08:50:07Z</time>
      </trkpt>
      <trkpt lat="44.13363" lon="1.42022">
        <ele>30</ele>
        <time>2011-01-26T08:50:07Z</time>
      </trkpt>
      <trkpt lat="44.13361" lon="1.42019">
        <ele>30</ele>
        <time>2011-01-26T08:50:08Z</time>
      </trkpt>
      <trkpt lat="44.1336" lon="1.42017">
        <ele>30</ele>
        <time>2011-01-26T08:50:09Z</time>
      </trkpt>
      <trkpt lat="44.13359" lon="1.42014">
        <ele>30</ele>
        <time>2011-01-26T08:50:10Z</time>
      </trkpt>
      <trkpt lat="44.13357" lon="1.42011">
        <ele>30</ele>
        <time>2011-01-26T08:50:11Z</time>
      </trkpt>
      <trkpt lat="44.13356" lon="1.42008">
        <ele>30</ele>
        <time>2011-01-26T08:50:12Z</time>
      </trkpt>
      <trkpt lat="44.13354" lon="1.42005">
        <ele>30</ele>
        <time>2011-01-26T08:50:13Z</time>
      </trkpt>
      <trkpt lat="44.13353" lon="1.42002">
        <ele>30</ele>
        <time>2011-01-26T08:50:14Z</time>
      </trkpt>
      <trkpt lat="44.13352" lon="1.41999">
        <ele>30</ele>
        <time>2011-01-26T08:50:15Z</time>
      </trkpt>
      <trkpt lat="44.13351" lon="1.41996">
        <ele>30</ele>
        <time>2011-01-26T08:50:16Z</time>
      </trkpt>
      <trkpt lat="44.1335" lon="1.41993">
        <ele>30</ele>
        <time>2011-01-26T08:50:17Z</time>
      </trkpt>
      <trkpt lat="44.13349" lon="1.41991">
        <ele>30</ele>
        <time>2011-01-26T08:50:18Z</time>
      </trkpt>
      <trkpt lat="44.13348" lon="1.41988">
        <ele>30</ele>
        <time>2011-01-26T08:50:19Z</time>
      </trkpt>
      <trkpt lat="44.13346" lon="1.41985">
        <ele>30</ele>
        <time>2011-01-26T08:50:20Z</time>
      </trkpt>
      <trkpt lat="44.13345" lon="1.41982">
        <ele>30</ele>
        <time>2011-01-26T08:50:21Z</time>
      </trkpt>
      <trkpt lat="44.13345" lon="1.41979">
        <ele>30</ele>
        <time>2011-01-26T08:50:22Z</time>
      </trkpt>
      <trkpt lat="44.13343" lon="1.41976">
        <ele>30</ele>
        <time>2011-01-26T08:50:23Z</time>
      </trkpt>
      <trkpt lat="44.13343" lon="1.41973">
        <ele>30</ele>
        <time>2011-01-26T08:50:24Z</time>
      </trkpt>
      <trkpt lat="44.13342" lon="1.4197">
        <ele>30</ele>
        <time>2011-01-26T08:50:25Z</time>
      </trkpt>
      <trkpt lat="44.13341" lon="1.41967">
        <ele>30</ele>
        <time>2011-01-26T08:50:26Z</time>
      </trkpt>
      <trkpt lat="44.1334" lon="1.41963">
        <ele>30</ele>
        <time>2011-01-26T08:50:27Z</time>
      </trkpt>
      <trkpt lat="44.13339" lon="1.4196">
        <ele>30</ele>
        <time>2011-01-26T08:50:28Z</time>
      </trkpt>
      <trkpt lat="44.13338" lon="1.41957">
        <ele>30</ele>
        <time>2011-01-26T08:50:29Z</time>
      </trkpt>
      <trkpt lat="44.13338" lon="1.41954">
        <ele>30</ele>
        <time>2011-01-26T08:50:30Z</time>
      </trkpt>
      <trkpt lat="44.13337" lon="1.41951">
        <ele>30</ele>
        <time>2011-01-26T08:50:30Z</time>
      </trkpt>
      <trkpt lat="44.13336" lon="1.41948">
        <ele>30</ele>
        <time>2011-01-26T08:50:32Z</time>
      </trkpt>
      <trkpt lat="44.13336" lon="1.41944">
        <ele>30</ele>
        <time>2011-01-26T08:50:33Z</time>
      </trkpt>
      <trkpt lat="44.13335" lon="1.41941">
        <ele>30</ele>
        <time>2011-01-26T08:50:33Z</time>
      </trkpt>
      <trkpt lat="44.13335" lon="1.41938">
        <ele>30</ele>
        <time>2011-01-26T08:50:34Z</time>
      </trkpt>
      <trkpt lat="44.13334" lon="1.41935">
        <ele>30</ele>
        <time>2011-01-26T08:50:35Z</time>
      </trkpt>
      <trkpt lat="44.13333" lon="1.41932">
        <ele>30</ele>
        <time>2011-01-26T08:50:36Z</time>
      </trkpt>
      <trkpt lat="44.13333" lon="1.41929">
        <ele>30</ele>
        <time>2011-01-26T08:50:37Z</time>
      </trkpt>
      <trkpt lat="44.13332" lon="1.41925">
        <ele>30</ele>
        <time>2011-01-26T08:50:38Z</time>
      </trkpt>
      <trkpt lat="44.13331" lon="1.41922">
        <ele>30</ele>
        <time>2011-01-26T08:50:39Z</time>
      </trkpt>
      <trkpt lat="44.1333" lon="1.41918">
        <ele>30</ele>
        <time>2011-01-26T08:50:40Z</time>
      </trkpt>
      <trkpt lat="44.1333" lon="1.41915">
        <ele>30</ele>
        <time>2011-01-26T08:50:41Z</time>
      </trkpt>
      <trkpt lat="44.13329" lon="1.41912">
        <ele>30</ele>
        <time>2011-01-26T08:50:42Z</time>
      </trkpt>
      <trkpt lat="44.13328" lon="1.41909">
        <ele>30</ele>
        <time>2011-01-26T08:50:43Z</time>
      </trkpt>
      <trkpt lat="44.13327" lon="1.41906">
        <ele>30</ele>
        <time>2011-01-26T08:50:44Z</time>
      </trkpt>
      <trkpt lat="44.13327" lon="1.41903">
        <ele>30</ele>
        <time>2011-01-26T08:50:45Z</time>
      </trkpt>
      <trkpt lat="44.13326" lon="1.419">
        <ele>30</ele>
        <time>2011-01-26T08:50:46Z</time>
      </trkpt>
      <trkpt lat="44.13326" lon="1.41897">
        <ele>30</ele>
        <time>2011-01-26T08:50:47Z</time>
      </trkpt>
      <trkpt lat="44.13325" lon="1.41893">
        <ele>30</ele>
        <time>2011-01-26T08:50:48Z</time>
      </trkpt>
      <trkpt lat="44.13324" lon="1.4189">
        <ele>30</ele>
        <time>2011-01-26T08:50:49Z</time>
      </trkpt>
      <trkpt lat="44.13323" lon="1.41887">
        <ele>30</ele>
        <time>2011-01-26T08:50:50Z</time>
      </trkpt>
      <trkpt lat="44.13322" lon="1.41884">
        <ele>30</ele>
        <time>2011-01-26T08:50:51Z</time>
      </trkpt>
      <trkpt lat="44.13321" lon="1.41881">
        <ele>30</ele>
        <time>2011-01-26T08:50:52Z</time>
      </trkpt>
      <trkpt lat="44.1332" lon="1.41879">
        <ele>30</ele>
        <time>2011-01-26T08:50:53Z</time>
      </trkpt>
      <trkpt lat="44.13319" lon="1.41876">
        <ele>30</ele>
        <time>2011-01-26T08:50:53Z</time>
      </trkpt>
      <trkpt lat="44.13318" lon="1.41873">
        <ele>30</ele>
        <time>2011-01-26T08:50:54Z</time>
      </trkpt>
      <trkpt lat="44.13317" lon="1.41871">
        <ele>30</ele>
        <time>2011-01-26T08:50:55Z</time>
      </trkpt>
      <trkpt lat="44.13316" lon="1.41868">
        <ele>30</ele>
        <time>2011-01-26T08:50:56Z</time>
      </trkpt>
      <trkpt lat="44.13314" lon="1.41866">
        <ele>30</ele>
        <time>2011-01-26T08:50:57Z</time>
      </trkpt>
      <trkpt lat="44.13313" lon="1.41863">
        <ele>30</ele>
        <time>2011-01-26T08:50:58Z</time>
      </trkpt>
      <trkpt lat="44.13312" lon="1.41861">
        <ele>30</ele>
        <time>2011-01-26T08:50:59Z</time>
      </trkpt>
      <trkpt lat="44.13311" lon="1.41858">
        <ele>30</ele>
        <time>2011-01-26T08:50:59Z</time>
      </trkpt>
      <trkpt lat="44.1331" lon="1.41856">
        <ele>30</ele>
        <time>2011-01-26T08:51:00Z</time>
      </trkpt>
      <trkpt lat="44.13308" lon="1.41854">
        <ele>30</ele>
        <time>2011-01-26T08:51:01Z</time>
      </trkpt>
      <trkpt lat="44.13307" lon="1.41852">
        <ele>30</ele>
        <time>2011-01-26T08:51:02Z</time>
      </trkpt>
      <trkpt lat="44.13306" lon="1.4185">
        <ele>30</ele>
        <time>2011-01-26T08:51:03Z</time>
      </trkpt>
      <trkpt lat="44.13305" lon="1.41848">
        <ele>30</ele>
        <time>2011-01-26T08:51:03Z</time>
      </trkpt>
      <trkpt lat="44.13304" lon="1.41845">
        <ele>30</ele>
        <time>2011-01-26T08:51:04Z</time>
      </trkpt>
      <trkpt lat="44.13302" lon="1.41843">
        <ele>30</ele>
        <time>2011-01-26T08:51:05Z</time>
      </trkpt>
      <trkpt lat="44.13301" lon="1.41841">
        <ele>30</ele>
        <time>2011-01-26T08:51:06Z</time>
      </trkpt>
      <trkpt lat="44.133" lon="1.41839">
        <ele>30</ele>
        <time>2011-01-26T08:51:07Z</time>
      </trkpt>
      <trkpt lat="44.13298" lon="1.41837">
        <ele>30</ele>
        <time>2011-01-26T08:51:07Z</time>
      </trkpt>
      <trkpt lat="44.13297" lon="1.41835">
        <ele>30</ele>
        <time>2011-01-26T08:51:08Z</time>
      </trkpt>
      <trkpt lat="44.13297" lon="1.41832">
        <ele>30</ele>
        <time>2011-01-26T08:51:09Z</time>
      </trkpt>
      <trkpt lat="44.13296" lon="1.4183">
        <ele>30</ele>
        <time>2011-01-26T08:51:10Z</time>
      </trkpt>
      <trkpt lat="44.13295" lon="1.41828">
        <ele>30</ele>
        <time>2011-01-26T08:51:10Z</time>
      </trkpt>
      <trkpt lat="44.13294" lon="1.41825">
        <ele>30</ele>
        <time>2011-01-26T08:51:11Z</time>
      </trkpt>
      <trkpt lat="44.13293" lon="1.41823">
        <ele>30</ele>
        <time>2011-01-26T08:51:12Z</time>
      </trkpt>
      <trkpt lat="44.13292" lon="1.4182">
        <ele>30</ele>
        <time>2011-01-26T08:51:13Z</time>
      </trkpt>
      <trkpt lat="44.13291" lon="1.41818">
        <ele>30</ele>
        <time>2011-01-26T08:51:14Z</time>
      </trkpt>
      <trkpt lat="44.1329" lon="1.41815">
        <ele>30</ele>
        <time>2011-01-26T08:51:15Z</time>
      </trkpt>
      <trkpt lat="44.1329" lon="1.41812">
        <ele>30</ele>
        <time>2011-01-26T08:51:15Z</time>
      </trkpt>
      <trkpt lat="44.13289" lon="1.41809">
        <ele>30</ele>
        <time>2011-01-26T08:51:16Z</time>
      </trkpt>
      <trkpt lat="44.13288" lon="1.41807">
        <ele>30</ele>
        <time>2011-01-26T08:51:17Z</time>
      </trkpt>
      <trkpt lat="44.13287" lon="1.41804">
        <ele>30</ele>
        <time>2011-01-26T08:51:18Z</time>
      </trkpt>
      <trkpt lat="44.13286" lon="1.418">
        <ele>30</ele>
        <time>2011-01-26T08:51:19Z</time>
      </trkpt>
      <trkpt lat="44.13285" lon="1.41798">
        <ele>30</ele>
        <time>2011-01-26T08:51:20Z</time>
      </trkpt>
      <trkpt lat="44.13285" lon="1.41795">
        <ele>30</ele>
        <time>2011-01-26T08:51:21Z</time>
      </trkpt>
      <trkpt lat="44.13284" lon="1.41792">
        <ele>30</ele>
        <time>2011-01-26T08:51:22Z</time>
      </trkpt>
      <trkpt lat="44.13284" lon="1.41789">
        <ele>30</ele>
        <time>2011-01-26T08:51:23Z</time>
      </trkpt>
      <trkpt lat="44.13283" lon="1.41786">
        <ele>30</ele>
        <time>2011-01-26T08:51:23Z</time>
      </trkpt>
      <trkpt lat="44.13283" lon="1.41783">
        <ele>30</ele>
        <time>2011-01-26T08:51:24Z</time>
      </trkpt>
      <trkpt lat="44.13282" lon="1.4178">
        <ele>30</ele>
        <time>2011-01-26T08:51:25Z</time>
      </trkpt>
      <trkpt lat="44.13282" lon="1.41777">
        <ele>30</ele>
        <time>2011-01-26T08:51:26Z</time>
      </trkpt>
      <trkpt lat="44.13281" lon="1.41774">
        <ele>30</ele>
        <time>2011-01-26T08:51:27Z</time>
      </trkpt>
      <trkpt lat="44.13281" lon="1.4177">
        <ele>30</ele>
        <time>2011-01-26T08:51:28Z</time>
      </trkpt>
      <trkpt lat="44.1328" lon="1.41767">
        <ele>30</ele>
        <time>2011-01-26T08:51:29Z</time>
      </trkpt>
      <trkpt lat="44.13279" lon="1.41764">
        <ele>30</ele>
        <time>2011-01-26T08:51:30Z</time>
      </trkpt>
      <trkpt lat="44.13279" lon="1.41761">
        <ele>30</ele>
        <time>2011-01-26T08:51:31Z</time>
      </trkpt>
      <trkpt lat="44.13279" lon="1.41758">
        <ele>30</ele>
        <time>2011-01-26T08:51:32Z</time>
      </trkpt>
      <trkpt lat="44.13279" lon="1.41755">
        <ele>30</ele>
        <time>2011-01-26T08:51:32Z</time>
      </trkpt>
      <trkpt lat="44.13278" lon="1.41752">
        <ele>30</ele>
        <time>2011-01-26T08:51:33Z</time>
      </trkpt>
      <trkpt lat="44.13278" lon="1.41749">
        <ele>30</ele>
        <time>2011-01-26T08:51:34Z</time>
      </trkpt>
      <trkpt lat="44.13278" lon="1.41746">
        <ele>30</ele>
        <time>2011-01-26T08:51:35Z</time>
      </trkpt>
      <trkpt lat="44.13278" lon="1.41743">
        <ele>30</ele>
        <time>2011-01-26T08:51:36Z</time>
      </trkpt>
      <trkpt lat="44.13278" lon="1.4174">
        <ele>30</ele>
        <time>2011-01-26T08:51:37Z</time>
      </trkpt>
      <trkpt lat="44.13278" lon="1.41737">
        <ele>30</ele>
        <time>2011-01-26T08:51:38Z</time>
      </trkpt>
      <trkpt lat="44.13278" lon="1.41735">
        <ele>30</ele>
        <time>2011-01-26T08:51:38Z</time>
      </trkpt>
      <trkpt lat="44.13278" lon="1.41732">
        <ele>30</ele>
        <time>2011-01-26T08:51:39Z</time>
      </trkpt>
      <trkpt lat="44.13277" lon="1.41729">
        <ele>30</ele>
        <time>2011-01-26T08:51:40Z</time>
      </trkpt>
      <trkpt lat="44.13277" lon="1.41726">
        <ele>30</ele>
        <time>2011-01-26T08:51:41Z</time>
      </trkpt>
      <trkpt lat="44.13277" lon="1.41723">
        <ele>30</ele>
        <time>2011-01-26T08:51:42Z</time>
      </trkpt>
      <trkpt lat="44.13277" lon="1.4172">
        <ele>30</ele>
        <time>2011-01-26T08:51:43Z</time>
      </trkpt>
      <trkpt lat="44.13276" lon="1.41717">
        <ele>30</ele>
        <time>2011-01-26T08:51:44Z</time>
      </trkpt>
      <trkpt lat="44.13276" lon="1.41714">
        <ele>30</ele>
        <time>2011-01-26T08:51:44Z</time>
      </trkpt>
      <trkpt lat="44.13276" lon="1.41712">
        <ele>30</ele>
        <time>2011-01-26T08:51:45Z</time>
      </trkpt>
      <trkpt lat="44.13276" lon="1.41709">
        <ele>30</ele>
        <time>2011-01-26T08:51:46Z</time>
      </trkpt>
      <trkpt lat="44.13276" lon="1.41706">
        <ele>30</ele>
        <time>2011-01-26T08:51:47Z</time>
      </trkpt>
      <trkpt lat="44.13276" lon="1.41703">
        <ele>30</ele>
        <time>2011-01-26T08:51:48Z</time>
      </trkpt>
      <trkpt lat="44.13276" lon="1.41701">
        <ele>30</ele>
        <time>2011-01-26T08:51:48Z</time>
      </trkpt>
      <trkpt lat="44.13276" lon="1.41698">
        <ele>30</ele>
        <time>2011-01-26T08:51:49Z</time>
      </trkpt>
      <trkpt lat="44.13276" lon="1.41696">
        <ele>30</ele>
        <time>2011-01-26T08:51:50Z</time>
      </trkpt>
      <trkpt lat="44.13275" lon="1.41693">
        <ele>30</ele>
        <time>2011-01-26T08:51:50Z</time>
      </trkpt>
      <trkpt lat="44.13275" lon="1.41691">
        <ele>30</ele>
        <time>2011-01-26T08:51:51Z</time>
      </trkpt>
      <trkpt lat="44.13274" lon="1.41688">
        <ele>30</ele>
        <time>2011-01-26T08:51:52Z</time>
      </trkpt>
      <trkpt lat="44.13274" lon="1.41686">
        <ele>30</ele>
        <time>2011-01-26T08:51:53Z</time>
      </trkpt>
      <trkpt lat="44.13273" lon="1.41683">
        <ele>30</ele>
        <time>2011-01-26T08:51:54Z</time>
      </trkpt>
      <trkpt lat="44.13272" lon="1.4168">
        <ele>30</ele>
        <time>2011-01-26T08:51:54Z</time>
      </trkpt>
      <trkpt lat="44.13271" lon="1.41678">
        <ele>30</ele>
        <time>2011-01-26T08:51:55Z</time>
      </trkpt>
      <trkpt lat="44.13269" lon="1.41675">
        <ele>30</ele>
        <time>2011-01-26T08:51:56Z</time>
      </trkpt>
      <trkpt lat="44.13268" lon="1.41673">
        <ele>30</ele>
        <time>2011-01-26T08:51:57Z</time>
      </trkpt>
      <trkpt lat="44.13267" lon="1.4167">
        <ele>30</ele>
        <time>2011-01-26T08:51:58Z</time>
      </trkpt>
      <trkpt lat="44.13266" lon="1.41668">
        <ele>30</ele>
        <time>2011-01-26T08:51:59Z</time>
      </trkpt>
      <trkpt lat="44.13264" lon="1.41665">
        <ele>30</ele>
        <time>2011-01-26T08:52:00Z</time>
      </trkpt>
      <trkpt lat="44.13263" lon="1.41663">
        <ele>30</ele>
        <time>2011-01-26T08:52:01Z</time>
      </trkpt>
      <trkpt lat="44.13261" lon="1.41661">
        <ele>30</ele>
        <time>2011-01-26T08:52:01Z</time>
      </trkpt>
      <trkpt lat="44.1326" lon="1.41659">
        <ele>30</ele>
        <time>2011-01-26T08:52:02Z</time>
      </trkpt>
      <trkpt lat="44.13258" lon="1.41657">
        <ele>30</ele>
        <time>2011-01-26T08:52:03Z</time>
      </trkpt>
      <trkpt lat="44.13256" lon="1.41654">
        <ele>30</ele>
        <time>2011-01-26T08:52:04Z</time>
      </trkpt>
      <trkpt lat="44.13255" lon="1.41652">
        <ele>30</ele>
        <time>2011-01-26T08:52:05Z</time>
      </trkpt>
      <trkpt lat="44.13253" lon="1.4165">
        <ele>30</ele>
        <time>2011-01-26T08:52:06Z</time>
      </trkpt>
      <trkpt lat="44.13251" lon="1.41648">
        <ele>30</ele>
        <time>2011-01-26T08:52:07Z</time>
      </trkpt>
      <trkpt lat="44.1325" lon="1.41646">
        <ele>30</ele>
        <time>2011-01-26T08:52:08Z</time>
      </trkpt>
      <trkpt lat="44.13248" lon="1.41644">
        <ele>30</ele>
        <time>2011-01-26T08:52:09Z</time>
      </trkpt>
      <trkpt lat="44.13246" lon="1.41642">
        <ele>30</ele>
        <time>2011-01-26T08:52:10Z</time>
      </trkpt>
      <trkpt lat="44.13245" lon="1.4164">
        <ele>30</ele>
        <time>2011-01-26T08:52:11Z</time>
      </trkpt>
      <trkpt lat="44.13243" lon="1.41638">
        <ele>30</ele>
        <time>2011-01-26T08:52:11Z</time>
      </trkpt>
      <trkpt lat="44.13242" lon="1.41636">
        <ele>30</ele>
        <time>2011-01-26T08:52:12Z</time>
      </trkpt>
      <trkpt lat="44.1324" lon="1.41634">
        <ele>30</ele>
        <time>2011-01-26T08:52:13Z</time>
      </trkpt>
      <trkpt lat="44.13239" lon="1.41632">
        <ele>30</ele>
        <time>2011-01-26T08:52:14Z</time>
      </trkpt>
      <trkpt lat="44.13237" lon="1.4163">
        <ele>30</ele>
        <time>2011-01-26T08:52:15Z</time>
      </trkpt>
      <trkpt lat="44.13236" lon="1.41628">
        <ele>30</ele>
        <time>2011-01-26T08:52:15Z</time>
      </trkpt>
      <trkpt lat="44.13234" lon="1.41626">
        <ele>30</ele>
        <time>2011-01-26T08:52:16Z</time>
      </trkpt>
      <trkpt lat="44.13233" lon="1.41624">
        <ele>30</ele>
        <time>2011-01-26T08:52:17Z</time>
      </trkpt>
      <trkpt lat="44.13231" lon="1.41622">
        <ele>30</ele>
        <time>2011-01-26T08:52:18Z</time>
      </trkpt>
      <trkpt lat="44.13229" lon="1.4162">
        <ele>30</ele>
        <time>2011-01-26T08:52:19Z</time>
      </trkpt>
      <trkpt lat="44.13228" lon="1.41618">
        <ele>30</ele>
        <time>2011-01-26T08:52:20Z</time>
      </trkpt>
      <trkpt lat="44.13226" lon="1.41616">
        <ele>30</ele>
        <time>2011-01-26T08:52:21Z</time>
      </trkpt>
      <trkpt lat="44.13225" lon="1.41614">
        <ele>30</ele>
        <time>2011-01-26T08:52:21Z</time>
      </trkpt>
      <trkpt lat="44.13223" lon="1.41612">
        <ele>30</ele>
        <time>2011-01-26T08:52:22Z</time>
      </trkpt>
      <trkpt lat="44.13222" lon="1.4161">
        <ele>30</ele>
        <time>2011-01-26T08:52:23Z</time>
      </trkpt>
      <trkpt lat="44.1322" lon="1.41608">
        <ele>30</ele>
        <time>2011-01-26T08:52:24Z</time>
      </trkpt>
      <trkpt lat="44.13219" lon="1.41606">
        <ele>30</ele>
        <time>2011-01-26T08:52:25Z</time>
      </trkpt>
      <trkpt lat="44.13217" lon="1.41604">
        <ele>30</ele>
        <time>2011-01-26T08:52:26Z</time>
      </trkpt>
      <trkpt lat="44.13216" lon="1.41602">
        <ele>30</ele>
        <time>2011-01-26T08:52:26Z</time>
      </trkpt>
      <trkpt lat="44.13214" lon="1.416">
        <ele>30</ele>
        <time>2011-01-26T08:52:27Z</time>
      </trkpt>
      <trkpt lat="44.13213" lon="1.41598">
        <ele>30</ele>
        <time>2011-01-26T08:52:28Z</time>
      </trkpt>
      <trkpt lat="44.13211" lon="1.41597">
        <ele>30</ele>
        <time>2011-01-26T08:52:29Z</time>
      </trkpt>
      <trkpt lat="44.1321" lon="1.41595">
        <ele>30</ele>
        <time>2011-01-26T08:52:30Z</time>
      </trkpt>
      <trkpt lat="44.13208" lon="1.41592">
        <ele>30</ele>
        <time>2011-01-26T08:52:31Z</time>
      </trkpt>
      <trkpt lat="44.13207" lon="1.4159">
        <ele>30</ele>
        <time>2011-01-26T08:52:31Z</time>
      </trkpt>
      <trkpt lat="44.13206" lon="1.41588">
        <ele>30</ele>
        <time>2011-01-26T08:52:32Z</time>
      </trkpt>
      <trkpt lat="44.13204" lon="1.41586">
        <ele>30</ele>
        <time>2011-01-26T08:52:33Z</time>
      </trkpt>
      <trkpt lat="44.13203" lon="1.41584">
        <ele>30</ele>
        <time>2011-01-26T08:52:34Z</time>
      </trkpt>
      <trkpt lat="44.13202" lon="1.41582">
        <ele>30</ele>
        <time>2011-01-26T08:52:35Z</time>
      </trkpt>
      <trkpt lat="44.132" lon="1.41579">
        <ele>30</ele>
        <time>2011-01-26T08:52:36Z</time>
      </trkpt>
      <trkpt lat="44.13199" lon="1.41577">
        <ele>30</ele>
        <time>2011-01-26T08:52:36Z</time>
      </trkpt>
      <trkpt lat="44.13197" lon="1.41575">
        <ele>30</ele>
        <time>2011-01-26T08:52:37Z</time>
      </trkpt>
      <trkpt lat="44.13196" lon="1.41573">
        <ele>30</ele>
        <time>2011-01-26T08:52:38Z</time>
      </trkpt>
      <trkpt lat="44.13195" lon="1.4157">
        <ele>30</ele>
        <time>2011-01-26T08:52:39Z</time>
      </trkpt>
      <trkpt lat="44.13193" lon="1.41568">
        <ele>30</ele>
        <time>2011-01-26T08:52:40Z</time>
      </trkpt>
      <trkpt lat="44.13192" lon="1.41566">
        <ele>30</ele>
        <time>2011-01-26T08:52:41Z</time>
      </trkpt>
      <trkpt lat="44.1319" lon="1.41563">
        <ele>30</ele>
        <time>2011-01-26T08:52:42Z</time>
      </trkpt>
      <trkpt lat="44.13189" lon="1.41561">
        <ele>30</ele>
        <time>2011-01-26T08:52:42Z</time>
      </trkpt>
      <trkpt lat="44.13188" lon="1.41558">
        <ele>30</ele>
        <time>2011-01-26T08:52:43Z</time>
      </trkpt>
      <trkpt lat="44.13187" lon="1.41556">
        <ele>30</ele>
        <time>2011-01-26T08:52:44Z</time>
      </trkpt>
      <trkpt lat="44.13186" lon="1.41554">
        <ele>30</ele>
        <time>2011-01-26T08:52:45Z</time>
      </trkpt>
      <trkpt lat="44.13184" lon="1.41551">
        <ele>30</ele>
        <time>2011-01-26T08:52:46Z</time>
      </trkpt>
      <trkpt lat="44.13183" lon="1.41549">
        <ele>30</ele>
        <time>2011-01-26T08:52:47Z</time>
      </trkpt>
      <trkpt lat="44.13182" lon="1.41546">
        <ele>30</ele>
        <time>2011-01-26T08:52:48Z</time>
      </trkpt>
      <trkpt lat="44.13181" lon="1.41544">
        <ele>30</ele>
        <time>2011-01-26T08:52:48Z</time>
      </trkpt>
      <trkpt lat="44.13179" lon="1.41541">
        <ele>30</ele>
        <time>2011-01-26T08:52:49Z</time>
      </trkpt>
      <trkpt lat="44.13178" lon="1.41539">
        <ele>30</ele>
        <time>2011-01-26T08:52:50Z</time>
      </trkpt>
      <trkpt lat="44.13177" lon="1.41536">
        <ele>30</ele>
        <time>2011-01-26T08:52:51Z</time>
      </trkpt>
      <trkpt lat="44.13176" lon="1.41534">
        <ele>30</ele>
        <time>2011-01-26T08:52:52Z</time>
      </trkpt>
      <trkpt lat="44.13175" lon="1.41531">
        <ele>30</ele>
        <time>2011-01-26T08:52:53Z</time>
      </trkpt>
      <trkpt lat="44.13174" lon="1.41529">
        <ele>30</ele>
        <time>2011-01-26T08:52:54Z</time>
      </trkpt>
      <trkpt lat="44.13173" lon="1.41526">
        <ele>30</ele>
        <time>2011-01-26T08:52:54Z</time>
      </trkpt>
      <trkpt lat="44.13172" lon="1.41524">
        <ele>30</ele>
        <time>2011-01-26T08:52:55Z</time>
      </trkpt>
      <trkpt lat="44.13171" lon="1.41522">
        <ele>30</ele>
        <time>2011-01-26T08:52:56Z</time>
      </trkpt>
      <trkpt lat="44.1317" lon="1.41519">
        <ele>30</ele>
        <time>2011-01-26T08:52:57Z</time>
      </trkpt>
      <trkpt lat="44.13168" lon="1.41516">
        <ele>30</ele>
        <time>2011-01-26T08:52:58Z</time>
      </trkpt>
      <trkpt lat="44.13167" lon="1.41514">
        <ele>30</ele>
        <time>2011-01-26T08:52:59Z</time>
      </trkpt>
      <trkpt lat="44.13166" lon="1.41512">
        <ele>30</ele>
        <time>2011-01-26T08:52:59Z</time>
      </trkpt>
      <trkpt lat="44.13165" lon="1.41509">
        <ele>30</ele>
        <time>2011-01-26T08:53:00Z</time>
      </trkpt>
      <trkpt lat="44.13164" lon="1.41507">
        <ele>30</ele>
        <time>2011-01-26T08:53:01Z</time>
      </trkpt>
      <trkpt lat="44.13163" lon="1.41504">
        <ele>30</ele>
        <time>2011-01-26T08:53:02Z</time>
      </trkpt>
      <trkpt lat="44.13163" lon="1.41502">
        <ele>30</ele>
        <time>2011-01-26T08:53:03Z</time>
      </trkpt>
      <trkpt lat="44.13162" lon="1.41499">
        <ele>30</ele>
        <time>2011-01-26T08:53:03Z</time>
      </trkpt>
      <trkpt lat="44.13161" lon="1.41497">
        <ele>30</ele>
        <time>2011-01-26T08:53:04Z</time>
      </trkpt>
      <trkpt lat="44.1316" lon="1.41495">
        <ele>30</ele>
        <time>2011-01-26T08:53:05Z</time>
      </trkpt>
      <trkpt lat="44.13159" lon="1.41492">
        <ele>30</ele>
        <time>2011-01-26T08:53:06Z</time>
      </trkpt>
      <trkpt lat="44.13158" lon="1.4149">
        <ele>30</ele>
        <time>2011-01-26T08:53:06Z</time>
      </trkpt>
      <trkpt lat="44.13157" lon="1.41488">
        <ele>30</ele>
        <time>2011-01-26T08:53:07Z</time>
      </trkpt>
      <trkpt lat="44.13156" lon="1.41485">
        <ele>30</ele>
        <time>2011-01-26T08:53:08Z</time>
      </trkpt>
      <trkpt lat="44.13156" lon="1.41483">
        <ele>30</ele>
        <time>2011-01-26T08:53:09Z</time>
      </trkpt>
      <trkpt lat="44.13155" lon="1.4148">
        <ele>30</ele>
        <time>2011-01-26T08:53:09Z</time>
      </trkpt>
      <trkpt lat="44.13155" lon="1.41478">
        <ele>30</ele>
        <time>2011-01-26T08:53:10Z</time>
      </trkpt>
      <trkpt lat="44.13154" lon="1.41475">
        <ele>30</ele>
        <time>2011-01-26T08:53:11Z</time>
      </trkpt>
      <trkpt lat="44.13153" lon="1.41473">
        <ele>30</ele>
        <time>2011-01-26T08:53:12Z</time>
      </trkpt>
      <trkpt lat="44.13153" lon="1.4147">
        <ele>30</ele>
        <time>2011-01-26T08:53:13Z</time>
      </trkpt>
      <trkpt lat="44.13152" lon="1.41468">
        <ele>30</ele>
        <time>2011-01-26T08:53:13Z</time>
      </trkpt>
      <trkpt lat="44.13152" lon="1.41465">
        <ele>30</ele>
        <time>2011-01-26T08:53:14Z</time>
      </trkpt>
      <trkpt lat="44.13151" lon="1.41462">
        <ele>30</ele>
        <time>2011-01-26T08:53:15Z</time>
      </trkpt>
      <trkpt lat="44.13151" lon="1.41459">
        <ele>30</ele>
        <time>2011-01-26T08:53:16Z</time>
      </trkpt>
      <trkpt lat="44.1315" lon="1.41456">
        <ele>30</ele>
        <time>2011-01-26T08:53:17Z</time>
      </trkpt>
      <trkpt lat="44.1315" lon="1.41454">
        <ele>30</ele>
        <time>2011-01-26T08:53:17Z</time>
      </trkpt>
      <trkpt lat="44.1315" lon="1.41451">
        <ele>30</ele>
        <time>2011-01-26T08:53:18Z</time>
      </trkpt>
      <trkpt lat="44.1315" lon="1.41449">
        <ele>30</ele>
        <time>2011-01-26T08:53:19Z</time>
      </trkpt>
      <trkpt lat="44.1315" lon="1.41446">
        <ele>30</ele>
        <time>2011-01-26T08:53:20Z</time>
      </trkpt>
      <trkpt lat="44.1315" lon="1.41443">
        <ele>30</ele>
        <time>2011-01-26T08:53:21Z</time>
      </trkpt>
      <trkpt lat="44.1315" lon="1.4144">
        <ele>30</ele>
        <time>2011-01-26T08:53:21Z</time>
      </trkpt>
      <trkpt lat="44.1315" lon="1.41438">
        <ele>30</ele>
        <time>2011-01-26T08:53:22Z</time>
      </trkpt>
      <trkpt lat="44.13149" lon="1.41435">
        <ele>30</ele>
        <time>2011-01-26T08:53:23Z</time>
      </trkpt>
      <trkpt lat="44.13149" lon="1.41432">
        <ele>30</ele>
        <time>2011-01-26T08:53:24Z</time>
      </trkpt>
      <trkpt lat="44.13149" lon="1.41429">
        <ele>30</ele>
        <time>2011-01-26T08:53:25Z</time>
      </trkpt>
      <trkpt lat="44.13149" lon="1.41426">
        <ele>30</ele>
        <time>2011-01-26T08:53:25Z</time>
      </trkpt>
      <trkpt lat="44.13149" lon="1.41424">
        <ele>30</ele>
        <time>2011-01-26T08:53:26Z</time>
      </trkpt>
      <trkpt lat="44.13149" lon="1.41421">
        <ele>30</ele>
        <time>2011-01-26T08:53:27Z</time>
      </trkpt>
      <trkpt lat="44.13149" lon="1.41418">
        <ele>30</ele>
        <time>2011-01-26T08:53:28Z</time>
      </trkpt>
      <trkpt lat="44.13149" lon="1.41415">
        <ele>30</ele>
        <time>2011-01-26T08:53:29Z</time>
      </trkpt>
      <trkpt lat="44.13149" lon="1.41412">
        <ele>30</ele>
        <time>2011-01-26T08:53:29Z</time>
      </trkpt>
      <trkpt lat="44.13149" lon="1.4141">
        <ele>30</ele>
        <time>2011-01-26T08:53:30Z</time>
      </trkpt>
      <trkpt lat="44.13149" lon="1.41407">
        <ele>30</ele>
        <time>2011-01-26T08:53:31Z</time>
      </trkpt>
      <trkpt lat="44.13149" lon="1.41404">
        <ele>30</ele>
        <time>2011-01-26T08:53:32Z</time>
      </trkpt>
      <trkpt lat="44.13148" lon="1.41401">
        <ele>30</ele>
        <time>2011-01-26T08:53:33Z</time>
      </trkpt>
      <trkpt lat="44.13148" lon="1.41398">
        <ele>30</ele>
        <time>2011-01-26T08:53:33Z</time>
      </trkpt>
      <trkpt lat="44.13148" lon="1.41396">
        <ele>30</ele>
        <time>2011-01-26T08:53:34Z</time>
      </trkpt>
      <trkpt lat="44.13148" lon="1.41393">
        <ele>30</ele>
        <time>2011-01-26T08:53:35Z</time>
      </trkpt>
      <trkpt lat="44.13148" lon="1.4139">
        <ele>30</ele>
        <time>2011-01-26T08:53:36Z</time>
      </trkpt>
      <trkpt lat="44.13147" lon="1.41387">
        <ele>30</ele>
        <time>2011-01-26T08:53:37Z</time>
      </trkpt>
      <trkpt lat="44.13147" lon="1.41384">
        <ele>30</ele>
        <time>2011-01-26T08:53:37Z</time>
      </trkpt>
      <trkpt lat="44.13147" lon="1.41382">
        <ele>30</ele>
        <time>2011-01-26T08:53:38Z</time>
      </trkpt>
      <trkpt lat="44.13147" lon="1.41379">
        <ele>30</ele>
        <time>2011-01-26T08:53:39Z</time>
      </trkpt>
      <trkpt lat="44.13146" lon="1.41376">
        <ele>30</ele>
        <time>2011-01-26T08:53:40Z</time>
      </trkpt>
      <trkpt lat="44.13146" lon="1.41373">
        <ele>30</ele>
        <time>2011-01-26T08:53:41Z</time>
      </trkpt>
      <trkpt lat="44.13145" lon="1.4137">
        <ele>30</ele>
        <time>2011-01-26T08:53:42Z</time>
      </trkpt>
      <trkpt lat="44.13145" lon="1.41367">
        <ele>30</ele>
        <time>2011-01-26T08:53:43Z</time>
      </trkpt>
      <trkpt lat="44.13145" lon="1.41364">
        <ele>30</ele>
        <time>2011-01-26T08:53:43Z</time>
      </trkpt>
      <trkpt lat="44.13144" lon="1.41361">
        <ele>30</ele>
        <time>2011-01-26T08:53:44Z</time>
      </trkpt>
      <trkpt lat="44.13144" lon="1.41358">
        <ele>30</ele>
        <time>2011-01-26T08:53:45Z</time>
      </trkpt>
      <trkpt lat="44.13143" lon="1.41355">
        <ele>30</ele>
        <time>2011-01-26T08:53:46Z</time>
      </trkpt>
      <trkpt lat="44.13142" lon="1.41352">
        <ele>30</ele>
        <time>2011-01-26T08:53:47Z</time>
      </trkpt>
      <trkpt lat="44.13142" lon="1.41349">
        <ele>30</ele>
        <time>2011-01-26T08:53:48Z</time>
      </trkpt>
      <trkpt lat="44.13141" lon="1.41346">
        <ele>30</ele>
        <time>2011-01-26T08:53:49Z</time>
      </trkpt>
      <trkpt lat="44.13141" lon="1.41343">
        <ele>30</ele>
        <time>2011-01-26T08:53:50Z</time>
      </trkpt>
      <trkpt lat="44.1314" lon="1.4134">
        <ele>30</ele>
        <time>2011-01-26T08:53:51Z</time>
      </trkpt>
      <trkpt lat="44.13139" lon="1.41337">
        <ele>30</ele>
        <time>2011-01-26T08:53:52Z</time>
      </trkpt>
      <trkpt lat="44.13139" lon="1.41334">
        <ele>30</ele>
        <time>2011-01-26T08:53:53Z</time>
      </trkpt>
      <trkpt lat="44.13139" lon="1.4133">
        <ele>30</ele>
        <time>2011-01-26T08:53:53Z</time>
      </trkpt>
      <trkpt lat="44.13138" lon="1.41327">
        <ele>30</ele>
        <time>2011-01-26T08:53:54Z</time>
      </trkpt>
      <trkpt lat="44.13137" lon="1.41324">
        <ele>30</ele>
        <time>2011-01-26T08:53:55Z</time>
      </trkpt>
      <trkpt lat="44.13137" lon="1.41321">
        <ele>30</ele>
        <time>2011-01-26T08:53:56Z</time>
      </trkpt>
      <trkpt lat="44.13136" lon="1.41318">
        <ele>30</ele>
        <time>2011-01-26T08:53:57Z</time>
      </trkpt>
      <trkpt lat="44.13136" lon="1.41315">
        <ele>30</ele>
        <time>2011-01-26T08:53:58Z</time>
      </trkpt>
      <trkpt lat="44.13135" lon="1.41312">
        <ele>30</ele>
        <time>2011-01-26T08:53:59Z</time>
      </trkpt>
      <trkpt lat="44.13134" lon="1.41309">
        <ele>30</ele>
        <time>2011-01-26T08:54:00Z</time>
      </trkpt>
      <trkpt lat="44.13134" lon="1.41306">
        <ele>30</ele>
        <time>2011-01-26T08:54:01Z</time>
      </trkpt>
      <trkpt lat="44.13133" lon="1.41302">
        <ele>30</ele>
        <time>2011-01-26T08:54:02Z</time>
      </trkpt>
      <trkpt lat="44.13133" lon="1.41299">
        <ele>30</ele>
        <time>2011-01-26T08:54:03Z</time>
      </trkpt>
      <trkpt lat="44.13132" lon="1.41296">
        <ele>30</ele>
        <time>2011-01-26T08:54:04Z</time>
      </trkpt>
      <trkpt lat="44.13131" lon="1.41293">
        <ele>30</ele>
        <time>2011-01-26T08:54:05Z</time>
      </trkpt>
      <trkpt lat="44.13131" lon="1.41289">
        <ele>30</ele>
        <time>2011-01-26T08:54:06Z</time>
      </trkpt>
      <trkpt lat="44.1313" lon="1.41286">
        <ele>30</ele>
        <time>2011-01-26T08:54:07Z</time>
      </trkpt>
      <trkpt lat="44.1313" lon="1.41283">
        <ele>30</ele>
        <time>2011-01-26T08:54:08Z</time>
      </trkpt>
      <trkpt lat="44.13129" lon="1.4128">
        <ele>30</ele>
        <time>2011-01-26T08:54:09Z</time>
      </trkpt>
      <trkpt lat="44.13129" lon="1.41276">
        <ele>30</ele>
        <time>2011-01-26T08:54:10Z</time>
      </trkpt>
      <trkpt lat="44.13128" lon="1.41273">
        <ele>30</ele>
        <time>2011-01-26T08:54:11Z</time>
      </trkpt>
      <trkpt lat="44.13127" lon="1.4127">
        <ele>30</ele>
        <time>2011-01-26T08:54:12Z</time>
      </trkpt>
      <trkpt lat="44.13127" lon="1.41266">
        <ele>30</ele>
        <time>2011-01-26T08:54:13Z</time>
      </trkpt>
      <trkpt lat="44.13126" lon="1.41263">
        <ele>30</ele>
        <time>2011-01-26T08:54:14Z</time>
      </trkpt>
      <trkpt lat="44.13126" lon="1.4126">
        <ele>30</ele>
        <time>2011-01-26T08:54:15Z</time>
      </trkpt>
      <trkpt lat="44.13125" lon="1.41257">
        <ele>30</ele>
        <time>2011-01-26T08:54:15Z</time>
      </trkpt>
      <trkpt lat="44.13125" lon="1.41253">
        <ele>30</ele>
        <time>2011-01-26T08:54:16Z</time>
      </trkpt>
      <trkpt lat="44.13124" lon="1.4125">
        <ele>30</ele>
        <time>2011-01-26T08:54:17Z</time>
      </trkpt>
      <trkpt lat="44.13124" lon="1.41247">
        <ele>30</ele>
        <time>2011-01-26T08:54:18Z</time>
      </trkpt>
      <trkpt lat="44.13123" lon="1.41244">
        <ele>30</ele>
        <time>2011-01-26T08:54:19Z</time>
      </trkpt>
      <trkpt lat="44.13123" lon="1.4124">
        <ele>30</ele>
        <time>2011-01-26T08:54:20Z</time>
      </trkpt>
      <trkpt lat="44.13123" lon="1.41237">
        <ele>30</ele>
        <time>2011-01-26T08:54:21Z</time>
      </trkpt>
      <trkpt lat="44.13122" lon="1.41234">
        <ele>30</ele>
        <time>2011-01-26T08:54:22Z</time>
      </trkpt>
      <trkpt lat="44.13122" lon="1.41231">
        <ele>30</ele>
        <time>2011-01-26T08:54:23Z</time>
      </trkpt>
      <trkpt lat="44.13121" lon="1.41227">
        <ele>30</ele>
        <time>2011-01-26T08:54:24Z</time>
      </trkpt>
      <trkpt lat="44.13121" lon="1.41224">
        <ele>30</ele>
        <time>2011-01-26T08:54:25Z</time>
      </trkpt>
      <trkpt lat="44.13121" lon="1.41221">
        <ele>30</ele>
        <time>2011-01-26T08:54:26Z</time>
      </trkpt>
      <trkpt lat="44.13121" lon="1.41217">
        <ele>30</ele>
        <time>2011-01-26T08:54:27Z</time>
      </trkpt>
      <trkpt lat="44.1312" lon="1.41214">
        <ele>30</ele>
        <time>2011-01-26T08:54:28Z</time>
      </trkpt>
      <trkpt lat="44.1312" lon="1.41211">
        <ele>30</ele>
        <time>2011-01-26T08:54:29Z</time>
      </trkpt>
      <trkpt lat="44.1312" lon="1.41208">
        <ele>30</ele>
        <time>2011-01-26T08:54:30Z</time>
      </trkpt>
      <trkpt lat="44.13119" lon="1.41204">
        <ele>30</ele>
        <time>2011-01-26T08:54:31Z</time>
      </trkpt>
      <trkpt lat="44.13119" lon="1.41201">
        <ele>30</ele>
        <time>2011-01-26T08:54:32Z</time>
      </trkpt>
      <trkpt lat="44.13119" lon="1.41197">
        <ele>30</ele>
        <time>2011-01-26T08:54:33Z</time>
      </trkpt>
      <trkpt lat="44.13119" lon="1.41194">
        <ele>30</ele>
        <time>2011-01-26T08:54:34Z</time>
      </trkpt>
      <trkpt lat="44.13119" lon="1.4119">
        <ele>30</ele>
        <time>2011-01-26T08:54:35Z</time>
      </trkpt>
      <trkpt lat="44.13119" lon="1.41187">
        <ele>30</ele>
        <time>2011-01-26T08:54:36Z</time>
      </trkpt>
      <trkpt lat="44.13119" lon="1.41184">
        <ele>30</ele>
        <time>2011-01-26T08:54:37Z</time>
      </trkpt>
      <trkpt lat="44.13119" lon="1.4118">
        <ele>30</ele>
        <time>2011-01-26T08:54:38Z</time>
      </trkpt>
      <trkpt lat="44.13119" lon="1.41176">
        <ele>30</ele>
        <time>2011-01-26T08:54:39Z</time>
      </trkpt>
      <trkpt lat="44.13119" lon="1.41173">
        <ele>30</ele>
        <time>2011-01-26T08:54:40Z</time>
      </trkpt>
      <trkpt lat="44.13118" lon="1.41169">
        <ele>30</ele>
        <time>2011-01-26T08:54:41Z</time>
      </trkpt>
      <trkpt lat="44.13119" lon="1.41166">
        <ele>30</ele>
        <time>2011-01-26T08:54:42Z</time>
      </trkpt>
      <trkpt lat="44.13119" lon="1.41163">
        <ele>30</ele>
        <time>2011-01-26T08:54:43Z</time>
      </trkpt>
      <trkpt lat="44.1312" lon="1.4116">
        <ele>30</ele>
        <time>2011-01-26T08:54:43Z</time>
      </trkpt>
      <trkpt lat="44.1312" lon="1.41157">
        <ele>30</ele>
        <time>2011-01-26T08:54:44Z</time>
      </trkpt>
      <trkpt lat="44.13119" lon="1.41154">
        <ele>30</ele>
        <time>2011-01-26T08:54:45Z</time>
      </trkpt>
      <trkpt lat="44.13119" lon="1.4115">
        <ele>30</ele>
        <time>2011-01-26T08:54:46Z</time>
      </trkpt>
      <trkpt lat="44.13119" lon="1.41147">
        <ele>30</ele>
        <time>2011-01-26T08:54:47Z</time>
      </trkpt>
      <trkpt lat="44.1312" lon="1.41144">
        <ele>30</ele>
        <time>2011-01-26T08:54:48Z</time>
      </trkpt>
      <trkpt lat="44.1312" lon="1.41141">
        <ele>30</ele>
        <time>2011-01-26T08:54:49Z</time>
      </trkpt>
      <trkpt lat="44.13121" lon="1.41138">
        <ele>30</ele>
        <time>2011-01-26T08:54:50Z</time>
      </trkpt>
      <trkpt lat="44.13121" lon="1.41135">
        <ele>30</ele>
        <time>2011-01-26T08:54:51Z</time>
      </trkpt>
      <trkpt lat="44.13122" lon="1.41132">
        <ele>30</ele>
        <time>2011-01-26T08:54:52Z</time>
      </trkpt>
      <trkpt lat="44.13123" lon="1.41129">
        <ele>30</ele>
        <time>2011-01-26T08:54:53Z</time>
      </trkpt>
      <trkpt lat="44.13123" lon="1.41126">
        <ele>30</ele>
        <time>2011-01-26T08:54:54Z</time>
      </trkpt>
      <trkpt lat="44.13123" lon="1.41123">
        <ele>30</ele>
        <time>2011-01-26T08:54:55Z</time>
      </trkpt>
      <trkpt lat="44.13123" lon="1.4112">
        <ele>30</ele>
        <time>2011-01-26T08:54:55Z</time>
      </trkpt>
      <trkpt lat="44.13124" lon="1.41116">
        <ele>30</ele>
        <time>2011-01-26T08:54:56Z</time>
      </trkpt>
      <trkpt lat="44.13124" lon="1.41113">
        <ele>30</ele>
        <time>2011-01-26T08:54:57Z</time>
      </trkpt>
      <trkpt lat="44.13124" lon="1.4111">
        <ele>30</ele>
        <time>2011-01-26T08:54:58Z</time>
      </trkpt>
      <trkpt lat="44.13125" lon="1.41107">
        <ele>30</ele>
        <time>2011-01-26T08:54:59Z</time>
      </trkpt>
      <trkpt lat="44.13125" lon="1.41104">
        <ele>30</ele>
        <time>2011-01-26T08:55:00Z</time>
      </trkpt>
      <trkpt lat="44.13125" lon="1.41101">
        <ele>30</ele>
        <time>2011-01-26T08:55:01Z</time>
      </trkpt>
      <trkpt lat="44.13125" lon="1.41097">
        <ele>30</ele>
        <time>2011-01-26T08:55:02Z</time>
      </trkpt>
      <trkpt lat="44.13125" lon="1.41094">
        <ele>30</ele>
        <time>2011-01-26T08:55:03Z</time>
      </trkpt>
      <trkpt lat="44.13125" lon="1.41091">
        <ele>30</ele>
        <time>2011-01-26T08:55:04Z</time>
      </trkpt>
      <trkpt lat="44.13125" lon="1.41088">
        <ele>30</ele>
        <time>2011-01-26T08:55:05Z</time>
      </trkpt>
      <trkpt lat="44.13125" lon="1.41085">
        <ele>30</ele>
        <time>2011-01-26T08:55:06Z</time>
      </trkpt>
      <trkpt lat="44.13126" lon="1.41081">
        <ele>30</ele>
        <time>2011-01-26T08:55:06Z</time>
      </trkpt>
      <trkpt lat="44.13126" lon="1.41078">
        <ele>30</ele>
        <time>2011-01-26T08:55:07Z</time>
      </trkpt>
      <trkpt lat="44.13126" lon="1.41075">
        <ele>30</ele>
        <time>2011-01-26T08:55:08Z</time>
      </trkpt>
      <trkpt lat="44.13126" lon="1.41072">
        <ele>30</ele>
        <time>2011-01-26T08:55:09Z</time>
      </trkpt>
      <trkpt lat="44.13126" lon="1.41069">
        <ele>30</ele>
        <time>2011-01-26T08:55:10Z</time>
      </trkpt>
      <trkpt lat="44.13126" lon="1.41066">
        <ele>30</ele>
        <time>2011-01-26T08:55:11Z</time>
      </trkpt>
      <trkpt lat="44.13126" lon="1.41062">
        <ele>30</ele>
        <time>2011-01-26T08:55:12Z</time>
      </trkpt>
      <trkpt lat="44.13126" lon="1.41059">
        <ele>30</ele>
        <time>2011-01-26T08:55:13Z</time>
      </trkpt>
      <trkpt lat="44.13126" lon="1.41056">
        <ele>30</ele>
        <time>2011-01-26T08:55:14Z</time>
      </trkpt>
      <trkpt lat="44.13126" lon="1.41053">
        <ele>30</ele>
        <time>2011-01-26T08:55:15Z</time>
      </trkpt>
      <trkpt lat="44.13126" lon="1.4105">
        <ele>30</ele>
        <time>2011-01-26T08:55:16Z</time>
      </trkpt>
      <trkpt lat="44.13126" lon="1.41046">
        <ele>30</ele>
        <time>2011-01-26T08:55:17Z</time>
      </trkpt>
      <trkpt lat="44.13126" lon="1.41043">
        <ele>30</ele>
        <time>2011-01-26T08:55:17Z</time>
      </trkpt>
      <trkpt lat="44.13126" lon="1.4104">
        <ele>30</ele>
        <time>2011-01-26T08:55:18Z</time>
      </trkpt>
      <trkpt lat="44.13126" lon="1.41037">
        <ele>30</ele>
        <time>2011-01-26T08:55:19Z</time>
      </trkpt>
      <trkpt lat="44.13126" lon="1.41034">
        <ele>30</ele>
        <time>2011-01-26T08:55:20Z</time>
      </trkpt>
      <trkpt lat="44.13126" lon="1.41031">
        <ele>30</ele>
        <time>2011-01-26T08:55:21Z</time>
      </trkpt>
      <trkpt lat="44.13126" lon="1.41028">
        <ele>30</ele>
        <time>2011-01-26T08:55:22Z</time>
      </trkpt>
      <trkpt lat="44.13126" lon="1.41025">
        <ele>30</ele>
        <time>2011-01-26T08:55:23Z</time>
      </trkpt>
      <trkpt lat="44.13126" lon="1.41022">
        <ele>30</ele>
        <time>2011-01-26T08:55:24Z</time>
      </trkpt>
      <trkpt lat="44.13125" lon="1.41018">
        <ele>30</ele>
        <time>2011-01-26T08:55:25Z</time>
      </trkpt>
      <trkpt lat="44.13125" lon="1.41015">
        <ele>30</ele>
        <time>2011-01-26T08:55:26Z</time>
      </trkpt>
      <trkpt lat="44.13125" lon="1.41012">
        <ele>30</ele>
        <time>2011-01-26T08:55:27Z</time>
      </trkpt>
      <trkpt lat="44.13125" lon="1.41009">
        <ele>30</ele>
        <time>2011-01-26T08:55:27Z</time>
      </trkpt>
      <trkpt lat="44.13125" lon="1.41006">
        <ele>30</ele>
        <time>2011-01-26T08:55:28Z</time>
      </trkpt>
      <trkpt lat="44.13125" lon="1.41003">
        <ele>30</ele>
        <time>2011-01-26T08:55:29Z</time>
      </trkpt>
      <trkpt lat="44.13124" lon="1.41">
        <ele>30</ele>
        <time>2011-01-26T08:55:30Z</time>
      </trkpt>
      <trkpt lat="44.13124" lon="1.40996">
        <ele>30</ele>
        <time>2011-01-26T08:55:31Z</time>
      </trkpt>
      <trkpt lat="44.13124" lon="1.40993">
        <ele>30</ele>
        <time>2011-01-26T08:55:32Z</time>
      </trkpt>
      <trkpt lat="44.13125" lon="1.4099">
        <ele>30</ele>
        <time>2011-01-26T08:55:33Z</time>
      </trkpt>
      <trkpt lat="44.13126" lon="1.40987">
        <ele>30</ele>
        <time>2011-01-26T08:55:34Z</time>
      </trkpt>
      <trkpt lat="44.13127" lon="1.40984">
        <ele>30</ele>
        <time>2011-01-26T08:55:35Z</time>
      </trkpt>
      <trkpt lat="44.13129" lon="1.40982">
        <ele>30</ele>
        <time>2011-01-26T08:55:36Z</time>
      </trkpt>
      <trkpt lat="44.13131" lon="1.4098">
        <ele>30</ele>
        <time>2011-01-26T08:55:37Z</time>
      </trkpt>
      <trkpt lat="44.13132" lon="1.40979">
        <ele>30</ele>
        <time>2011-01-26T08:55:37Z</time>
      </trkpt>
      <trkpt lat="44.13133" lon="1.40978">
        <ele>30</ele>
        <time>2011-01-26T08:55:38Z</time>
      </trkpt>
      <trkpt lat="44.13134" lon="1.40978">
        <ele>30</ele>
        <time>2011-01-26T08:55:38Z</time>
      </trkpt>
      <trkpt lat="44.13136" lon="1.40977">
        <ele>30</ele>
        <time>2011-01-26T08:55:39Z</time>
      </trkpt>
      <trkpt lat="44.13136" lon="1.40978">
        <ele>30</ele>
        <time>2011-01-26T08:55:40Z</time>
      </trkpt>
      <trkpt lat="44.13137" lon="1.4098">
        <ele>30</ele>
        <time>2011-01-26T08:55:40Z</time>
      </trkpt>
      <trkpt lat="44.13136" lon="1.40979">
        <ele>30</ele>
        <time>2011-01-26T08:55:41Z</time>
      </trkpt>
      <trkpt lat="44.13137" lon="1.40977">
        <ele>30</ele>
        <time>2011-01-26T08:55:41Z</time>
      </trkpt>
      <trkpt lat="44.13139" lon="1.40977">
        <ele>30</ele>
        <time>2011-01-26T08:55:42Z</time>
      </trkpt>
      <trkpt lat="44.1314" lon="1.40977">
        <ele>30</ele>
        <time>2011-01-26T08:55:43Z</time>
      </trkpt>
      <trkpt lat="44.13142" lon="1.40976">
        <ele>30</ele>
        <time>2011-01-26T08:55:43Z</time>
      </trkpt>
      <trkpt lat="44.13143" lon="1.40976">
        <ele>30</ele>
        <time>2011-01-26T08:55:44Z</time>
      </trkpt>
      <trkpt lat="44.13144" lon="1.40976">
        <ele>30</ele>
        <time>2011-01-26T08:55:44Z</time>
      </trkpt>
      <trkpt lat="44.13146" lon="1.40976">
        <ele>30</ele>
        <time>2011-01-26T08:55:45Z</time>
      </trkpt>
      <trkpt lat="44.13147" lon="1.40976">
        <ele>30</ele>
        <time>2011-01-26T08:55:45Z</time>
      </trkpt>
      <trkpt lat="44.13149" lon="1.40976">
        <ele>30</ele>
        <time>2011-01-26T08:55:46Z</time>
      </trkpt>
      <trkpt lat="44.1315" lon="1.40976">
        <ele>30</ele>
        <time>2011-01-26T08:55:46Z</time>
      </trkpt>
      <trkpt lat="44.13151" lon="1.40976">
        <ele>30</ele>
        <time>2011-01-26T08:55:47Z</time>
      </trkpt>
      <trkpt lat="44.13153" lon="1.40976">
        <ele>30</ele>
        <time>2011-01-26T08:55:47Z</time>
      </trkpt>
      <trkpt lat="44.13154" lon="1.40976">
        <ele>30</ele>
        <time>2011-01-26T08:55:48Z</time>
      </trkpt>
      <trkpt lat="44.13156" lon="1.40976">
        <ele>30</ele>
        <time>2011-01-26T08:55:49Z</time>
      </trkpt>
      <trkpt lat="44.13158" lon="1.40976">
        <ele>30</ele>
        <time>2011-01-26T08:55:49Z</time>
      </trkpt>
      <trkpt lat="44.1316" lon="1.40976">
        <ele>30</ele>
        <time>2011-01-26T08:55:50Z</time>
      </trkpt>
      <trkpt lat="44.13162" lon="1.40977">
        <ele>30</ele>
        <time>2011-01-26T08:55:51Z</time>
      </trkpt>
      <trkpt lat="44.13164" lon="1.40977">
        <ele>30</ele>
        <time>2011-01-26T08:55:52Z</time>
      </trkpt>
      <trkpt lat="44.13166" lon="1.40977">
        <ele>30</ele>
        <time>2011-01-26T08:55:53Z</time>
      </trkpt>
      <trkpt lat="44.13168" lon="1.40977">
        <ele>30</ele>
        <time>2011-01-26T08:55:54Z</time>
      </trkpt>
      <trkpt lat="44.13171" lon="1.40977">
        <ele>30</ele>
        <time>2011-01-26T08:55:55Z</time>
      </trkpt>
      <trkpt lat="44.13173" lon="1.40976">
        <ele>30</ele>
        <time>2011-01-26T08:55:55Z</time>
      </trkpt>
      <trkpt lat="44.13174" lon="1.40976">
        <ele>30</ele>
        <time>2011-01-26T08:55:56Z</time>
      </trkpt>
      <trkpt lat="44.13176" lon="1.40975">
        <ele>30</ele>
        <time>2011-01-26T08:55:57Z</time>
      </trkpt>
      <trkpt lat="44.13177" lon="1.40974">
        <ele>30</ele>
        <time>2011-01-26T08:55:58Z</time>
      </trkpt>
      <trkpt lat="44.13179" lon="1.40973">
        <ele>30</ele>
        <time>2011-01-26T08:55:58Z</time>
      </trkpt>
      <trkpt lat="44.1318" lon="1.40972">
        <ele>30</ele>
        <time>2011-01-26T08:55:59Z</time>
      </trkpt>
      <trkpt lat="44.13182" lon="1.40971">
        <ele>30</ele>
        <time>2011-01-26T08:55:59Z</time>
      </trkpt>
      <trkpt lat="44.13183" lon="1.4097">
        <ele>30</ele>
        <time>2011-01-26T08:56:00Z</time>
      </trkpt>
      <trkpt lat="44.13184" lon="1.40967">
        <ele>30</ele>
        <time>2011-01-26T08:56:01Z</time>
      </trkpt>
      <trkpt lat="44.13186" lon="1.40966">
        <ele>30</ele>
        <time>2011-01-26T08:56:02Z</time>
      </trkpt>
      <trkpt lat="44.13187" lon="1.40964">
        <ele>30</ele>
        <time>2011-01-26T08:56:03Z</time>
      </trkpt>
      <trkpt lat="44.13189" lon="1.40963">
        <ele>30</ele>
        <time>2011-01-26T08:56:03Z</time>
      </trkpt>
      <trkpt lat="44.1319" lon="1.40962">
        <ele>30</ele>
        <time>2011-01-26T08:56:04Z</time>
      </trkpt>
      <trkpt lat="44.13192" lon="1.4096">
        <ele>30</ele>
        <time>2011-01-26T08:56:05Z</time>
      </trkpt>
      <trkpt lat="44.13194" lon="1.40958">
        <ele>30</ele>
        <time>2011-01-26T08:56:05Z</time>
      </trkpt>
      <trkpt lat="44.13195" lon="1.40956">
        <ele>30</ele>
        <time>2011-01-26T08:56:06Z</time>
      </trkpt>
      <trkpt lat="44.13196" lon="1.40955">
        <ele>30</ele>
        <time>2011-01-26T08:56:07Z</time>
      </trkpt>
      <trkpt lat="44.13198" lon="1.40953">
        <ele>30</ele>
        <time>2011-01-26T08:56:08Z</time>
      </trkpt>
      <trkpt lat="44.132" lon="1.40951">
        <ele>30</ele>
        <time>2011-01-26T08:56:09Z</time>
      </trkpt>
      <trkpt lat="44.13202" lon="1.4095">
        <ele>30</ele>
        <time>2011-01-26T08:56:10Z</time>
      </trkpt>
      <trkpt lat="44.13203" lon="1.40948">
        <ele>30</ele>
        <time>2011-01-26T08:56:11Z</time>
      </trkpt>
      <trkpt lat="44.13205" lon="1.40946">
        <ele>30</ele>
        <time>2011-01-26T08:56:11Z</time>
      </trkpt>
      <trkpt lat="44.13206" lon="1.40944">
        <ele>30</ele>
        <time>2011-01-26T08:56:12Z</time>
      </trkpt>
      <trkpt lat="44.13208" lon="1.40943">
        <ele>30</ele>
        <time>2011-01-26T08:56:13Z</time>
      </trkpt>
      <trkpt lat="44.1321" lon="1.40942">
        <ele>30</ele>
        <time>2011-01-26T08:56:14Z</time>
      </trkpt>
      <trkpt lat="44.13212" lon="1.4094">
        <ele>30</ele>
        <time>2011-01-26T08:56:15Z</time>
      </trkpt>
      <trkpt lat="44.13214" lon="1.40938">
        <ele>30</ele>
        <time>2011-01-26T08:56:16Z</time>
      </trkpt>
      <trkpt lat="44.13216" lon="1.40936">
        <ele>30</ele>
        <time>2011-01-26T08:56:17Z</time>
      </trkpt>
      <trkpt lat="44.13218" lon="1.40934">
        <ele>30</ele>
        <time>2011-01-26T08:56:18Z</time>
      </trkpt>
      <trkpt lat="44.13221" lon="1.40934">
        <ele>30</ele>
        <time>2011-01-26T08:56:19Z</time>
      </trkpt>
      <trkpt lat="44.13224" lon="1.40933">
        <ele>30</ele>
        <time>2011-01-26T08:56:20Z</time>
      </trkpt>
      <trkpt lat="44.13227" lon="1.40932">
        <ele>30</ele>
        <time>2011-01-26T08:56:21Z</time>
      </trkpt>
      <trkpt lat="44.13229" lon="1.40932">
        <ele>30</ele>
        <time>2011-01-26T08:56:22Z</time>
      </trkpt>
      <trkpt lat="44.13232" lon="1.40931">
        <ele>30</ele>
        <time>2011-01-26T08:56:23Z</time>
      </trkpt>
      <trkpt lat="44.13235" lon="1.40931">
        <ele>30</ele>
        <time>2011-01-26T08:56:25Z</time>
      </trkpt>
      <trkpt lat="44.13238" lon="1.40931">
        <ele>30</ele>
        <time>2011-01-26T08:56:26Z</time>
      </trkpt>
      <trkpt lat="44.13241" lon="1.40931">
        <ele>30</ele>
        <time>2011-01-26T08:56:27Z</time>
      </trkpt>
      <trkpt lat="44.13244" lon="1.40931">
        <ele>30</ele>
        <time>2011-01-26T08:56:28Z</time>
      </trkpt>
      <trkpt lat="44.13247" lon="1.40931">
        <ele>30</ele>
        <time>2011-01-26T08:56:29Z</time>
      </trkpt>
      <trkpt lat="44.1325" lon="1.4093">
        <ele>30</ele>
        <time>2011-01-26T08:56:30Z</time>
      </trkpt>
      <trkpt lat="44.13253" lon="1.4093">
        <ele>30</ele>
        <time>2011-01-26T08:56:31Z</time>
      </trkpt>
      <trkpt lat="44.13256" lon="1.4093">
        <ele>30</ele>
        <time>2011-01-26T08:56:33Z</time>
      </trkpt>
      <trkpt lat="44.13259" lon="1.4093">
        <ele>30</ele>
        <time>2011-01-26T08:56:34Z</time>
      </trkpt>
      <trkpt lat="44.13261" lon="1.4093">
        <ele>30</ele>
        <time>2011-01-26T08:56:35Z</time>
      </trkpt>
      <trkpt lat="44.13264" lon="1.4093">
        <ele>30</ele>
        <time>2011-01-26T08:56:36Z</time>
      </trkpt>
      <trkpt lat="44.13266" lon="1.4093">
        <ele>30</ele>
        <time>2011-01-26T08:56:37Z</time>
      </trkpt>
      <trkpt lat="44.13269" lon="1.4093">
        <ele>30</ele>
        <time>2011-01-26T08:56:38Z</time>
      </trkpt>
      <trkpt lat="44.13272" lon="1.40929">
        <ele>30</ele>
        <time>2011-01-26T08:56:39Z</time>
      </trkpt>
      <trkpt lat="44.13274" lon="1.40929">
        <ele>30</ele>
        <time>2011-01-26T08:56:40Z</time>
      </trkpt>
      <trkpt lat="44.13277" lon="1.40929">
        <ele>30</ele>
        <time>2011-01-26T08:56:41Z</time>
      </trkpt>
      <trkpt lat="44.1328" lon="1.40929">
        <ele>30</ele>
        <time>2011-01-26T08:56:42Z</time>
      </trkpt>
      <trkpt lat="44.13282" lon="1.40929">
        <ele>30</ele>
        <time>2011-01-26T08:56:43Z</time>
      </trkpt>
      <trkpt lat="44.13285" lon="1.4093">
        <ele>30</ele>
        <time>2011-01-26T08:56:44Z</time>
      </trkpt>
      <trkpt lat="44.13288" lon="1.4093">
        <ele>30</ele>
        <time>2011-01-26T08:56:46Z</time>
      </trkpt>
      <trkpt lat="44.1329" lon="1.4093">
        <ele>30</ele>
        <time>2011-01-26T08:56:47Z</time>
      </trkpt>
      <trkpt lat="44.13293" lon="1.40931">
        <ele>30</ele>
        <time>2011-01-26T08:56:48Z</time>
      </trkpt>
      <trkpt lat="44.13296" lon="1.40932">
        <ele>30</ele>
        <time>2011-01-26T08:56:49Z</time>
      </trkpt>
      <trkpt lat="44.13298" lon="1.40933">
        <ele>30</ele>
        <time>2011-01-26T08:56:50Z</time>
      </trkpt>
      <trkpt lat="44.13301" lon="1.40934">
        <ele>30</ele>
        <time>2011-01-26T08:56:51Z</time>
      </trkpt>
      <trkpt lat="44.13303" lon="1.40937">
        <ele>30</ele>
        <time>2011-01-26T08:56:52Z</time>
      </trkpt>
      <trkpt lat="44.13305" lon="1.40939">
        <ele>30</ele>
        <time>2011-01-26T08:56:53Z</time>
      </trkpt>
      <trkpt lat="44.13306" lon="1.40942">
        <ele>30</ele>
        <time>2011-01-26T08:56:54Z</time>
      </trkpt>
      <trkpt lat="44.13308" lon="1.40945">
        <ele>30</ele>
        <time>2011-01-26T08:56:55Z</time>
      </trkpt>
      <trkpt lat="44.13309" lon="1.40947">
        <ele>30</ele>
        <time>2011-01-26T08:56:56Z</time>
      </trkpt>
      <trkpt lat="44.13312" lon="1.4095">
        <ele>30</ele>
        <time>2011-01-26T08:56:57Z</time>
      </trkpt>
      <trkpt lat="44.13314" lon="1.40952">
        <ele>30</ele>
        <time>2011-01-26T08:56:58Z</time>
      </trkpt>
      <trkpt lat="44.13316" lon="1.40955">
        <ele>30</ele>
        <time>2011-01-26T08:57:00Z</time>
      </trkpt>
      <trkpt lat="44.13318" lon="1.40958">
        <ele>30</ele>
        <time>2011-01-26T08:57:01Z</time>
      </trkpt>
      <trkpt lat="44.1332" lon="1.4096">
        <ele>30</ele>
        <time>2011-01-26T08:57:02Z</time>
      </trkpt>
      <trkpt lat="44.13322" lon="1.40962">
        <ele>30</ele>
        <time>2011-01-26T08:57:03Z</time>
      </trkpt>
      <trkpt lat="44.13324" lon="1.40965">
        <ele>30</ele>
        <time>2011-01-26T08:57:04Z</time>
      </trkpt>
      <trkpt lat="44.13326" lon="1.40967">
        <ele>30</ele>
        <time>2011-01-26T08:57:05Z</time>
      </trkpt>
      <trkpt lat="44.13328" lon="1.40969">
        <ele>30</ele>
        <time>2011-01-26T08:57:06Z</time>
      </trkpt>
      <trkpt lat="44.1333" lon="1.40972">
        <ele>30</ele>
        <time>2011-01-26T08:57:07Z</time>
      </trkpt>
      <trkpt lat="44.13332" lon="1.40974">
        <ele>30</ele>
        <time>2011-01-26T08:57:08Z</time>
      </trkpt>
      <trkpt lat="44.13335" lon="1.40976">
        <ele>30</ele>
        <time>2011-01-26T08:57:09Z</time>
      </trkpt>
      <trkpt lat="44.13337" lon="1.40977">
        <ele>30</ele>
        <time>2011-01-26T08:57:10Z</time>
      </trkpt>
      <trkpt lat="44.13339" lon="1.40979">
        <ele>30</ele>
        <time>2011-01-26T08:57:11Z</time>
      </trkpt>
      <trkpt lat="44.13341" lon="1.40982">
        <ele>30</ele>
        <time>2011-01-26T08:57:12Z</time>
      </trkpt>
      <trkpt lat="44.13343" lon="1.40984">
        <ele>30</ele>
        <time>2011-01-26T08:57:13Z</time>
      </trkpt>
      <trkpt lat="44.13345" lon="1.40986">
        <ele>30</ele>
        <time>2011-01-26T08:57:14Z</time>
      </trkpt>
      <trkpt lat="44.13346" lon="1.40988">
        <ele>30</ele>
        <time>2011-01-26T08:57:15Z</time>
      </trkpt>
      <trkpt lat="44.13348" lon="1.4099">
        <ele>30</ele>
        <time>2011-01-26T08:57:16Z</time>
      </trkpt>
      <trkpt lat="44.1335" lon="1.40992">
        <ele>30</ele>
        <time>2011-01-26T08:57:17Z</time>
      </trkpt>
      <trkpt lat="44.13352" lon="1.40994">
        <ele>30</ele>
        <time>2011-01-26T08:57:18Z</time>
      </trkpt>
      <trkpt lat="44.13354" lon="1.40996">
        <ele>30</ele>
        <time>2011-01-26T08:57:19Z</time>
      </trkpt>
      <trkpt lat="44.13356" lon="1.40998">
        <ele>30</ele>
        <time>2011-01-26T08:57:20Z</time>
      </trkpt>
      <trkpt lat="44.13357" lon="1.41">
        <ele>30</ele>
        <time>2011-01-26T08:57:21Z</time>
      </trkpt>
      <trkpt lat="44.13359" lon="1.41002">
        <ele>30</ele>
        <time>2011-01-26T08:57:21Z</time>
      </trkpt>
      <trkpt lat="44.1336" lon="1.41004">
        <ele>30</ele>
        <time>2011-01-26T08:57:22Z</time>
      </trkpt>
      <trkpt lat="44.13361" lon="1.41006">
        <ele>30</ele>
        <time>2011-01-26T08:57:23Z</time>
      </trkpt>
      <trkpt lat="44.13361" lon="1.41008">
        <ele>30</ele>
        <time>2011-01-26T08:57:24Z</time>
      </trkpt>
      <trkpt lat="44.13363" lon="1.4101">
        <ele>30</ele>
        <time>2011-01-26T08:57:24Z</time>
      </trkpt>
      <trkpt lat="44.13364" lon="1.41012">
        <ele>30</ele>
        <time>2011-01-26T08:57:25Z</time>
      </trkpt>
      <trkpt lat="44.13366" lon="1.41015">
        <ele>30</ele>
        <time>2011-01-26T08:57:26Z</time>
      </trkpt>
      <trkpt lat="44.13366" lon="1.41017">
        <ele>30</ele>
        <time>2011-01-26T08:57:27Z</time>
      </trkpt>
      <trkpt lat="44.13366" lon="1.4102">
        <ele>30</ele>
        <time>2011-01-26T08:57:28Z</time>
      </trkpt>
      <trkpt lat="44.13366" lon="1.41022">
        <ele>30</ele>
        <time>2011-01-26T08:57:28Z</time>
      </trkpt>
      <trkpt lat="44.13366" lon="1.41024">
        <ele>30</ele>
        <time>2011-01-26T08:57:29Z</time>
      </trkpt>
      <trkpt lat="44.13366" lon="1.41027">
        <ele>30</ele>
        <time>2011-01-26T08:57:30Z</time>
      </trkpt>
      <trkpt lat="44.13366" lon="1.41029">
        <ele>30</ele>
        <time>2011-01-26T08:57:30Z</time>
      </trkpt>
      <trkpt lat="44.13366" lon="1.41032">
        <ele>30</ele>
        <time>2011-01-26T08:57:31Z</time>
      </trkpt>
      <trkpt lat="44.13366" lon="1.41035">
        <ele>30</ele>
        <time>2011-01-26T08:57:32Z</time>
      </trkpt>
      <trkpt lat="44.13365" lon="1.41038">
        <ele>30</ele>
        <time>2011-01-26T08:57:33Z</time>
      </trkpt>
      <trkpt lat="44.13365" lon="1.41041">
        <ele>30</ele>
        <time>2011-01-26T08:57:34Z</time>
      </trkpt>
      <trkpt lat="44.13364" lon="1.41044">
        <ele>30</ele>
        <time>2011-01-26T08:57:35Z</time>
      </trkpt>
      <trkpt lat="44.13364" lon="1.41047">
        <ele>30</ele>
        <time>2011-01-26T08:57:36Z</time>
      </trkpt>
      <trkpt lat="44.13364" lon="1.4105">
        <ele>30</ele>
        <time>2011-01-26T08:57:36Z</time>
      </trkpt>
      <trkpt lat="44.13364" lon="1.41053">
        <ele>30</ele>
        <time>2011-01-26T08:57:37Z</time>
      </trkpt>
      <trkpt lat="44.13364" lon="1.41056">
        <ele>30</ele>
        <time>2011-01-26T08:57:38Z</time>
      </trkpt>
      <trkpt lat="44.13363" lon="1.41059">
        <ele>30</ele>
        <time>2011-01-26T08:57:39Z</time>
      </trkpt>
      <trkpt lat="44.13363" lon="1.41062">
        <ele>30</ele>
        <time>2011-01-26T08:57:40Z</time>
      </trkpt>
      <trkpt lat="44.13363" lon="1.41066">
        <ele>30</ele>
        <time>2011-01-26T08:57:41Z</time>
      </trkpt>
      <trkpt lat="44.13363" lon="1.41069">
        <ele>30</ele>
        <time>2011-01-26T08:57:42Z</time>
      </trkpt>
      <trkpt lat="44.13363" lon="1.41073">
        <ele>30</ele>
        <time>2011-01-26T08:57:43Z</time>
      </trkpt>
      <trkpt lat="44.13363" lon="1.41077">
        <ele>30</ele>
        <time>2011-01-26T08:57:44Z</time>
      </trkpt>
      <trkpt lat="44.13363" lon="1.4108">
        <ele>30</ele>
        <time>2011-01-26T08:57:45Z</time>
      </trkpt>
      <trkpt lat="44.13364" lon="1.41083">
        <ele>30</ele>
        <time>2011-01-26T08:57:46Z</time>
      </trkpt>
      <trkpt lat="44.13364" lon="1.41087">
        <ele>30</ele>
        <time>2011-01-26T08:57:47Z</time>
      </trkpt>
      <trkpt lat="44.13364" lon="1.4109">
        <ele>30</ele>
        <time>2011-01-26T08:57:48Z</time>
      </trkpt>
      <trkpt lat="44.13365" lon="1.41093">
        <ele>30</ele>
        <time>2011-01-26T08:57:49Z</time>
      </trkpt>
      <trkpt lat="44.13365" lon="1.41097">
        <ele>30</ele>
        <time>2011-01-26T08:57:50Z</time>
      </trkpt>
      <trkpt lat="44.13366" lon="1.411">
        <ele>30</ele>
        <time>2011-01-26T08:57:51Z</time>
      </trkpt>
      <trkpt lat="44.13366" lon="1.41103">
        <ele>30</ele>
        <time>2011-01-26T08:57:52Z</time>
      </trkpt>
      <trkpt lat="44.13366" lon="1.41107">
        <ele>30</ele>
        <time>2011-01-26T08:57:53Z</time>
      </trkpt>
      <trkpt lat="44.13366" lon="1.4111">
        <ele>30</ele>
        <time>2011-01-26T08:57:54Z</time>
      </trkpt>
      <trkpt lat="44.13366" lon="1.41114">
        <ele>30</ele>
        <time>2011-01-26T08:57:55Z</time>
      </trkpt>
      <trkpt lat="44.13366" lon="1.41117">
        <ele>30</ele>
        <time>2011-01-26T08:57:56Z</time>
      </trkpt>
      <trkpt lat="44.13366" lon="1.4112">
        <ele>30</ele>
        <time>2011-01-26T08:57:57Z</time>
      </trkpt>
      <trkpt lat="44.13366" lon="1.41124">
        <ele>30</ele>
        <time>2011-01-26T08:57:58Z</time>
      </trkpt>
      <trkpt lat="44.13367" lon="1.41127">
        <ele>30</ele>
        <time>2011-01-26T08:57:59Z</time>
      </trkpt>
      <trkpt lat="44.13368" lon="1.4113">
        <ele>30</ele>
        <time>2011-01-26T08:58:00Z</time>
      </trkpt>
      <trkpt lat="44.13368" lon="1.41133">
        <ele>30</ele>
        <time>2011-01-26T08:58:01Z</time>
      </trkpt>
      <trkpt lat="44.13368" lon="1.41136">
        <ele>30</ele>
        <time>2011-01-26T08:58:02Z</time>
      </trkpt>
      <trkpt lat="44.13368" lon="1.4114">
        <ele>30</ele>
        <time>2011-01-26T08:58:02Z</time>
      </trkpt>
      <trkpt lat="44.13368" lon="1.41143">
        <ele>30</ele>
        <time>2011-01-26T08:58:03Z</time>
      </trkpt>
      <trkpt lat="44.13368" lon="1.41146">
        <ele>30</ele>
        <time>2011-01-26T08:58:04Z</time>
      </trkpt>
      <trkpt lat="44.13368" lon="1.4115">
        <ele>30</ele>
        <time>2011-01-26T08:58:05Z</time>
      </trkpt>
      <trkpt lat="44.13368" lon="1.41153">
        <ele>30</ele>
        <time>2011-01-26T08:58:06Z</time>
      </trkpt>
      <trkpt lat="44.13368" lon="1.41157">
        <ele>30</ele>
        <time>2011-01-26T08:58:07Z</time>
      </trkpt>
      <trkpt lat="44.13368" lon="1.4116">
        <ele>30</ele>
        <time>2011-01-26T08:58:08Z</time>
      </trkpt>
      <trkpt lat="44.13369" lon="1.41163">
        <ele>30</ele>
        <time>2011-01-26T08:58:09Z</time>
      </trkpt>
      <trkpt lat="44.13369" lon="1.41166">
        <ele>30</ele>
        <time>2011-01-26T08:58:10Z</time>
      </trkpt>
      <trkpt lat="44.1337" lon="1.4117">
        <ele>30</ele>
        <time>2011-01-26T08:58:11Z</time>
      </trkpt>
      <trkpt lat="44.1337" lon="1.41173">
        <ele>30</ele>
        <time>2011-01-26T08:58:12Z</time>
      </trkpt>
      <trkpt lat="44.1337" lon="1.41176">
        <ele>30</ele>
        <time>2011-01-26T08:58:13Z</time>
      </trkpt>
      <trkpt lat="44.13371" lon="1.41179">
        <ele>30</ele>
        <time>2011-01-26T08:58:14Z</time>
      </trkpt>
      <trkpt lat="44.13372" lon="1.41182">
        <ele>30</ele>
        <time>2011-01-26T08:58:15Z</time>
      </trkpt>
      <trkpt lat="44.13373" lon="1.41186">
        <ele>30</ele>
        <time>2011-01-26T08:58:16Z</time>
      </trkpt>
      <trkpt lat="44.13375" lon="1.41189">
        <ele>30</ele>
        <time>2011-01-26T08:58:17Z</time>
      </trkpt>
      <trkpt lat="44.13376" lon="1.41192">
        <ele>30</ele>
        <time>2011-01-26T08:58:18Z</time>
      </trkpt>
      <trkpt lat="44.13378" lon="1.41195">
        <ele>30</ele>
        <time>2011-01-26T08:58:19Z</time>
      </trkpt>
      <trkpt lat="44.1338" lon="1.41198">
        <ele>30</ele>
        <time>2011-01-26T08:58:20Z</time>
      </trkpt>
      <trkpt lat="44.13381" lon="1.41201">
        <ele>30</ele>
        <time>2011-01-26T08:58:21Z</time>
      </trkpt>
      <trkpt lat="44.13383" lon="1.41204">
        <ele>30</ele>
        <time>2011-01-26T08:58:22Z</time>
      </trkpt>
      <trkpt lat="44.13385" lon="1.41206">
        <ele>30</ele>
        <time>2011-01-26T08:58:24Z</time>
      </trkpt>
      <trkpt lat="44.13386" lon="1.41209">
        <ele>30</ele>
        <time>2011-01-26T08:58:25Z</time>
      </trkpt>
      <trkpt lat="44.13388" lon="1.41212">
        <ele>30</ele>
        <time>2011-01-26T08:58:26Z</time>
      </trkpt>
      <trkpt lat="44.1339" lon="1.41215">
        <ele>30</ele>
        <time>2011-01-26T08:58:27Z</time>
      </trkpt>
      <trkpt lat="44.13392" lon="1.41218">
        <ele>30</ele>
        <time>2011-01-26T08:58:28Z</time>
      </trkpt>
      <trkpt lat="44.13394" lon="1.41221">
        <ele>30</ele>
        <time>2011-01-26T08:58:29Z</time>
      </trkpt>
      <trkpt lat="44.13396" lon="1.41223">
        <ele>30</ele>
        <time>2011-01-26T08:58:30Z</time>
      </trkpt>
      <trkpt lat="44.13398" lon="1.41226">
        <ele>30</ele>
        <time>2011-01-26T08:58:31Z</time>
      </trkpt>
      <trkpt lat="44.134" lon="1.41229">
        <ele>30</ele>
        <time>2011-01-26T08:58:33Z</time>
      </trkpt>
      <trkpt lat="44.13402" lon="1.41232">
        <ele>30</ele>
        <time>2011-01-26T08:58:34Z</time>
      </trkpt>
      <trkpt lat="44.13404" lon="1.41235">
        <ele>30</ele>
        <time>2011-01-26T08:58:35Z</time>
      </trkpt>
      <trkpt lat="44.13406" lon="1.41238">
        <ele>30</ele>
        <time>2011-01-26T08:58:36Z</time>
      </trkpt>
      <trkpt lat="44.13408" lon="1.4124">
        <ele>30</ele>
        <time>2011-01-26T08:58:37Z</time>
      </trkpt>
      <trkpt lat="44.13409" lon="1.41242">
        <ele>30</ele>
        <time>2011-01-26T08:58:38Z</time>
      </trkpt>
      <trkpt lat="44.13411" lon="1.41245">
        <ele>30</ele>
        <time>2011-01-26T08:58:39Z</time>
      </trkpt>
      <trkpt lat="44.13412" lon="1.41248">
        <ele>30</ele>
        <time>2011-01-26T08:58:40Z</time>
      </trkpt>
      <trkpt lat="44.13414" lon="1.4125">
        <ele>30</ele>
        <time>2011-01-26T08:58:41Z</time>
      </trkpt>
      <trkpt lat="44.13416" lon="1.41253">
        <ele>30</ele>
        <time>2011-01-26T08:58:42Z</time>
      </trkpt>
      <trkpt lat="44.13418" lon="1.41256">
        <ele>30</ele>
        <time>2011-01-26T08:58:43Z</time>
      </trkpt>
      <trkpt lat="44.13419" lon="1.41258">
        <ele>30</ele>
        <time>2011-01-26T08:58:44Z</time>
      </trkpt>
      <trkpt lat="44.13421" lon="1.41261">
        <ele>30</ele>
        <time>2011-01-26T08:58:45Z</time>
      </trkpt>
      <trkpt lat="44.13423" lon="1.41263">
        <ele>30</ele>
        <time>2011-01-26T08:58:46Z</time>
      </trkpt>
      <trkpt lat="44.13424" lon="1.41265">
        <ele>30</ele>
        <time>2011-01-26T08:58:47Z</time>
      </trkpt>
      <trkpt lat="44.13426" lon="1.41267">
        <ele>30</ele>
        <time>2011-01-26T08:58:48Z</time>
      </trkpt>
      <trkpt lat="44.13427" lon="1.4127">
        <ele>30</ele>
        <time>2011-01-26T08:58:49Z</time>
      </trkpt>
      <trkpt lat="44.13429" lon="1.41272">
        <ele>30</ele>
        <time>2011-01-26T08:58:49Z</time>
      </trkpt>
      <trkpt lat="44.13429" lon="1.41276">
        <ele>30</ele>
        <time>2011-01-26T08:58:50Z</time>
      </trkpt>
      <trkpt lat="44.1343" lon="1.41279">
        <ele>30</ele>
        <time>2011-01-26T08:58:51Z</time>
      </trkpt>
      <trkpt lat="44.1343" lon="1.41282">
        <ele>30</ele>
        <time>2011-01-26T08:58:52Z</time>
      </trkpt>
      <trkpt lat="44.1343" lon="1.41285">
        <ele>30</ele>
        <time>2011-01-26T08:58:53Z</time>
      </trkpt>
      <trkpt lat="44.1343" lon="1.41288">
        <ele>30</ele>
        <time>2011-01-26T08:58:54Z</time>
      </trkpt>
      <trkpt lat="44.13431" lon="1.41291">
        <ele>30</ele>
        <time>2011-01-26T08:58:55Z</time>
      </trkpt>
      <trkpt lat="44.13432" lon="1.41294">
        <ele>30</ele>
        <time>2011-01-26T08:58:56Z</time>
      </trkpt>
      <trkpt lat="44.13433" lon="1.41297">
        <ele>30</ele>
        <time>2011-01-26T08:58:57Z</time>
      </trkpt>
      <trkpt lat="44.13434" lon="1.413">
        <ele>30</ele>
        <time>2011-01-26T08:58:58Z</time>
      </trkpt>
      <trkpt lat="44.13435" lon="1.41304">
        <ele>30</ele>
        <time>2011-01-26T08:58:59Z</time>
      </trkpt>
      <trkpt lat="44.13437" lon="1.41308">
        <ele>30</ele>
        <time>2011-01-26T08:59:00Z</time>
      </trkpt>
      <trkpt lat="44.13438" lon="1.4131">
        <ele>30</ele>
        <time>2011-01-26T08:59:01Z</time>
      </trkpt>
      <trkpt lat="44.13439" lon="1.41314">
        <ele>30</ele>
        <time>2011-01-26T08:59:02Z</time>
      </trkpt>
      <trkpt lat="44.1344" lon="1.41317">
        <ele>30</ele>
        <time>2011-01-26T08:59:03Z</time>
      </trkpt>
      <trkpt lat="44.13441" lon="1.4132">
        <ele>30</ele>
        <time>2011-01-26T08:59:04Z</time>
      </trkpt>
      <trkpt lat="44.13443" lon="1.41322">
        <ele>30</ele>
        <time>2011-01-26T08:59:05Z</time>
      </trkpt>
      <trkpt lat="44.13444" lon="1.41323">
        <ele>30</ele>
        <time>2011-01-26T08:59:06Z</time>
      </trkpt>
      <trkpt lat="44.13446" lon="1.41323">
        <ele>30</ele>
        <time>2011-01-26T08:59:06Z</time>
      </trkpt>
      <trkpt lat="44.13448" lon="1.41324">
        <ele>30</ele>
        <time>2011-01-26T08:59:07Z</time>
      </trkpt>
      <trkpt lat="44.1345" lon="1.41323">
        <ele>30</ele>
        <time>2011-01-26T08:59:08Z</time>
      </trkpt>
      <trkpt lat="44.13452" lon="1.41324">
        <ele>30</ele>
        <time>2011-01-26T08:59:09Z</time>
      </trkpt>
      <trkpt lat="44.13455" lon="1.41323">
        <ele>30</ele>
        <time>2011-01-26T08:59:10Z</time>
      </trkpt>
      <trkpt lat="44.13457" lon="1.41323">
        <ele>30</ele>
        <time>2011-01-26T08:59:11Z</time>
      </trkpt>
      <trkpt lat="44.13459" lon="1.41322">
        <ele>30</ele>
        <time>2011-01-26T08:59:12Z</time>
      </trkpt>
      <trkpt lat="44.1346" lon="1.41321">
        <ele>30</ele>
        <time>2011-01-26T08:59:12Z</time>
      </trkpt>
      <trkpt lat="44.13462" lon="1.4132">
        <ele>30</ele>
        <time>2011-01-26T08:59:13Z</time>
      </trkpt>
      <trkpt lat="44.13464" lon="1.41319">
        <ele>30</ele>
        <time>2011-01-26T08:59:14Z</time>
      </trkpt>
      <trkpt lat="44.13466" lon="1.41318">
        <ele>30</ele>
        <time>2011-01-26T08:59:15Z</time>
      </trkpt>
      <trkpt lat="44.13467" lon="1.41318">
        <ele>30</ele>
        <time>2011-01-26T08:59:15Z</time>
      </trkpt>
      <trkpt lat="44.13469" lon="1.41317">
        <ele>30</ele>
        <time>2011-01-26T08:59:16Z</time>
      </trkpt>
      <trkpt lat="44.13472" lon="1.41316">
        <ele>30</ele>
        <time>2011-01-26T08:59:17Z</time>
      </trkpt>
      <trkpt lat="44.13474" lon="1.41315">
        <ele>30</ele>
        <time>2011-01-26T08:59:18Z</time>
      </trkpt>
      <trkpt lat="44.13476" lon="1.41314">
        <ele>30</ele>
        <time>2011-01-26T08:59:19Z</time>
      </trkpt>
      <trkpt lat="44.13477" lon="1.41313">
        <ele>30</ele>
        <time>2011-01-26T08:59:20Z</time>
      </trkpt>
      <trkpt lat="44.1348" lon="1.41312">
        <ele>30</ele>
        <time>2011-01-26T08:59:20Z</time>
      </trkpt>
      <trkpt lat="44.13482" lon="1.41311">
        <ele>30</ele>
        <time>2011-01-26T08:59:22Z</time>
      </trkpt>
      <trkpt lat="44.13484" lon="1.4131">
        <ele>30</ele>
        <time>2011-01-26T08:59:22Z</time>
      </trkpt>
      <trkpt lat="44.13486" lon="1.41309">
        <ele>30</ele>
        <time>2011-01-26T08:59:23Z</time>
      </trkpt>
      <trkpt lat="44.13489" lon="1.41307">
        <ele>30</ele>
        <time>2011-01-26T08:59:24Z</time>
      </trkpt>
      <trkpt lat="44.13491" lon="1.41305">
        <ele>30</ele>
        <time>2011-01-26T08:59:25Z</time>
      </trkpt>
      <trkpt lat="44.13493" lon="1.41304">
        <ele>30</ele>
        <time>2011-01-26T08:59:26Z</time>
      </trkpt>
      <trkpt lat="44.13495" lon="1.41303">
        <ele>30</ele>
        <time>2011-01-26T08:59:27Z</time>
      </trkpt>
      <trkpt lat="44.13497" lon="1.41302">
        <ele>30</ele>
        <time>2011-01-26T08:59:28Z</time>
      </trkpt>
      <trkpt lat="44.13499" lon="1.413">
        <ele>30</ele>
        <time>2011-01-26T08:59:29Z</time>
      </trkpt>
      <trkpt lat="44.13501" lon="1.41299">
        <ele>30</ele>
        <time>2011-01-26T08:59:30Z</time>
      </trkpt>
      <trkpt lat="44.13503" lon="1.41298">
        <ele>30</ele>
        <time>2011-01-26T08:59:31Z</time>
      </trkpt>
      <trkpt lat="44.13506" lon="1.41297">
        <ele>30</ele>
        <time>2011-01-26T08:59:32Z</time>
      </trkpt>
      <trkpt lat="44.13508" lon="1.41297">
        <ele>30</ele>
        <time>2011-01-26T08:59:33Z</time>
      </trkpt>
      <trkpt lat="44.1351" lon="1.41297">
        <ele>30</ele>
        <time>2011-01-26T08:59:34Z</time>
      </trkpt>
      <trkpt lat="44.13512" lon="1.41298">
        <ele>30</ele>
        <time>2011-01-26T08:59:35Z</time>
      </trkpt>
      <trkpt lat="44.13514" lon="1.41299">
        <ele>30</ele>
        <time>2011-01-26T08:59:35Z</time>
      </trkpt>
      <trkpt lat="44.13516" lon="1.413">
        <ele>30</ele>
        <time>2011-01-26T08:59:36Z</time>
      </trkpt>
      <trkpt lat="44.13518" lon="1.413">
        <ele>30</ele>
        <time>2011-01-26T08:59:37Z</time>
      </trkpt>
      <trkpt lat="44.1352" lon="1.41301">
        <ele>30</ele>
        <time>2011-01-26T08:59:38Z</time>
      </trkpt>
      <trkpt lat="44.13522" lon="1.41302">
        <ele>30</ele>
        <time>2011-01-26T08:59:39Z</time>
      </trkpt>
      <trkpt lat="44.13524" lon="1.41302">
        <ele>30</ele>
        <time>2011-01-26T08:59:39Z</time>
      </trkpt>
      <trkpt lat="44.13526" lon="1.41303">
        <ele>30</ele>
        <time>2011-01-26T08:59:40Z</time>
      </trkpt>
      <trkpt lat="44.13528" lon="1.41304">
        <ele>30</ele>
        <time>2011-01-26T08:59:41Z</time>
      </trkpt>
      <trkpt lat="44.13529" lon="1.41306">
        <ele>30</ele>
        <time>2011-01-26T08:59:42Z</time>
      </trkpt>
      <trkpt lat="44.1353" lon="1.41307">
        <ele>30</ele>
        <time>2011-01-26T08:59:42Z</time>
      </trkpt>
      <trkpt lat="44.13532" lon="1.41308">
        <ele>30</ele>
        <time>2011-01-26T08:59:43Z</time>
      </trkpt>
      <trkpt lat="44.13534" lon="1.41309">
        <ele>30</ele>
        <time>2011-01-26T08:59:44Z</time>
      </trkpt>
      <trkpt lat="44.13536" lon="1.41311">
        <ele>30</ele>
        <time>2011-01-26T08:59:45Z</time>
      </trkpt>
      <trkpt lat="44.13538" lon="1.41312">
        <ele>30</ele>
        <time>2011-01-26T08:59:46Z</time>
      </trkpt>
      <trkpt lat="44.1354" lon="1.41313">
        <ele>30</ele>
        <time>2011-01-26T08:59:47Z</time>
      </trkpt>
      <trkpt lat="44.13542" lon="1.41314">
        <ele>30</ele>
        <time>2011-01-26T08:59:47Z</time>
      </trkpt>
      <trkpt lat="44.13544" lon="1.41315">
        <ele>30</ele>
        <time>2011-01-26T08:59:48Z</time>
      </trkpt>
      <trkpt lat="44.13545" lon="1.41316">
        <ele>30</ele>
        <time>2011-01-26T08:59:49Z</time>
      </trkpt>
      <trkpt lat="44.13547" lon="1.41318">
        <ele>30</ele>
        <time>2011-01-26T08:59:50Z</time>
      </trkpt>
      <trkpt lat="44.1355" lon="1.41319">
        <ele>30</ele>
        <time>2011-01-26T08:59:51Z</time>
      </trkpt>
      <trkpt lat="44.13552" lon="1.4132">
        <ele>30</ele>
        <time>2011-01-26T08:59:52Z</time>
      </trkpt>
      <trkpt lat="44.13555" lon="1.41321">
        <ele>30</ele>
        <time>2011-01-26T08:59:53Z</time>
      </trkpt>
      <trkpt lat="44.13558" lon="1.41322">
        <ele>30</ele>
        <time>2011-01-26T08:59:54Z</time>
      </trkpt>
      <trkpt lat="44.13561" lon="1.41324">
        <ele>30</ele>
        <time>2011-01-26T08:59:56Z</time>
      </trkpt>
      <trkpt lat="44.13563" lon="1.41326">
        <ele>30</ele>
        <time>2011-01-26T08:59:57Z</time>
      </trkpt>
      <trkpt lat="44.13565" lon="1.41328">
        <ele>30</ele>
        <time>2011-01-26T08:59:58Z</time>
      </trkpt>
      <trkpt lat="44.13565" lon="1.41332">
        <ele>30</ele>
        <time>2011-01-26T08:59:59Z</time>
      </trkpt>
      <trkpt lat="44.13566" lon="1.41335">
        <ele>30</ele>
        <time>2011-01-26T09:00:00Z</time>
      </trkpt>
      <trkpt lat="44.13567" lon="1.41338">
        <ele>30</ele>
        <time>2011-01-26T09:00:01Z</time>
      </trkpt>
      <trkpt lat="44.13568" lon="1.41341">
        <ele>30</ele>
        <time>2011-01-26T09:00:02Z</time>
      </trkpt>
      <trkpt lat="44.13568" lon="1.41345">
        <ele>30</ele>
        <time>2011-01-26T09:00:03Z</time>
      </trkpt>
      <trkpt lat="44.13569" lon="1.41349">
        <ele>30</ele>
        <time>2011-01-26T09:00:04Z</time>
      </trkpt>
      <trkpt lat="44.13569" lon="1.41352">
        <ele>30</ele>
        <time>2011-01-26T09:00:05Z</time>
      </trkpt>
      <trkpt lat="44.13569" lon="1.41355">
        <ele>30</ele>
        <time>2011-01-26T09:00:06Z</time>
      </trkpt>
      <trkpt lat="44.1357" lon="1.41358">
        <ele>30</ele>
        <time>2011-01-26T09:00:06Z</time>
      </trkpt>
      <trkpt lat="44.1357" lon="1.41361">
        <ele>30</ele>
        <time>2011-01-26T09:00:07Z</time>
      </trkpt>
      <trkpt lat="44.1357" lon="1.41364">
        <ele>30</ele>
        <time>2011-01-26T09:00:08Z</time>
      </trkpt>
      <trkpt lat="44.1357" lon="1.41367">
        <ele>30</ele>
        <time>2011-01-26T09:00:09Z</time>
      </trkpt>
      <trkpt lat="44.13571" lon="1.4137">
        <ele>30</ele>
        <time>2011-01-26T09:00:10Z</time>
      </trkpt>
      <trkpt lat="44.13571" lon="1.41373">
        <ele>30</ele>
        <time>2011-01-26T09:00:11Z</time>
      </trkpt>
      <trkpt lat="44.13572" lon="1.41376">
        <ele>30</ele>
        <time>2011-01-26T09:00:12Z</time>
      </trkpt>
      <trkpt lat="44.13573" lon="1.41378">
        <ele>30</ele>
        <time>2011-01-26T09:00:12Z</time>
      </trkpt>
      <trkpt lat="44.13573" lon="1.41381">
        <ele>30</ele>
        <time>2011-01-26T09:00:13Z</time>
      </trkpt>
      <trkpt lat="44.13574" lon="1.41384">
        <ele>30</ele>
        <time>2011-01-26T09:00:14Z</time>
      </trkpt>
      <trkpt lat="44.13574" lon="1.41387">
        <ele>30</ele>
        <time>2011-01-26T09:00:15Z</time>
      </trkpt>
      <trkpt lat="44.13575" lon="1.4139">
        <ele>30</ele>
        <time>2011-01-26T09:00:16Z</time>
      </trkpt>
      <trkpt lat="44.13575" lon="1.41393">
        <ele>30</ele>
        <time>2011-01-26T09:00:17Z</time>
      </trkpt>
      <trkpt lat="44.13575" lon="1.41396">
        <ele>30</ele>
        <time>2011-01-26T09:00:18Z</time>
      </trkpt>
      <trkpt lat="44.13574" lon="1.41398">
        <ele>30</ele>
        <time>2011-01-26T09:00:18Z</time>
      </trkpt>
      <trkpt lat="44.13574" lon="1.414">
        <ele>30</ele>
        <time>2011-01-26T09:00:19Z</time>
      </trkpt>
      <trkpt lat="44.13575" lon="1.41402">
        <ele>30</ele>
        <time>2011-01-26T09:00:20Z</time>
      </trkpt>
      <trkpt lat="44.13577" lon="1.41405">
        <ele>30</ele>
        <time>2011-01-26T09:00:21Z</time>
      </trkpt>
      <trkpt lat="44.13577" lon="1.41407">
        <ele>30</ele>
        <time>2011-01-26T09:00:21Z</time>
      </trkpt>
      <trkpt lat="44.13578" lon="1.4141">
        <ele>30</ele>
        <time>2011-01-26T09:00:22Z</time>
      </trkpt>
      <trkpt lat="44.13578" lon="1.41414">
        <ele>30</ele>
        <time>2011-01-26T09:00:23Z</time>
      </trkpt>
      <trkpt lat="44.13578" lon="1.41416">
        <ele>30</ele>
        <time>2011-01-26T09:00:24Z</time>
      </trkpt>
      <trkpt lat="44.13579" lon="1.41419">
        <ele>30</ele>
        <time>2011-01-26T09:00:25Z</time>
      </trkpt>
      <trkpt lat="44.1358" lon="1.41423">
        <ele>30</ele>
        <time>2011-01-26T09:00:26Z</time>
      </trkpt>
      <trkpt lat="44.1358" lon="1.41426">
        <ele>30</ele>
        <time>2011-01-26T09:00:27Z</time>
      </trkpt>
      <trkpt lat="44.13581" lon="1.41429">
        <ele>30</ele>
        <time>2011-01-26T09:00:28Z</time>
      </trkpt>
      <trkpt lat="44.13581" lon="1.41432">
        <ele>30</ele>
        <time>2011-01-26T09:00:29Z</time>
      </trkpt>
      <trkpt lat="44.13582" lon="1.41435">
        <ele>30</ele>
        <time>2011-01-26T09:00:30Z</time>
      </trkpt>
      <trkpt lat="44.13582" lon="1.41438">
        <ele>30</ele>
        <time>2011-01-26T09:00:30Z</time>
      </trkpt>
      <trkpt lat="44.13582" lon="1.41441">
        <ele>30</ele>
        <time>2011-01-26T09:00:31Z</time>
      </trkpt>
      <trkpt lat="44.13582" lon="1.41444">
        <ele>30</ele>
        <time>2011-01-26T09:00:32Z</time>
      </trkpt>
      <trkpt lat="44.13582" lon="1.41447">
        <ele>30</ele>
        <time>2011-01-26T09:00:33Z</time>
      </trkpt>
      <trkpt lat="44.13582" lon="1.4145">
        <ele>30</ele>
        <time>2011-01-26T09:00:34Z</time>
      </trkpt>
      <trkpt lat="44.13583" lon="1.41453">
        <ele>30</ele>
        <time>2011-01-26T09:00:35Z</time>
      </trkpt>
      <trkpt lat="44.13583" lon="1.41457">
        <ele>30</ele>
        <time>2011-01-26T09:00:36Z</time>
      </trkpt>
      <trkpt lat="44.13583" lon="1.41459">
        <ele>30</ele>
        <time>2011-01-26T09:00:37Z</time>
      </trkpt>
      <trkpt lat="44.13583" lon="1.41462">
        <ele>30</ele>
        <time>2011-01-26T09:00:37Z</time>
      </trkpt>
      <trkpt lat="44.13583" lon="1.41466">
        <ele>30</ele>
        <time>2011-01-26T09:00:38Z</time>
      </trkpt>
      <trkpt lat="44.13583" lon="1.41469">
        <ele>30</ele>
        <time>2011-01-26T09:00:39Z</time>
      </trkpt>
      <trkpt lat="44.13582" lon="1.41472">
        <ele>30</ele>
        <time>2011-01-26T09:00:40Z</time>
      </trkpt>
      <trkpt lat="44.13582" lon="1.41475">
        <ele>30</ele>
        <time>2011-01-26T09:00:41Z</time>
      </trkpt>
      <trkpt lat="44.13581" lon="1.41478">
        <ele>30</ele>
        <time>2011-01-26T09:00:42Z</time>
      </trkpt>
      <trkpt lat="44.13581" lon="1.41481">
        <ele>30</ele>
        <time>2011-01-26T09:00:43Z</time>
      </trkpt>
      <trkpt lat="44.1358" lon="1.41484">
        <ele>30</ele>
        <time>2011-01-26T09:00:44Z</time>
      </trkpt>
      <trkpt lat="44.1358" lon="1.41487">
        <ele>30</ele>
        <time>2011-01-26T09:00:45Z</time>
      </trkpt>
      <trkpt lat="44.1358" lon="1.4149">
        <ele>30</ele>
        <time>2011-01-26T09:00:45Z</time>
      </trkpt>
      <trkpt lat="44.1358" lon="1.41494">
        <ele>30</ele>
        <time>2011-01-26T09:00:46Z</time>
      </trkpt>
      <trkpt lat="44.1358" lon="1.41497">
        <ele>30</ele>
        <time>2011-01-26T09:00:47Z</time>
      </trkpt>
      <trkpt lat="44.13581" lon="1.415">
        <ele>30</ele>
        <time>2011-01-26T09:00:48Z</time>
      </trkpt>
      <trkpt lat="44.13581" lon="1.41503">
        <ele>30</ele>
        <time>2011-01-26T09:00:49Z</time>
      </trkpt>
      <trkpt lat="44.1358" lon="1.41506">
        <ele>30</ele>
        <time>2011-01-26T09:00:50Z</time>
      </trkpt>
      <trkpt lat="44.1358" lon="1.41509">
        <ele>30</ele>
        <time>2011-01-26T09:00:51Z</time>
      </trkpt>
      <trkpt lat="44.1358" lon="1.41512">
        <ele>30</ele>
        <time>2011-01-26T09:00:52Z</time>
      </trkpt>
      <trkpt lat="44.1358" lon="1.41515">
        <ele>30</ele>
        <time>2011-01-26T09:00:53Z</time>
      </trkpt>
      <trkpt lat="44.1358" lon="1.41518">
        <ele>30</ele>
        <time>2011-01-26T09:00:53Z</time>
      </trkpt>
      <trkpt lat="44.13581" lon="1.4152">
        <ele>30</ele>
        <time>2011-01-26T09:00:54Z</time>
      </trkpt>
      <trkpt lat="44.13581" lon="1.41524">
        <ele>30</ele>
        <time>2011-01-26T09:00:55Z</time>
      </trkpt>
      <trkpt lat="44.13582" lon="1.41526">
        <ele>30</ele>
        <time>2011-01-26T09:00:56Z</time>
      </trkpt>
      <trkpt lat="44.13582" lon="1.41529">
        <ele>30</ele>
        <time>2011-01-26T09:00:57Z</time>
      </trkpt>
      <trkpt lat="44.13583" lon="1.41532">
        <ele>30</ele>
        <time>2011-01-26T09:00:58Z</time>
      </trkpt>
      <trkpt lat="44.13583" lon="1.41536">
        <ele>30</ele>
        <time>2011-01-26T09:00:59Z</time>
      </trkpt>
      <trkpt lat="44.13584" lon="1.41539">
        <ele>30</ele>
        <time>2011-01-26T09:01:00Z</time>
      </trkpt>
      <trkpt lat="44.13585" lon="1.41542">
        <ele>30</ele>
        <time>2011-01-26T09:01:01Z</time>
      </trkpt>
      <trkpt lat="44.13586" lon="1.41545">
        <ele>30</ele>
        <time>2011-01-26T09:01:02Z</time>
      </trkpt>
      <trkpt lat="44.13586" lon="1.41548">
        <ele>30</ele>
        <time>2011-01-26T09:01:03Z</time>
      </trkpt>
      <trkpt lat="44.13588" lon="1.41551">
        <ele>30</ele>
        <time>2011-01-26T09:01:04Z</time>
      </trkpt>
      <trkpt lat="44.13588" lon="1.41554">
        <ele>30</ele>
        <time>2011-01-26T09:01:04Z</time>
      </trkpt>
      <trkpt lat="44.13588" lon="1.41557">
        <ele>30</ele>
        <time>2011-01-26T09:01:05Z</time>
      </trkpt>
      <trkpt lat="44.13589" lon="1.4156">
        <ele>30</ele>
        <time>2011-01-26T09:01:06Z</time>
      </trkpt>
      <trkpt lat="44.1359" lon="1.41562">
        <ele>30</ele>
        <time>2011-01-26T09:01:07Z</time>
      </trkpt>
      <trkpt lat="44.1359" lon="1.41565">
        <ele>30</ele>
        <time>2011-01-26T09:01:08Z</time>
      </trkpt>
      <trkpt lat="44.13591" lon="1.41568">
        <ele>30</ele>
        <time>2011-01-26T09:01:09Z</time>
      </trkpt>
      <trkpt lat="44.13591" lon="1.41571">
        <ele>30</ele>
        <time>2011-01-26T09:01:10Z</time>
      </trkpt>
      <trkpt lat="44.13592" lon="1.41574">
        <ele>30</ele>
        <time>2011-01-26T09:01:10Z</time>
      </trkpt>
      <trkpt lat="44.13593" lon="1.41577">
        <ele>30</ele>
        <time>2011-01-26T09:01:11Z</time>
      </trkpt>
      <trkpt lat="44.13594" lon="1.4158">
        <ele>30</ele>
        <time>2011-01-26T09:01:12Z</time>
      </trkpt>
      <trkpt lat="44.13594" lon="1.41583">
        <ele>30</ele>
        <time>2011-01-26T09:01:13Z</time>
      </trkpt>
      <trkpt lat="44.13595" lon="1.41586">
        <ele>30</ele>
        <time>2011-01-26T09:01:14Z</time>
      </trkpt>
      <trkpt lat="44.13596" lon="1.41588">
        <ele>30</ele>
        <time>2011-01-26T09:01:15Z</time>
      </trkpt>
      <trkpt lat="44.13596" lon="1.41591">
        <ele>30</ele>
        <time>2011-01-26T09:01:16Z</time>
      </trkpt>
      <trkpt lat="44.13597" lon="1.41594">
        <ele>30</ele>
        <time>2011-01-26T09:01:17Z</time>
      </trkpt>
      <trkpt lat="44.13598" lon="1.41597">
        <ele>30</ele>
        <time>2011-01-26T09:01:17Z</time>
      </trkpt>
      <trkpt lat="44.13599" lon="1.41599">
        <ele>30</ele>
        <time>2011-01-26T09:01:18Z</time>
      </trkpt>
      <trkpt lat="44.13599" lon="1.41602">
        <ele>30</ele>
        <time>2011-01-26T09:01:19Z</time>
      </trkpt>
      <trkpt lat="44.136" lon="1.41605">
        <ele>30</ele>
        <time>2011-01-26T09:01:20Z</time>
      </trkpt>
      <trkpt lat="44.13601" lon="1.41608">
        <ele>30</ele>
        <time>2011-01-26T09:01:21Z</time>
      </trkpt>
      <trkpt lat="44.13602" lon="1.41611">
        <ele>30</ele>
        <time>2011-01-26T09:01:22Z</time>
      </trkpt>
      <trkpt lat="44.13602" lon="1.41614">
        <ele>30</ele>
        <time>2011-01-26T09:01:23Z</time>
      </trkpt>
      <trkpt lat="44.13603" lon="1.41616">
        <ele>30</ele>
        <time>2011-01-26T09:01:23Z</time>
      </trkpt>
      <trkpt lat="44.13604" lon="1.41619">
        <ele>30</ele>
        <time>2011-01-26T09:01:24Z</time>
      </trkpt>
      <trkpt lat="44.13605" lon="1.41622">
        <ele>30</ele>
        <time>2011-01-26T09:01:25Z</time>
      </trkpt>
      <trkpt lat="44.13605" lon="1.41625">
        <ele>30</ele>
        <time>2011-01-26T09:01:26Z</time>
      </trkpt>
      <trkpt lat="44.13606" lon="1.41628">
        <ele>30</ele>
        <time>2011-01-26T09:01:27Z</time>
      </trkpt>
      <trkpt lat="44.13607" lon="1.4163">
        <ele>30</ele>
        <time>2011-01-26T09:01:28Z</time>
      </trkpt>
      <trkpt lat="44.13607" lon="1.41633">
        <ele>30</ele>
        <time>2011-01-26T09:01:29Z</time>
      </trkpt>
      <trkpt lat="44.13608" lon="1.41636">
        <ele>30</ele>
        <time>2011-01-26T09:01:29Z</time>
      </trkpt>
      <trkpt lat="44.13609" lon="1.41639">
        <ele>30</ele>
        <time>2011-01-26T09:01:30Z</time>
      </trkpt>
      <trkpt lat="44.13609" lon="1.41641">
        <ele>30</ele>
        <time>2011-01-26T09:01:31Z</time>
      </trkpt>
      <trkpt lat="44.1361" lon="1.41644">
        <ele>30</ele>
        <time>2011-01-26T09:01:32Z</time>
      </trkpt>
      <trkpt lat="44.1361" lon="1.41647">
        <ele>30</ele>
        <time>2011-01-26T09:01:33Z</time>
      </trkpt>
      <trkpt lat="44.13611" lon="1.41649">
        <ele>30</ele>
        <time>2011-01-26T09:01:33Z</time>
      </trkpt>
      <trkpt lat="44.13612" lon="1.41652">
        <ele>30</ele>
        <time>2011-01-26T09:01:34Z</time>
      </trkpt>
      <trkpt lat="44.13612" lon="1.41655">
        <ele>30</ele>
        <time>2011-01-26T09:01:35Z</time>
      </trkpt>
      <trkpt lat="44.13613" lon="1.41658">
        <ele>30</ele>
        <time>2011-01-26T09:01:36Z</time>
      </trkpt>
      <trkpt lat="44.13614" lon="1.41661">
        <ele>30</ele>
        <time>2011-01-26T09:01:37Z</time>
      </trkpt>
      <trkpt lat="44.13614" lon="1.41663">
        <ele>30</ele>
        <time>2011-01-26T09:01:38Z</time>
      </trkpt>
      <trkpt lat="44.13615" lon="1.41666">
        <ele>30</ele>
        <time>2011-01-26T09:01:39Z</time>
      </trkpt>
      <trkpt lat="44.13615" lon="1.4167">
        <ele>30</ele>
        <time>2011-01-26T09:01:40Z</time>
      </trkpt>
      <trkpt lat="44.13616" lon="1.41673">
        <ele>30</ele>
        <time>2011-01-26T09:01:40Z</time>
      </trkpt>
      <trkpt lat="44.13617" lon="1.41675">
        <ele>30</ele>
        <time>2011-01-26T09:01:41Z</time>
      </trkpt>
      <trkpt lat="44.13617" lon="1.41678">
        <ele>30</ele>
        <time>2011-01-26T09:01:42Z</time>
      </trkpt>
      <trkpt lat="44.13618" lon="1.41681">
        <ele>30</ele>
        <time>2011-01-26T09:01:43Z</time>
      </trkpt>
      <trkpt lat="44.13619" lon="1.41684">
        <ele>30</ele>
        <time>2011-01-26T09:01:44Z</time>
      </trkpt>
      <trkpt lat="44.1362" lon="1.41687">
        <ele>30</ele>
        <time>2011-01-26T09:01:45Z</time>
      </trkpt>
      <trkpt lat="44.1362" lon="1.4169">
        <ele>30</ele>
        <time>2011-01-26T09:01:46Z</time>
      </trkpt>
      <trkpt lat="44.1362" lon="1.41693">
        <ele>30</ele>
        <time>2011-01-26T09:01:47Z</time>
      </trkpt>
      <trkpt lat="44.13621" lon="1.41696">
        <ele>30</ele>
        <time>2011-01-26T09:01:48Z</time>
      </trkpt>
      <trkpt lat="44.13622" lon="1.41699">
        <ele>30</ele>
        <time>2011-01-26T09:01:49Z</time>
      </trkpt>
      <trkpt lat="44.13623" lon="1.41702">
        <ele>30</ele>
        <time>2011-01-26T09:01:50Z</time>
      </trkpt>
      <trkpt lat="44.13623" lon="1.41705">
        <ele>30</ele>
        <time>2011-01-26T09:01:50Z</time>
      </trkpt>
      <trkpt lat="44.13625" lon="1.41708">
        <ele>30</ele>
        <time>2011-01-26T09:01:51Z</time>
      </trkpt>
      <trkpt lat="44.13625" lon="1.41711">
        <ele>30</ele>
        <time>2011-01-26T09:01:52Z</time>
      </trkpt>
      <trkpt lat="44.13626" lon="1.41714">
        <ele>30</ele>
        <time>2011-01-26T09:01:53Z</time>
      </trkpt>
      <trkpt lat="44.13626" lon="1.41717">
        <ele>30</ele>
        <time>2011-01-26T09:01:54Z</time>
      </trkpt>
      <trkpt lat="44.13627" lon="1.4172">
        <ele>30</ele>
        <time>2011-01-26T09:01:55Z</time>
      </trkpt>
      <trkpt lat="44.13628" lon="1.41723">
        <ele>30</ele>
        <time>2011-01-26T09:01:56Z</time>
      </trkpt>
      <trkpt lat="44.13628" lon="1.41726">
        <ele>30</ele>
        <time>2011-01-26T09:01:57Z</time>
      </trkpt>
      <trkpt lat="44.13628" lon="1.4173">
        <ele>30</ele>
        <time>2011-01-26T09:01:58Z</time>
      </trkpt>
      <trkpt lat="44.13629" lon="1.41733">
        <ele>30</ele>
        <time>2011-01-26T09:01:59Z</time>
      </trkpt>
      <trkpt lat="44.13629" lon="1.41736">
        <ele>30</ele>
        <time>2011-01-26T09:02:00Z</time>
      </trkpt>
      <trkpt lat="44.1363" lon="1.41738">
        <ele>30</ele>
        <time>2011-01-26T09:02:00Z</time>
      </trkpt>
      <trkpt lat="44.13631" lon="1.41741">
        <ele>30</ele>
        <time>2011-01-26T09:02:01Z</time>
      </trkpt>
      <trkpt lat="44.13631" lon="1.41744">
        <ele>30</ele>
        <time>2011-01-26T09:02:02Z</time>
      </trkpt>
      <trkpt lat="44.13633" lon="1.41747">
        <ele>30</ele>
        <time>2011-01-26T09:02:03Z</time>
      </trkpt>
      <trkpt lat="44.13633" lon="1.4175">
        <ele>30</ele>
        <time>2011-01-26T09:02:04Z</time>
      </trkpt>
      <trkpt lat="44.13634" lon="1.41753">
        <ele>30</ele>
        <time>2011-01-26T09:02:05Z</time>
      </trkpt>
      <trkpt lat="44.13635" lon="1.41755">
        <ele>30</ele>
        <time>2011-01-26T09:02:06Z</time>
      </trkpt>
      <trkpt lat="44.13636" lon="1.41758">
        <ele>30</ele>
        <time>2011-01-26T09:02:07Z</time>
      </trkpt>
      <trkpt lat="44.13636" lon="1.41761">
        <ele>30</ele>
        <time>2011-01-26T09:02:08Z</time>
      </trkpt>
      <trkpt lat="44.13638" lon="1.41764">
        <ele>30</ele>
        <time>2011-01-26T09:02:08Z</time>
      </trkpt>
      <trkpt lat="44.13639" lon="1.41767">
        <ele>30</ele>
        <time>2011-01-26T09:02:09Z</time>
      </trkpt>
      <trkpt lat="44.1364" lon="1.4177">
        <ele>30</ele>
        <time>2011-01-26T09:02:10Z</time>
      </trkpt>
      <trkpt lat="44.13641" lon="1.41772">
        <ele>30</ele>
        <time>2011-01-26T09:02:11Z</time>
      </trkpt>
      <trkpt lat="44.13642" lon="1.41775">
        <ele>30</ele>
        <time>2011-01-26T09:02:12Z</time>
      </trkpt>
      <trkpt lat="44.13644" lon="1.41777">
        <ele>30</ele>
        <time>2011-01-26T09:02:13Z</time>
      </trkpt>
      <trkpt lat="44.13645" lon="1.41779">
        <ele>30</ele>
        <time>2011-01-26T09:02:14Z</time>
      </trkpt>
      <trkpt lat="44.13647" lon="1.4178">
        <ele>30</ele>
        <time>2011-01-26T09:02:14Z</time>
      </trkpt>
      <trkpt lat="44.13649" lon="1.4178">
        <ele>30</ele>
        <time>2011-01-26T09:02:15Z</time>
      </trkpt>
      <trkpt lat="44.1365" lon="1.41779">
        <ele>30</ele>
        <time>2011-01-26T09:02:16Z</time>
      </trkpt>
      <trkpt lat="44.13651" lon="1.41778">
        <ele>30</ele>
        <time>2011-01-26T09:02:16Z</time>
      </trkpt>
      <trkpt lat="44.13653" lon="1.41776">
        <ele>30</ele>
        <time>2011-01-26T09:02:17Z</time>
      </trkpt>
      <trkpt lat="44.13654" lon="1.41775">
        <ele>30</ele>
        <time>2011-01-26T09:02:18Z</time>
      </trkpt>
      <trkpt lat="44.13655" lon="1.41774">
        <ele>30</ele>
        <time>2011-01-26T09:02:18Z</time>
      </trkpt>
      <trkpt lat="44.13657" lon="1.41773">
        <ele>30</ele>
        <time>2011-01-26T09:02:19Z</time>
      </trkpt>
      <trkpt lat="44.1366" lon="1.41773">
        <ele>30</ele>
        <time>2011-01-26T09:02:20Z</time>
      </trkpt>
      <trkpt lat="44.13661" lon="1.41773">
        <ele>30</ele>
        <time>2011-01-26T09:02:21Z</time>
      </trkpt>
      <trkpt lat="44.13663" lon="1.41773">
        <ele>30</ele>
        <time>2011-01-26T09:02:21Z</time>
      </trkpt>
      <trkpt lat="44.13664" lon="1.41772">
        <ele>30</ele>
        <time>2011-01-26T09:02:22Z</time>
      </trkpt>
      <trkpt lat="44.13666" lon="1.41773">
        <ele>30</ele>
        <time>2011-01-26T09:02:23Z</time>
      </trkpt>
      <trkpt lat="44.13667" lon="1.41774">
        <ele>30</ele>
        <time>2011-01-26T09:02:23Z</time>
      </trkpt>
      <trkpt lat="44.13669" lon="1.41774">
        <ele>30</ele>
        <time>2011-01-26T09:02:24Z</time>
      </trkpt>
      <trkpt lat="44.1367" lon="1.41775">
        <ele>30</ele>
        <time>2011-01-26T09:02:25Z</time>
      </trkpt>
      <trkpt lat="44.13672" lon="1.41777">
        <ele>30</ele>
        <time>2011-01-26T09:02:26Z</time>
      </trkpt>
      <trkpt lat="44.13674" lon="1.41778">
        <ele>30</ele>
        <time>2011-01-26T09:02:26Z</time>
      </trkpt>
      <trkpt lat="44.13674" lon="1.41776">
        <ele>30</ele>
        <time>2011-01-26T09:02:27Z</time>
      </trkpt>
      <trkpt lat="44.13676" lon="1.41774">
        <ele>30</ele>
        <time>2011-01-26T09:02:28Z</time>
      </trkpt>
      <trkpt lat="44.13678" lon="1.41773">
        <ele>30</ele>
        <time>2011-01-26T09:02:29Z</time>
      </trkpt>
      <trkpt lat="44.13678" lon="1.4177">
        <ele>30</ele>
        <time>2011-01-26T09:02:29Z</time>
      </trkpt>
      <trkpt lat="44.13678" lon="1.41767">
        <ele>30</ele>
        <time>2011-01-26T09:02:30Z</time>
      </trkpt>
      <trkpt lat="44.13678" lon="1.41764">
        <ele>30</ele>
        <time>2011-01-26T09:02:31Z</time>
      </trkpt>
      <trkpt lat="44.13678" lon="1.41761">
        <ele>30</ele>
        <time>2011-01-26T09:02:32Z</time>
      </trkpt>
      <trkpt lat="44.13678" lon="1.41758">
        <ele>30</ele>
        <time>2011-01-26T09:02:33Z</time>
      </trkpt>
      <trkpt lat="44.13679" lon="1.41755">
        <ele>30</ele>
        <time>2011-01-26T09:02:34Z</time>
      </trkpt>
      <trkpt lat="44.13679" lon="1.41752">
        <ele>30</ele>
        <time>2011-01-26T09:02:35Z</time>
      </trkpt>
      <trkpt lat="44.1368" lon="1.41749">
        <ele>30</ele>
        <time>2011-01-26T09:02:36Z</time>
      </trkpt>
      <trkpt lat="44.13681" lon="1.41746">
        <ele>30</ele>
        <time>2011-01-26T09:02:36Z</time>
      </trkpt>
      <trkpt lat="44.13681" lon="1.41744">
        <ele>30</ele>
        <time>2011-01-26T09:02:37Z</time>
      </trkpt>
      <trkpt lat="44.13682" lon="1.41741">
        <ele>30</ele>
        <time>2011-01-26T09:02:38Z</time>
      </trkpt>
      <trkpt lat="44.13683" lon="1.41738">
        <ele>30</ele>
        <time>2011-01-26T09:02:39Z</time>
      </trkpt>
      <trkpt lat="44.13683" lon="1.41736">
        <ele>30</ele>
        <time>2011-01-26T09:02:40Z</time>
      </trkpt>
      <trkpt lat="44.13684" lon="1.41733">
        <ele>30</ele>
        <time>2011-01-26T09:02:40Z</time>
      </trkpt>
      <trkpt lat="44.13685" lon="1.41731">
        <ele>30</ele>
        <time>2011-01-26T09:02:41Z</time>
      </trkpt>
      <trkpt lat="44.13686" lon="1.41729">
        <ele>30</ele>
        <time>2011-01-26T09:02:42Z</time>
      </trkpt>
      <trkpt lat="44.13687" lon="1.41726">
        <ele>30</ele>
        <time>2011-01-26T09:02:43Z</time>
      </trkpt>
      <trkpt lat="44.13687" lon="1.41724">
        <ele>30</ele>
        <time>2011-01-26T09:02:43Z</time>
      </trkpt>
      <trkpt lat="44.13688" lon="1.41722">
        <ele>30</ele>
        <time>2011-01-26T09:02:44Z</time>
      </trkpt>
      <trkpt lat="44.13689" lon="1.41719">
        <ele>30</ele>
        <time>2011-01-26T09:02:45Z</time>
      </trkpt>
      <trkpt lat="44.13689" lon="1.41717">
        <ele>30</ele>
        <time>2011-01-26T09:02:46Z</time>
      </trkpt>
      <trkpt lat="44.13689" lon="1.41714">
        <ele>30</ele>
        <time>2011-01-26T09:02:46Z</time>
      </trkpt>
      <trkpt lat="44.13689" lon="1.41712">
        <ele>30</ele>
        <time>2011-01-26T09:02:47Z</time>
      </trkpt>
      <trkpt lat="44.13689" lon="1.41709">
        <ele>30</ele>
        <time>2011-01-26T09:02:48Z</time>
      </trkpt>
      <trkpt lat="44.13689" lon="1.41706">
        <ele>30</ele>
        <time>2011-01-26T09:02:49Z</time>
      </trkpt>
      <trkpt lat="44.1369" lon="1.41704">
        <ele>30</ele>
        <time>2011-01-26T09:02:49Z</time>
      </trkpt>
      <trkpt lat="44.1369" lon="1.41702">
        <ele>30</ele>
        <time>2011-01-26T09:02:50Z</time>
      </trkpt>
      <trkpt lat="44.1369" lon="1.41699">
        <ele>30</ele>
        <time>2011-01-26T09:02:51Z</time>
      </trkpt>
      <trkpt lat="44.1369" lon="1.41696">
        <ele>30</ele>
        <time>2011-01-26T09:02:52Z</time>
      </trkpt>
      <trkpt lat="44.13691" lon="1.41694">
        <ele>30</ele>
        <time>2011-01-26T09:02:52Z</time>
      </trkpt>
      <trkpt lat="44.13691" lon="1.41691">
        <ele>30</ele>
        <time>2011-01-26T09:02:53Z</time>
      </trkpt>
      <trkpt lat="44.13691" lon="1.41688">
        <ele>30</ele>
        <time>2011-01-26T09:02:54Z</time>
      </trkpt>
      <trkpt lat="44.13691" lon="1.41685">
        <ele>30</ele>
        <time>2011-01-26T09:02:55Z</time>
      </trkpt>
      <trkpt lat="44.13691" lon="1.41682">
        <ele>30</ele>
        <time>2011-01-26T09:02:56Z</time>
      </trkpt>
      <trkpt lat="44.13691" lon="1.41679">
        <ele>30</ele>
        <time>2011-01-26T09:02:57Z</time>
      </trkpt>
      <trkpt lat="44.13691" lon="1.41676">
        <ele>30</ele>
        <time>2011-01-26T09:02:57Z</time>
      </trkpt>
      <trkpt lat="44.13692" lon="1.41674">
        <ele>30</ele>
        <time>2011-01-26T09:02:58Z</time>
      </trkpt>
      <trkpt lat="44.13692" lon="1.41671">
        <ele>30</ele>
        <time>2011-01-26T09:02:59Z</time>
      </trkpt>
      <trkpt lat="44.13693" lon="1.41669">
        <ele>30</ele>
        <time>2011-01-26T09:03:00Z</time>
      </trkpt>
      <trkpt lat="44.13693" lon="1.41667">
        <ele>30</ele>
        <time>2011-01-26T09:03:00Z</time>
      </trkpt>
      <trkpt lat="44.13694" lon="1.41665">
        <ele>30</ele>
        <time>2011-01-26T09:03:01Z</time>
      </trkpt>
      <trkpt lat="44.13694" lon="1.41663">
        <ele>30</ele>
        <time>2011-01-26T09:03:02Z</time>
      </trkpt>
      <trkpt lat="44.13695" lon="1.41661">
        <ele>30</ele>
        <time>2011-01-26T09:03:02Z</time>
      </trkpt>
      <trkpt lat="44.13695" lon="1.41659">
        <ele>30</ele>
        <time>2011-01-26T09:03:03Z</time>
      </trkpt>
      <trkpt lat="44.13696" lon="1.41657">
        <ele>30</ele>
        <time>2011-01-26T09:03:03Z</time>
      </trkpt>
      <trkpt lat="44.13697" lon="1.41654">
        <ele>30</ele>
        <time>2011-01-26T09:03:04Z</time>
      </trkpt>
      <trkpt lat="44.13697" lon="1.41652">
        <ele>30</ele>
        <time>2011-01-26T09:03:05Z</time>
      </trkpt>
      <trkpt lat="44.13698" lon="1.4165">
        <ele>30</ele>
        <time>2011-01-26T09:03:05Z</time>
      </trkpt>
      <trkpt lat="44.13698" lon="1.41648">
        <ele>30</ele>
        <time>2011-01-26T09:03:06Z</time>
      </trkpt>
      <trkpt lat="44.13699" lon="1.41646">
        <ele>30</ele>
        <time>2011-01-26T09:03:07Z</time>
      </trkpt>
      <trkpt lat="44.13699" lon="1.41644">
        <ele>30</ele>
        <time>2011-01-26T09:03:07Z</time>
      </trkpt>
      <trkpt lat="44.137" lon="1.41642">
        <ele>30</ele>
        <time>2011-01-26T09:03:08Z</time>
      </trkpt>
      <trkpt lat="44.13702" lon="1.4164">
        <ele>30</ele>
        <time>2011-01-26T09:03:09Z</time>
      </trkpt>
      <trkpt lat="44.13703" lon="1.41638">
        <ele>30</ele>
        <time>2011-01-26T09:03:10Z</time>
      </trkpt>
      <trkpt lat="44.13704" lon="1.41636">
        <ele>30</ele>
        <time>2011-01-26T09:03:10Z</time>
      </trkpt>
      <trkpt lat="44.13705" lon="1.41634">
        <ele>30</ele>
        <time>2011-01-26T09:03:11Z</time>
      </trkpt>
      <trkpt lat="44.13706" lon="1.41632">
        <ele>30</ele>
        <time>2011-01-26T09:03:12Z</time>
      </trkpt>
      <trkpt lat="44.13707" lon="1.4163">
        <ele>30</ele>
        <time>2011-01-26T09:03:12Z</time>
      </trkpt>
      <trkpt lat="44.13707" lon="1.41628">
        <ele>30</ele>
        <time>2011-01-26T09:03:13Z</time>
      </trkpt>
      <trkpt lat="44.13709" lon="1.41626">
        <ele>30</ele>
        <time>2011-01-26T09:03:14Z</time>
      </trkpt>
      <trkpt lat="44.13709" lon="1.41624">
        <ele>30</ele>
        <time>2011-01-26T09:03:14Z</time>
      </trkpt>
      <trkpt lat="44.1371" lon="1.41622">
        <ele>30</ele>
        <time>2011-01-26T09:03:15Z</time>
      </trkpt>
      <trkpt lat="44.13711" lon="1.4162">
        <ele>30</ele>
        <time>2011-01-26T09:03:16Z</time>
      </trkpt>
      <trkpt lat="44.13712" lon="1.41618">
        <ele>30</ele>
        <time>2011-01-26T09:03:16Z</time>
      </trkpt>
      <trkpt lat="44.13714" lon="1.41617">
        <ele>30</ele>
        <time>2011-01-26T09:03:17Z</time>
      </trkpt>
      <trkpt lat="44.13715" lon="1.41615">
        <ele>30</ele>
        <time>2011-01-26T09:03:18Z</time>
      </trkpt>
      <trkpt lat="44.13717" lon="1.41612">
        <ele>30</ele>
        <time>2011-01-26T09:03:19Z</time>
      </trkpt>
      <trkpt lat="44.13718" lon="1.41611">
        <ele>30</ele>
        <time>2011-01-26T09:03:20Z</time>
      </trkpt>
      <trkpt lat="44.13719" lon="1.41609">
        <ele>30</ele>
        <time>2011-01-26T09:03:20Z</time>
      </trkpt>
      <trkpt lat="44.13721" lon="1.41607">
        <ele>30</ele>
        <time>2011-01-26T09:03:21Z</time>
      </trkpt>
      <trkpt lat="44.13722" lon="1.41605">
        <ele>30</ele>
        <time>2011-01-26T09:03:22Z</time>
      </trkpt>
      <trkpt lat="44.13723" lon="1.41604">
        <ele>30</ele>
        <time>2011-01-26T09:03:23Z</time>
      </trkpt>
      <trkpt lat="44.13725" lon="1.41602">
        <ele>30</ele>
        <time>2011-01-26T09:03:23Z</time>
      </trkpt>
      <trkpt lat="44.13726" lon="1.41601">
        <ele>30</ele>
        <time>2011-01-26T09:03:24Z</time>
      </trkpt>
      <trkpt lat="44.13727" lon="1.41599">
        <ele>30</ele>
        <time>2011-01-26T09:03:25Z</time>
      </trkpt>
      <trkpt lat="44.13728" lon="1.41596">
        <ele>30</ele>
        <time>2011-01-26T09:03:26Z</time>
      </trkpt>
      <trkpt lat="44.13728" lon="1.41594">
        <ele>30</ele>
        <time>2011-01-26T09:03:26Z</time>
      </trkpt>
      <trkpt lat="44.13728" lon="1.41592">
        <ele>30</ele>
        <time>2011-01-26T09:03:27Z</time>
      </trkpt>
      <trkpt lat="44.13728" lon="1.4159">
        <ele>30</ele>
        <time>2011-01-26T09:03:27Z</time>
      </trkpt>
      <trkpt lat="44.13728" lon="1.41588">
        <ele>30</ele>
        <time>2011-01-26T09:03:28Z</time>
      </trkpt>
      <trkpt lat="44.13728" lon="1.41585">
        <ele>30</ele>
        <time>2011-01-26T09:03:29Z</time>
      </trkpt>
      <trkpt lat="44.13726" lon="1.41583">
        <ele>30</ele>
        <time>2011-01-26T09:03:29Z</time>
      </trkpt>
      <trkpt lat="44.13725" lon="1.41581">
        <ele>30</ele>
        <time>2011-01-26T09:03:30Z</time>
      </trkpt>
      <trkpt lat="44.13724" lon="1.41578">
        <ele>30</ele>
        <time>2011-01-26T09:03:31Z</time>
      </trkpt>
      <trkpt lat="44.13724" lon="1.41576">
        <ele>30</ele>
        <time>2011-01-26T09:03:32Z</time>
      </trkpt>
      <trkpt lat="44.13723" lon="1.41574">
        <ele>30</ele>
        <time>2011-01-26T09:03:32Z</time>
      </trkpt>
      <trkpt lat="44.13723" lon="1.41573">
        <ele>30</ele>
        <time>2011-01-26T09:03:33Z</time>
      </trkpt>
      <trkpt lat="44.13723" lon="1.4157">
        <ele>30</ele>
        <time>2011-01-26T09:03:34Z</time>
      </trkpt>
      <trkpt lat="44.13721" lon="1.41567">
        <ele>30</ele>
        <time>2011-01-26T09:03:35Z</time>
      </trkpt>
      <trkpt lat="44.13721" lon="1.41565">
        <ele>30</ele>
        <time>2011-01-26T09:03:35Z</time>
      </trkpt>
      <trkpt lat="44.1372" lon="1.41563">
        <ele>30</ele>
        <time>2011-01-26T09:03:36Z</time>
      </trkpt>
      <trkpt lat="44.1372" lon="1.41562">
        <ele>30</ele>
        <time>2011-01-26T09:03:36Z</time>
      </trkpt>
      <trkpt lat="44.1372" lon="1.41559">
        <ele>30</ele>
        <time>2011-01-26T09:03:37Z</time>
      </trkpt>
      <trkpt lat="44.13719" lon="1.41557">
        <ele>30</ele>
        <time>2011-01-26T09:03:38Z</time>
      </trkpt>
      <trkpt lat="44.13719" lon="1.41554">
        <ele>30</ele>
        <time>2011-01-26T09:03:38Z</time>
      </trkpt>
      <trkpt lat="44.13719" lon="1.41552">
        <ele>30</ele>
        <time>2011-01-26T09:03:39Z</time>
      </trkpt>
      <trkpt lat="44.13718" lon="1.4155">
        <ele>30</ele>
        <time>2011-01-26T09:03:40Z</time>
      </trkpt>
      <trkpt lat="44.13718" lon="1.41548">
        <ele>30</ele>
        <time>2011-01-26T09:03:40Z</time>
      </trkpt>
      <trkpt lat="44.13718" lon="1.41547">
        <ele>30</ele>
        <time>2011-01-26T09:03:41Z</time>
      </trkpt>
      <trkpt lat="44.13718" lon="1.41545">
        <ele>30</ele>
        <time>2011-01-26T09:03:41Z</time>
      </trkpt>
      <trkpt lat="44.13718" lon="1.41542">
        <ele>30</ele>
        <time>2011-01-26T09:03:42Z</time>
      </trkpt>
      <trkpt lat="44.13718" lon="1.41541">
        <ele>30</ele>
        <time>2011-01-26T09:03:42Z</time>
      </trkpt>
      <trkpt lat="44.13717" lon="1.41539">
        <ele>30</ele>
        <time>2011-01-26T09:03:43Z</time>
      </trkpt>
      <trkpt lat="44.13717" lon="1.41537">
        <ele>30</ele>
        <time>2011-01-26T09:03:43Z</time>
      </trkpt>
      <trkpt lat="44.13717" lon="1.41536">
        <ele>30</ele>
        <time>2011-01-26T09:03:44Z</time>
      </trkpt>
      <trkpt lat="44.13717" lon="1.41534">
        <ele>30</ele>
        <time>2011-01-26T09:03:44Z</time>
      </trkpt>
      <trkpt lat="44.13717" lon="1.41532">
        <ele>30</ele>
        <time>2011-01-26T09:03:45Z</time>
      </trkpt>
      <trkpt lat="44.13717" lon="1.41529">
        <ele>30</ele>
        <time>2011-01-26T09:03:46Z</time>
      </trkpt>
      <trkpt lat="44.13716" lon="1.41527">
        <ele>30</ele>
        <time>2011-01-26T09:03:46Z</time>
      </trkpt>
      <trkpt lat="44.13716" lon="1.41524">
        <ele>30</ele>
        <time>2011-01-26T09:03:47Z</time>
      </trkpt>
      <trkpt lat="44.13716" lon="1.41522">
        <ele>30</ele>
        <time>2011-01-26T09:03:48Z</time>
      </trkpt>
      <trkpt lat="44.13716" lon="1.41519">
        <ele>30</ele>
        <time>2011-01-26T09:03:49Z</time>
      </trkpt>
      <trkpt lat="44.13715" lon="1.41517">
        <ele>30</ele>
        <time>2011-01-26T09:03:49Z</time>
      </trkpt>
      <trkpt lat="44.13715" lon="1.41514">
        <ele>30</ele>
        <time>2011-01-26T09:03:50Z</time>
      </trkpt>
      <trkpt lat="44.13715" lon="1.41511">
        <ele>30</ele>
        <time>2011-01-26T09:03:51Z</time>
      </trkpt>
      <trkpt lat="44.13715" lon="1.41508">
        <ele>30</ele>
        <time>2011-01-26T09:03:52Z</time>
      </trkpt>
      <trkpt lat="44.13714" lon="1.41505">
        <ele>30</ele>
        <time>2011-01-26T09:03:53Z</time>
      </trkpt>
      <trkpt lat="44.13714" lon="1.41502">
        <ele>30</ele>
        <time>2011-01-26T09:03:54Z</time>
      </trkpt>
      <trkpt lat="44.13714" lon="1.415">
        <ele>30</ele>
        <time>2011-01-26T09:03:54Z</time>
      </trkpt>
      <trkpt lat="44.13714" lon="1.41497">
        <ele>30</ele>
        <time>2011-01-26T09:03:55Z</time>
      </trkpt>
      <trkpt lat="44.13714" lon="1.41495">
        <ele>30</ele>
        <time>2011-01-26T09:03:56Z</time>
      </trkpt>
      <trkpt lat="44.13713" lon="1.41492">
        <ele>30</ele>
        <time>2011-01-26T09:03:57Z</time>
      </trkpt>
      <trkpt lat="44.13713" lon="1.41489">
        <ele>30</ele>
        <time>2011-01-26T09:03:57Z</time>
      </trkpt>
      <trkpt lat="44.13713" lon="1.41486">
        <ele>30</ele>
        <time>2011-01-26T09:03:58Z</time>
      </trkpt>
      <trkpt lat="44.13713" lon="1.41483">
        <ele>30</ele>
        <time>2011-01-26T09:03:59Z</time>
      </trkpt>
      <trkpt lat="44.13713" lon="1.4148">
        <ele>30</ele>
        <time>2011-01-26T09:04:00Z</time>
      </trkpt>
      <trkpt lat="44.13713" lon="1.41477">
        <ele>30</ele>
        <time>2011-01-26T09:04:01Z</time>
      </trkpt>
      <trkpt lat="44.13713" lon="1.41474">
        <ele>30</ele>
        <time>2011-01-26T09:04:02Z</time>
      </trkpt>
      <trkpt lat="44.13713" lon="1.4147">
        <ele>30</ele>
        <time>2011-01-26T09:04:03Z</time>
      </trkpt>
      <trkpt lat="44.13713" lon="1.41467">
        <ele>30</ele>
        <time>2011-01-26T09:04:04Z</time>
      </trkpt>
      <trkpt lat="44.13713" lon="1.41464">
        <ele>30</ele>
        <time>2011-01-26T09:04:05Z</time>
      </trkpt>
      <trkpt lat="44.13712" lon="1.41461">
        <ele>30</ele>
        <time>2011-01-26T09:04:06Z</time>
      </trkpt>
      <trkpt lat="44.13712" lon="1.41458">
        <ele>30</ele>
        <time>2011-01-26T09:04:06Z</time>
      </trkpt>
      <trkpt lat="44.13711" lon="1.41455">
        <ele>30</ele>
        <time>2011-01-26T09:04:07Z</time>
      </trkpt>
      <trkpt lat="44.13711" lon="1.41452">
        <ele>30</ele>
        <time>2011-01-26T09:04:08Z</time>
      </trkpt>
      <trkpt lat="44.1371" lon="1.41449">
        <ele>30</ele>
        <time>2011-01-26T09:04:09Z</time>
      </trkpt>
      <trkpt lat="44.1371" lon="1.41446">
        <ele>30</ele>
        <time>2011-01-26T09:04:10Z</time>
      </trkpt>
      <trkpt lat="44.1371" lon="1.41443">
        <ele>30</ele>
        <time>2011-01-26T09:04:11Z</time>
      </trkpt>
      <trkpt lat="44.1371" lon="1.4144">
        <ele>30</ele>
        <time>2011-01-26T09:04:12Z</time>
      </trkpt>
      <trkpt lat="44.1371" lon="1.41437">
        <ele>30</ele>
        <time>2011-01-26T09:04:13Z</time>
      </trkpt>
      <trkpt lat="44.1371" lon="1.41434">
        <ele>30</ele>
        <time>2011-01-26T09:04:14Z</time>
      </trkpt>
      <trkpt lat="44.1371" lon="1.41431">
        <ele>30</ele>
        <time>2011-01-26T09:04:14Z</time>
      </trkpt>
      <trkpt lat="44.13711" lon="1.41428">
        <ele>30</ele>
        <time>2011-01-26T09:04:15Z</time>
      </trkpt>
      <trkpt lat="44.13712" lon="1.41425">
        <ele>30</ele>
        <time>2011-01-26T09:04:16Z</time>
      </trkpt>
      <trkpt lat="44.13713" lon="1.41423">
        <ele>30</ele>
        <time>2011-01-26T09:04:17Z</time>
      </trkpt>
      <trkpt lat="44.13714" lon="1.4142">
        <ele>30</ele>
        <time>2011-01-26T09:04:18Z</time>
      </trkpt>
      <trkpt lat="44.13715" lon="1.41417">
        <ele>30</ele>
        <time>2011-01-26T09:04:19Z</time>
      </trkpt>
      <trkpt lat="44.13715" lon="1.41414">
        <ele>30</ele>
        <time>2011-01-26T09:04:20Z</time>
      </trkpt>
      <trkpt lat="44.13717" lon="1.41412">
        <ele>30</ele>
        <time>2011-01-26T09:04:21Z</time>
      </trkpt>
      <trkpt lat="44.13717" lon="1.41409">
        <ele>30</ele>
        <time>2011-01-26T09:04:21Z</time>
      </trkpt>
      <trkpt lat="44.13718" lon="1.41406">
        <ele>30</ele>
        <time>2011-01-26T09:04:22Z</time>
      </trkpt>
      <trkpt lat="44.13718" lon="1.41403">
        <ele>30</ele>
        <time>2011-01-26T09:04:23Z</time>
      </trkpt>
      <trkpt lat="44.13718" lon="1.414">
        <ele>30</ele>
        <time>2011-01-26T09:04:24Z</time>
      </trkpt>
      <trkpt lat="44.13718" lon="1.41398">
        <ele>30</ele>
        <time>2011-01-26T09:04:25Z</time>
      </trkpt>
      <trkpt lat="44.13718" lon="1.41394">
        <ele>30</ele>
        <time>2011-01-26T09:04:26Z</time>
      </trkpt>
      <trkpt lat="44.13719" lon="1.41391">
        <ele>30</ele>
        <time>2011-01-26T09:04:27Z</time>
      </trkpt>
      <trkpt lat="44.13719" lon="1.41388">
        <ele>30</ele>
        <time>2011-01-26T09:04:27Z</time>
      </trkpt>
      <trkpt lat="44.1372" lon="1.41385">
        <ele>30</ele>
        <time>2011-01-26T09:04:28Z</time>
      </trkpt>
      <trkpt lat="44.13721" lon="1.41382">
        <ele>30</ele>
        <time>2011-01-26T09:04:29Z</time>
      </trkpt>
      <trkpt lat="44.13722" lon="1.41379">
        <ele>30</ele>
        <time>2011-01-26T09:04:30Z</time>
      </trkpt>
      <trkpt lat="44.13723" lon="1.41376">
        <ele>30</ele>
        <time>2011-01-26T09:04:31Z</time>
      </trkpt>
      <trkpt lat="44.13725" lon="1.41373">
        <ele>30</ele>
        <time>2011-01-26T09:04:32Z</time>
      </trkpt>
      <trkpt lat="44.13726" lon="1.4137">
        <ele>30</ele>
        <time>2011-01-26T09:04:33Z</time>
      </trkpt>
      <trkpt lat="44.13728" lon="1.41367">
        <ele>30</ele>
        <time>2011-01-26T09:04:34Z</time>
      </trkpt>
      <trkpt lat="44.13728" lon="1.41365">
        <ele>30</ele>
        <time>2011-01-26T09:04:35Z</time>
      </trkpt>
      <trkpt lat="44.13729" lon="1.41362">
        <ele>30</ele>
        <time>2011-01-26T09:04:36Z</time>
      </trkpt>
      <trkpt lat="44.1373" lon="1.41359">
        <ele>30</ele>
        <time>2011-01-26T09:04:37Z</time>
      </trkpt>
      <trkpt lat="44.13731" lon="1.41357">
        <ele>30</ele>
        <time>2011-01-26T09:04:38Z</time>
      </trkpt>
      <trkpt lat="44.13731" lon="1.41353">
        <ele>30</ele>
        <time>2011-01-26T09:04:39Z</time>
      </trkpt>
      <trkpt lat="44.13733" lon="1.41351">
        <ele>30</ele>
        <time>2011-01-26T09:04:40Z</time>
      </trkpt>
      <trkpt lat="44.13734" lon="1.41348">
        <ele>30</ele>
        <time>2011-01-26T09:04:40Z</time>
      </trkpt>
      <trkpt lat="44.13735" lon="1.41346">
        <ele>30</ele>
        <time>2011-01-26T09:04:41Z</time>
      </trkpt>
      <trkpt lat="44.13736" lon="1.41344">
        <ele>30</ele>
        <time>2011-01-26T09:04:42Z</time>
      </trkpt>
      <trkpt lat="44.13738" lon="1.41342">
        <ele>30</ele>
        <time>2011-01-26T09:04:43Z</time>
      </trkpt>
      <trkpt lat="44.13739" lon="1.4134">
        <ele>30</ele>
        <time>2011-01-26T09:04:44Z</time>
      </trkpt>
      <trkpt lat="44.13741" lon="1.41338">
        <ele>30</ele>
        <time>2011-01-26T09:04:44Z</time>
      </trkpt>
      <trkpt lat="44.13743" lon="1.41337">
        <ele>30</ele>
        <time>2011-01-26T09:04:45Z</time>
      </trkpt>
      <trkpt lat="44.13744" lon="1.41335">
        <ele>30</ele>
        <time>2011-01-26T09:04:46Z</time>
      </trkpt>
      <trkpt lat="44.13745" lon="1.41333">
        <ele>30</ele>
        <time>2011-01-26T09:04:47Z</time>
      </trkpt>
      <trkpt lat="44.13746" lon="1.41331">
        <ele>30</ele>
        <time>2011-01-26T09:04:47Z</time>
      </trkpt>
      <trkpt lat="44.13746" lon="1.41333">
        <ele>30</ele>
        <time>2011-01-26T09:04:48Z</time>
      </trkpt>
      <trkpt lat="44.13744" lon="1.41334">
        <ele>30</ele>
        <time>2011-01-26T09:04:49Z</time>
      </trkpt>
      <trkpt lat="44.13743" lon="1.41335">
        <ele>30</ele>
        <time>2011-01-26T09:04:49Z</time>
      </trkpt>
      <trkpt lat="44.13742" lon="1.41337">
        <ele>30</ele>
        <time>2011-01-26T09:04:50Z</time>
      </trkpt>
      <trkpt lat="44.13743" lon="1.41335">
        <ele>30</ele>
        <time>2011-01-26T09:04:50Z</time>
      </trkpt>
      <trkpt lat="44.13744" lon="1.41334">
        <ele>30</ele>
        <time>2011-01-26T09:04:51Z</time>
      </trkpt>
      <trkpt lat="44.13746" lon="1.41332">
        <ele>30</ele>
        <time>2011-01-26T09:04:52Z</time>
      </trkpt>
      <trkpt lat="44.13747" lon="1.4133">
        <ele>30</ele>
        <time>2011-01-26T09:04:53Z</time>
      </trkpt>
      <trkpt lat="44.13749" lon="1.41328">
        <ele>30</ele>
        <time>2011-01-26T09:04:54Z</time>
      </trkpt>
      <trkpt lat="44.13751" lon="1.41326">
        <ele>30</ele>
        <time>2011-01-26T09:04:55Z</time>
      </trkpt>
      <trkpt lat="44.13753" lon="1.41324">
        <ele>30</ele>
        <time>2011-01-26T09:04:55Z</time>
      </trkpt>
      <trkpt lat="44.13754" lon="1.41322">
        <ele>30</ele>
        <time>2011-01-26T09:04:56Z</time>
      </trkpt>
      <trkpt lat="44.13755" lon="1.4132">
        <ele>30</ele>
        <time>2011-01-26T09:04:57Z</time>
      </trkpt>
      <trkpt lat="44.13757" lon="1.41318">
        <ele>30</ele>
        <time>2011-01-26T09:04:58Z</time>
      </trkpt>
      <trkpt lat="44.13757" lon="1.41317">
        <ele>30</ele>
        <time>2011-01-26T09:04:58Z</time>
      </trkpt>
      <trkpt lat="44.13759" lon="1.41314">
        <ele>30</ele>
        <time>2011-01-26T09:04:59Z</time>
      </trkpt>
      <trkpt lat="44.1376" lon="1.41312">
        <ele>30</ele>
        <time>2011-01-26T09:05:00Z</time>
      </trkpt>
      <trkpt lat="44.13762" lon="1.4131">
        <ele>30</ele>
        <time>2011-01-26T09:05:01Z</time>
      </trkpt>
      <trkpt lat="44.13764" lon="1.41309">
        <ele>30</ele>
        <time>2011-01-26T09:05:02Z</time>
      </trkpt>
      <trkpt lat="44.13765" lon="1.41307">
        <ele>30</ele>
        <time>2011-01-26T09:05:03Z</time>
      </trkpt>
      <trkpt lat="44.13767" lon="1.41305">
        <ele>30</ele>
        <time>2011-01-26T09:05:03Z</time>
      </trkpt>
      <trkpt lat="44.13769" lon="1.41304">
        <ele>30</ele>
        <time>2011-01-26T09:05:04Z</time>
      </trkpt>
      <trkpt lat="44.13771" lon="1.41303">
        <ele>30</ele>
        <time>2011-01-26T09:05:05Z</time>
      </trkpt>
      <trkpt lat="44.13772" lon="1.41301">
        <ele>30</ele>
        <time>2011-01-26T09:05:06Z</time>
      </trkpt>
      <trkpt lat="44.13774" lon="1.413">
        <ele>30</ele>
        <time>2011-01-26T09:05:07Z</time>
      </trkpt>
      <trkpt lat="44.13776" lon="1.41299">
        <ele>30</ele>
        <time>2011-01-26T09:05:07Z</time>
      </trkpt>
      <trkpt lat="44.13778" lon="1.41298">
        <ele>30</ele>
        <time>2011-01-26T09:05:08Z</time>
      </trkpt>
      <trkpt lat="44.1378" lon="1.41296">
        <ele>30</ele>
        <time>2011-01-26T09:05:09Z</time>
      </trkpt>
      <trkpt lat="44.13781" lon="1.41295">
        <ele>30</ele>
        <time>2011-01-26T09:05:10Z</time>
      </trkpt>
      <trkpt lat="44.13783" lon="1.41293">
        <ele>30</ele>
        <time>2011-01-26T09:05:11Z</time>
      </trkpt>
      <trkpt lat="44.13785" lon="1.41291">
        <ele>30</ele>
        <time>2011-01-26T09:05:12Z</time>
      </trkpt>
      <trkpt lat="44.13786" lon="1.4129">
        <ele>30</ele>
        <time>2011-01-26T09:05:12Z</time>
      </trkpt>
      <trkpt lat="44.13789" lon="1.41288">
        <ele>30</ele>
        <time>2011-01-26T09:05:13Z</time>
      </trkpt>
      <trkpt lat="44.1379" lon="1.41288">
        <ele>30</ele>
        <time>2011-01-26T09:05:14Z</time>
      </trkpt>
      <trkpt lat="44.13792" lon="1.41286">
        <ele>30</ele>
        <time>2011-01-26T09:05:15Z</time>
      </trkpt>
      <trkpt lat="44.13795" lon="1.41284">
        <ele>30</ele>
        <time>2011-01-26T09:05:16Z</time>
      </trkpt>
      <trkpt lat="44.13796" lon="1.41284">
        <ele>30</ele>
        <time>2011-01-26T09:05:17Z</time>
      </trkpt>
      <trkpt lat="44.13798" lon="1.41282">
        <ele>30</ele>
        <time>2011-01-26T09:05:18Z</time>
      </trkpt>
      <trkpt lat="44.13799" lon="1.41281">
        <ele>30</ele>
        <time>2011-01-26T09:05:18Z</time>
      </trkpt>
      <trkpt lat="44.138" lon="1.41281">
        <ele>30</ele>
        <time>2011-01-26T09:05:19Z</time>
      </trkpt>
      <trkpt lat="44.13802" lon="1.4128">
        <ele>30</ele>
        <time>2011-01-26T09:05:19Z</time>
      </trkpt>
      <trkpt lat="44.13803" lon="1.41278">
        <ele>30</ele>
        <time>2011-01-26T09:05:20Z</time>
      </trkpt>
      <trkpt lat="44.13805" lon="1.41277">
        <ele>30</ele>
        <time>2011-01-26T09:05:21Z</time>
      </trkpt>
      <trkpt lat="44.13807" lon="1.41275">
        <ele>30</ele>
        <time>2011-01-26T09:05:22Z</time>
      </trkpt>
      <trkpt lat="44.13809" lon="1.41274">
        <ele>30</ele>
        <time>2011-01-26T09:05:23Z</time>
      </trkpt>
      <trkpt lat="44.1381" lon="1.41273">
        <ele>30</ele>
        <time>2011-01-26T09:05:23Z</time>
      </trkpt>
      <trkpt lat="44.13812" lon="1.41272">
        <ele>30</ele>
        <time>2011-01-26T09:05:24Z</time>
      </trkpt>
      <trkpt lat="44.13814" lon="1.4127">
        <ele>30</ele>
        <time>2011-01-26T09:05:25Z</time>
      </trkpt>
      <trkpt lat="44.13816" lon="1.41269">
        <ele>30</ele>
        <time>2011-01-26T09:05:26Z</time>
      </trkpt>
      <trkpt lat="44.13818" lon="1.41268">
        <ele>30</ele>
        <time>2011-01-26T09:05:27Z</time>
      </trkpt>
      <trkpt lat="44.1382" lon="1.41266">
        <ele>30</ele>
        <time>2011-01-26T09:05:27Z</time>
      </trkpt>
      <trkpt lat="44.13821" lon="1.41264">
        <ele>30</ele>
        <time>2011-01-26T09:05:28Z</time>
      </trkpt>
      <trkpt lat="44.13822" lon="1.41262">
        <ele>30</ele>
        <time>2011-01-26T09:05:29Z</time>
      </trkpt>
      <trkpt lat="44.13824" lon="1.4126">
        <ele>30</ele>
        <time>2011-01-26T09:05:30Z</time>
      </trkpt>
      <trkpt lat="44.13825" lon="1.41257">
        <ele>30</ele>
        <time>2011-01-26T09:05:31Z</time>
      </trkpt>
      <trkpt lat="44.13827" lon="1.41255">
        <ele>30</ele>
        <time>2011-01-26T09:05:32Z</time>
      </trkpt>
      <trkpt lat="44.13828" lon="1.41252">
        <ele>30</ele>
        <time>2011-01-26T09:05:33Z</time>
      </trkpt>
      <trkpt lat="44.1383" lon="1.41249">
        <ele>30</ele>
        <time>2011-01-26T09:05:34Z</time>
      </trkpt>
      <trkpt lat="44.13832" lon="1.41247">
        <ele>30</ele>
        <time>2011-01-26T09:05:35Z</time>
      </trkpt>
      <trkpt lat="44.13834" lon="1.41245">
        <ele>30</ele>
        <time>2011-01-26T09:05:36Z</time>
      </trkpt>
      <trkpt lat="44.13835" lon="1.41244">
        <ele>30</ele>
        <time>2011-01-26T09:05:36Z</time>
      </trkpt>
      <trkpt lat="44.13836" lon="1.41243">
        <ele>30</ele>
        <time>2011-01-26T09:05:37Z</time>
      </trkpt>
      <trkpt lat="44.13838" lon="1.41243">
        <ele>30</ele>
        <time>2011-01-26T09:05:38Z</time>
      </trkpt>
      <trkpt lat="44.13839" lon="1.41244">
        <ele>30</ele>
        <time>2011-01-26T09:05:38Z</time>
      </trkpt>
      <trkpt lat="44.1384" lon="1.41245">
        <ele>30</ele>
        <time>2011-01-26T09:05:39Z</time>
      </trkpt>
      <trkpt lat="44.13841" lon="1.41247">
        <ele>30</ele>
        <time>2011-01-26T09:05:39Z</time>
      </trkpt>
      <trkpt lat="44.13842" lon="1.41248">
        <ele>30</ele>
        <time>2011-01-26T09:05:40Z</time>
      </trkpt>
      <trkpt lat="44.13843" lon="1.4125">
        <ele>30</ele>
        <time>2011-01-26T09:05:40Z</time>
      </trkpt>
      <trkpt lat="44.13844" lon="1.41252">
        <ele>30</ele>
        <time>2011-01-26T09:05:41Z</time>
      </trkpt>
      <trkpt lat="44.13844" lon="1.41254">
        <ele>30</ele>
        <time>2011-01-26T09:05:42Z</time>
      </trkpt>
      <trkpt lat="44.13845" lon="1.41256">
        <ele>30</ele>
        <time>2011-01-26T09:05:42Z</time>
      </trkpt>
      <trkpt lat="44.13846" lon="1.41257">
        <ele>30</ele>
        <time>2011-01-26T09:05:43Z</time>
      </trkpt>
      <trkpt lat="44.13846" lon="1.41259">
        <ele>30</ele>
        <time>2011-01-26T09:05:43Z</time>
      </trkpt>
      <trkpt lat="44.13848" lon="1.41259">
        <ele>30</ele>
        <time>2011-01-26T09:05:44Z</time>
      </trkpt>
      <trkpt lat="44.1385" lon="1.41259">
        <ele>30</ele>
        <time>2011-01-26T09:05:45Z</time>
      </trkpt>
      <trkpt lat="44.13853" lon="1.41259">
        <ele>30</ele>
        <time>2011-01-26T09:05:46Z</time>
      </trkpt>
      <trkpt lat="44.13855" lon="1.41258">
        <ele>30</ele>
        <time>2011-01-26T09:05:47Z</time>
      </trkpt>
      <trkpt lat="44.13857" lon="1.41258">
        <ele>30</ele>
        <time>2011-01-26T09:05:48Z</time>
      </trkpt>
      <trkpt lat="44.13859" lon="1.41257">
        <ele>30</ele>
        <time>2011-01-26T09:05:48Z</time>
      </trkpt>
      <trkpt lat="44.13861" lon="1.41257">
        <ele>30</ele>
        <time>2011-01-26T09:05:49Z</time>
      </trkpt>
      <trkpt lat="44.13863" lon="1.41255">
        <ele>30</ele>
        <time>2011-01-26T09:05:50Z</time>
      </trkpt>
      <trkpt lat="44.13865" lon="1.41255">
        <ele>30</ele>
        <time>2011-01-26T09:05:51Z</time>
      </trkpt>
      <trkpt lat="44.13867" lon="1.41254">
        <ele>30</ele>
        <time>2011-01-26T09:05:52Z</time>
      </trkpt>
      <trkpt lat="44.13868" lon="1.41253">
        <ele>30</ele>
        <time>2011-01-26T09:05:52Z</time>
      </trkpt>
      <trkpt lat="44.1387" lon="1.41252">
        <ele>30</ele>
        <time>2011-01-26T09:05:53Z</time>
      </trkpt>
      <trkpt lat="44.13872" lon="1.41251">
        <ele>30</ele>
        <time>2011-01-26T09:05:54Z</time>
      </trkpt>
      <trkpt lat="44.13874" lon="1.4125">
        <ele>30</ele>
        <time>2011-01-26T09:05:55Z</time>
      </trkpt>
      <trkpt lat="44.13876" lon="1.41249">
        <ele>30</ele>
        <time>2011-01-26T09:05:56Z</time>
      </trkpt>
      <trkpt lat="44.13877" lon="1.41248">
        <ele>30</ele>
        <time>2011-01-26T09:05:56Z</time>
      </trkpt>
      <trkpt lat="44.13879" lon="1.41247">
        <ele>30</ele>
        <time>2011-01-26T09:05:57Z</time>
      </trkpt>
      <trkpt lat="44.1388" lon="1.41247">
        <ele>30</ele>
        <time>2011-01-26T09:05:57Z</time>
      </trkpt>
      <trkpt lat="44.13882" lon="1.41248">
        <ele>30</ele>
        <time>2011-01-26T09:05:58Z</time>
      </trkpt>
      <trkpt lat="44.13883" lon="1.4125">
        <ele>30</ele>
        <time>2011-01-26T09:05:59Z</time>
      </trkpt>
      <trkpt lat="44.13884" lon="1.41252">
        <ele>30</ele>
        <time>2011-01-26T09:06:00Z</time>
      </trkpt>
      <trkpt lat="44.13884" lon="1.41255">
        <ele>30</ele>
        <time>2011-01-26T09:06:00Z</time>
      </trkpt>
      <trkpt lat="44.13885" lon="1.41257">
        <ele>30</ele>
        <time>2011-01-26T09:06:01Z</time>
      </trkpt>
      <trkpt lat="44.13887" lon="1.41259">
        <ele>30</ele>
        <time>2011-01-26T09:06:02Z</time>
      </trkpt>
      <trkpt lat="44.13888" lon="1.41262">
        <ele>30</ele>
        <time>2011-01-26T09:06:03Z</time>
      </trkpt>
      <trkpt lat="44.13889" lon="1.41264">
        <ele>30</ele>
        <time>2011-01-26T09:06:04Z</time>
      </trkpt>
      <trkpt lat="44.13889" lon="1.41267">
        <ele>30</ele>
        <time>2011-01-26T09:06:04Z</time>
      </trkpt>
      <trkpt lat="44.13891" lon="1.41269">
        <ele>30</ele>
        <time>2011-01-26T09:06:05Z</time>
      </trkpt>
      <trkpt lat="44.13892" lon="1.41271">
        <ele>30</ele>
        <time>2011-01-26T09:06:06Z</time>
      </trkpt>
      <trkpt lat="44.13893" lon="1.41274">
        <ele>30</ele>
        <time>2011-01-26T09:06:07Z</time>
      </trkpt>
      <trkpt lat="44.13895" lon="1.41276">
        <ele>30</ele>
        <time>2011-01-26T09:06:08Z</time>
      </trkpt>
      <trkpt lat="44.13896" lon="1.41278">
        <ele>30</ele>
        <time>2011-01-26T09:06:08Z</time>
      </trkpt>
      <trkpt lat="44.13897" lon="1.41279">
        <ele>30</ele>
        <time>2011-01-26T09:06:09Z</time>
      </trkpt>
      <trkpt lat="44.13898" lon="1.41281">
        <ele>30</ele>
        <time>2011-01-26T09:06:10Z</time>
      </trkpt>
      <trkpt lat="44.13899" lon="1.41283">
        <ele>30</ele>
        <time>2011-01-26T09:06:10Z</time>
      </trkpt>
      <trkpt lat="44.139" lon="1.41285">
        <ele>30</ele>
        <time>2011-01-26T09:06:11Z</time>
      </trkpt>
      <trkpt lat="44.13901" lon="1.41286">
        <ele>30</ele>
        <time>2011-01-26T09:06:12Z</time>
      </trkpt>
      <trkpt lat="44.13902" lon="1.41289">
        <ele>30</ele>
        <time>2011-01-26T09:06:12Z</time>
      </trkpt>
      <trkpt lat="44.13903" lon="1.41291">
        <ele>30</ele>
        <time>2011-01-26T09:06:13Z</time>
      </trkpt>
      <trkpt lat="44.13904" lon="1.41293">
        <ele>30</ele>
        <time>2011-01-26T09:06:14Z</time>
      </trkpt>
      <trkpt lat="44.13905" lon="1.41295">
        <ele>30</ele>
        <time>2011-01-26T09:06:15Z</time>
      </trkpt>
      <trkpt lat="44.13907" lon="1.41298">
        <ele>30</ele>
        <time>2011-01-26T09:06:16Z</time>
      </trkpt>
      <trkpt lat="44.13908" lon="1.413">
        <ele>30</ele>
        <time>2011-01-26T09:06:17Z</time>
      </trkpt>
      <trkpt lat="44.1391" lon="1.41303">
        <ele>30</ele>
        <time>2011-01-26T09:06:18Z</time>
      </trkpt>
      <trkpt lat="44.13911" lon="1.41305">
        <ele>30</ele>
        <time>2011-01-26T09:06:19Z</time>
      </trkpt>
      <trkpt lat="44.13913" lon="1.41308">
        <ele>30</ele>
        <time>2011-01-26T09:06:20Z</time>
      </trkpt>
      <trkpt lat="44.13915" lon="1.4131">
        <ele>30</ele>
        <time>2011-01-26T09:06:21Z</time>
      </trkpt>
      <trkpt lat="44.13916" lon="1.41312">
        <ele>30</ele>
        <time>2011-01-26T09:06:21Z</time>
      </trkpt>
      <trkpt lat="44.13918" lon="1.41315">
        <ele>30</ele>
        <time>2011-01-26T09:06:22Z</time>
      </trkpt>
      <trkpt lat="44.13919" lon="1.41317">
        <ele>30</ele>
        <time>2011-01-26T09:06:23Z</time>
      </trkpt>
      <trkpt lat="44.13921" lon="1.41319">
        <ele>30</ele>
        <time>2011-01-26T09:06:24Z</time>
      </trkpt>
      <trkpt lat="44.13923" lon="1.41322">
        <ele>30</ele>
        <time>2011-01-26T09:06:25Z</time>
      </trkpt>
      <trkpt lat="44.13924" lon="1.41325">
        <ele>30</ele>
        <time>2011-01-26T09:06:26Z</time>
      </trkpt>
      <trkpt lat="44.13926" lon="1.41327">
        <ele>30</ele>
        <time>2011-01-26T09:06:27Z</time>
      </trkpt>
      <trkpt lat="44.13927" lon="1.4133">
        <ele>30</ele>
        <time>2011-01-26T09:06:28Z</time>
      </trkpt>
      <trkpt lat="44.13929" lon="1.41332">
        <ele>30</ele>
        <time>2011-01-26T09:06:29Z</time>
      </trkpt>
      <trkpt lat="44.1393" lon="1.41334">
        <ele>30</ele>
        <time>2011-01-26T09:06:30Z</time>
      </trkpt>
      <trkpt lat="44.13932" lon="1.41337">
        <ele>30</ele>
        <time>2011-01-26T09:06:31Z</time>
      </trkpt>
      <trkpt lat="44.13934" lon="1.41339">
        <ele>30</ele>
        <time>2011-01-26T09:06:32Z</time>
      </trkpt>
      <trkpt lat="44.13935" lon="1.41341">
        <ele>30</ele>
        <time>2011-01-26T09:06:33Z</time>
      </trkpt>
      <trkpt lat="44.13937" lon="1.41344">
        <ele>30</ele>
        <time>2011-01-26T09:06:34Z</time>
      </trkpt>
      <trkpt lat="44.13938" lon="1.41346">
        <ele>30</ele>
        <time>2011-01-26T09:06:34Z</time>
      </trkpt>
      <trkpt lat="44.1394" lon="1.41349">
        <ele>30</ele>
        <time>2011-01-26T09:06:35Z</time>
      </trkpt>
      <trkpt lat="44.13941" lon="1.41351">
        <ele>30</ele>
        <time>2011-01-26T09:06:36Z</time>
      </trkpt>
      <trkpt lat="44.13943" lon="1.41354">
        <ele>30</ele>
        <time>2011-01-26T09:06:37Z</time>
      </trkpt>
      <trkpt lat="44.13945" lon="1.41358">
        <ele>30</ele>
        <time>2011-01-26T09:06:39Z</time>
      </trkpt>
      <trkpt lat="44.13947" lon="1.41361">
        <ele>30</ele>
        <time>2011-01-26T09:06:40Z</time>
      </trkpt>
      <trkpt lat="44.13949" lon="1.41365">
        <ele>30</ele>
        <time>2011-01-26T09:06:42Z</time>
      </trkpt>
      <trkpt lat="44.13952" lon="1.41368">
        <ele>30</ele>
        <time>2011-01-26T09:06:43Z</time>
      </trkpt>
      <trkpt lat="44.13954" lon="1.41372">
        <ele>30</ele>
        <time>2011-01-26T09:06:44Z</time>
      </trkpt>
      <trkpt lat="44.13956" lon="1.41375">
        <ele>30</ele>
        <time>2011-01-26T09:06:46Z</time>
      </trkpt>
      <trkpt lat="44.13958" lon="1.41379">
        <ele>30</ele>
        <time>2011-01-26T09:06:47Z</time>
      </trkpt>
      <trkpt lat="44.1396" lon="1.41382">
        <ele>30</ele>
        <time>2011-01-26T09:06:48Z</time>
      </trkpt>
      <trkpt lat="44.13962" lon="1.41385">
        <ele>30</ele>
        <time>2011-01-26T09:06:49Z</time>
      </trkpt>
      <trkpt lat="44.13964" lon="1.41388">
        <ele>30</ele>
        <time>2011-01-26T09:06:50Z</time>
      </trkpt>
      <trkpt lat="44.13966" lon="1.4139">
        <ele>30</ele>
        <time>2011-01-26T09:06:52Z</time>
      </trkpt>
      <trkpt lat="44.13969" lon="1.41393">
        <ele>30</ele>
        <time>2011-01-26T09:06:53Z</time>
      </trkpt>
      <trkpt lat="44.13971" lon="1.41396">
        <ele>30</ele>
        <time>2011-01-26T09:06:54Z</time>
      </trkpt>
      <trkpt lat="44.13972" lon="1.41399">
        <ele>30</ele>
        <time>2011-01-26T09:06:55Z</time>
      </trkpt>
      <trkpt lat="44.13974" lon="1.41402">
        <ele>30</ele>
        <time>2011-01-26T09:06:56Z</time>
      </trkpt>
      <trkpt lat="44.13976" lon="1.41405">
        <ele>30</ele>
        <time>2011-01-26T09:06:57Z</time>
      </trkpt>
      <trkpt lat="44.13977" lon="1.41407">
        <ele>30</ele>
        <time>2011-01-26T09:06:58Z</time>
      </trkpt>
      <trkpt lat="44.13979" lon="1.4141">
        <ele>30</ele>
        <time>2011-01-26T09:06:59Z</time>
      </trkpt>
      <trkpt lat="44.1398" lon="1.41414">
        <ele>30</ele>
        <time>2011-01-26T09:07:00Z</time>
      </trkpt>
      <trkpt lat="44.1398" lon="1.41417">
        <ele>30</ele>
        <time>2011-01-26T09:07:01Z</time>
      </trkpt>
      <trkpt lat="44.13979" lon="1.41419">
        <ele>30</ele>
        <time>2011-01-26T09:07:02Z</time>
      </trkpt>
      <trkpt lat="44.13979" lon="1.41421">
        <ele>30</ele>
        <time>2011-01-26T09:07:02Z</time>
      </trkpt>
      <trkpt lat="44.13977" lon="1.41422">
        <ele>30</ele>
        <time>2011-01-26T09:07:03Z</time>
      </trkpt>
      <trkpt lat="44.13977" lon="1.41424">
        <ele>30</ele>
        <time>2011-01-26T09:07:04Z</time>
      </trkpt>
      <trkpt lat="44.13977" lon="1.41426">
        <ele>30</ele>
        <time>2011-01-26T09:07:04Z</time>
      </trkpt>
      <trkpt lat="44.13976" lon="1.41428">
        <ele>30</ele>
        <time>2011-01-26T09:07:05Z</time>
      </trkpt>
      <trkpt lat="44.13976" lon="1.4143">
        <ele>30</ele>
        <time>2011-01-26T09:07:05Z</time>
      </trkpt>
      <trkpt lat="44.13975" lon="1.41433">
        <ele>30</ele>
        <time>2011-01-26T09:07:06Z</time>
      </trkpt>
      <trkpt lat="44.13975" lon="1.41436">
        <ele>30</ele>
        <time>2011-01-26T09:07:07Z</time>
      </trkpt>
      <trkpt lat="44.13975" lon="1.41438">
        <ele>30</ele>
        <time>2011-01-26T09:07:08Z</time>
      </trkpt>
      <trkpt lat="44.13974" lon="1.41439">
        <ele>30</ele>
        <time>2011-01-26T09:07:08Z</time>
      </trkpt>
      <trkpt lat="44.13974" lon="1.41441">
        <ele>30</ele>
        <time>2011-01-26T09:07:09Z</time>
      </trkpt>
      <trkpt lat="44.13973" lon="1.41443">
        <ele>30</ele>
        <time>2011-01-26T09:07:09Z</time>
      </trkpt>
      <trkpt lat="44.13973" lon="1.41446">
        <ele>30</ele>
        <time>2011-01-26T09:07:10Z</time>
      </trkpt>
      <trkpt lat="44.13973" lon="1.4145">
        <ele>30</ele>
        <time>2011-01-26T09:07:11Z</time>
      </trkpt>
      <trkpt lat="44.13973" lon="1.41453">
        <ele>30</ele>
        <time>2011-01-26T09:07:12Z</time>
      </trkpt>
      <trkpt lat="44.13973" lon="1.41456">
        <ele>30</ele>
        <time>2011-01-26T09:07:13Z</time>
      </trkpt>
      <trkpt lat="44.13973" lon="1.4146">
        <ele>30</ele>
        <time>2011-01-26T09:07:14Z</time>
      </trkpt>
      <trkpt lat="44.13973" lon="1.41463">
        <ele>30</ele>
        <time>2011-01-26T09:07:15Z</time>
      </trkpt>
      <trkpt lat="44.13973" lon="1.41467">
        <ele>30</ele>
        <time>2011-01-26T09:07:16Z</time>
      </trkpt>
      <trkpt lat="44.13973" lon="1.41471">
        <ele>30</ele>
        <time>2011-01-26T09:07:17Z</time>
      </trkpt>
      <trkpt lat="44.13973" lon="1.41474">
        <ele>30</ele>
        <time>2011-01-26T09:07:18Z</time>
      </trkpt>
      <trkpt lat="44.13972" lon="1.41478">
        <ele>30</ele>
        <time>2011-01-26T09:07:20Z</time>
      </trkpt>
      <trkpt lat="44.13972" lon="1.41481">
        <ele>30</ele>
        <time>2011-01-26T09:07:20Z</time>
      </trkpt>
      <trkpt lat="44.13971" lon="1.41484">
        <ele>30</ele>
        <time>2011-01-26T09:07:21Z</time>
      </trkpt>
      <trkpt lat="44.1397" lon="1.41488">
        <ele>30</ele>
        <time>2011-01-26T09:07:23Z</time>
      </trkpt>
      <trkpt lat="44.13969" lon="1.41492">
        <ele>30</ele>
        <time>2011-01-26T09:07:24Z</time>
      </trkpt>
      <trkpt lat="44.13969" lon="1.41495">
        <ele>30</ele>
        <time>2011-01-26T09:07:25Z</time>
      </trkpt>
      <trkpt lat="44.13968" lon="1.41499">
        <ele>30</ele>
        <time>2011-01-26T09:07:26Z</time>
      </trkpt>
      <trkpt lat="44.13968" lon="1.41502">
        <ele>30</ele>
        <time>2011-01-26T09:07:27Z</time>
      </trkpt>
      <trkpt lat="44.13967" lon="1.41506">
        <ele>30</ele>
        <time>2011-01-26T09:07:28Z</time>
      </trkpt>
      <trkpt lat="44.13966" lon="1.41508">
        <ele>30</ele>
        <time>2011-01-26T09:07:29Z</time>
      </trkpt>
      <trkpt lat="44.13965" lon="1.41511">
        <ele>30</ele>
        <time>2011-01-26T09:07:30Z</time>
      </trkpt>
      <trkpt lat="44.13964" lon="1.41515">
        <ele>30</ele>
        <time>2011-01-26T09:07:31Z</time>
      </trkpt>
      <trkpt lat="44.13964" lon="1.41518">
        <ele>30</ele>
        <time>2011-01-26T09:07:32Z</time>
      </trkpt>
      <trkpt lat="44.13963" lon="1.41522">
        <ele>30</ele>
        <time>2011-01-26T09:07:33Z</time>
      </trkpt>
      <trkpt lat="44.13963" lon="1.41525">
        <ele>30</ele>
        <time>2011-01-26T09:07:34Z</time>
      </trkpt>
      <trkpt lat="44.13962" lon="1.41528">
        <ele>30</ele>
        <time>2011-01-26T09:07:35Z</time>
      </trkpt>
      <trkpt lat="44.13962" lon="1.41531">
        <ele>30</ele>
        <time>2011-01-26T09:07:35Z</time>
      </trkpt>
      <trkpt lat="44.13962" lon="1.41534">
        <ele>30</ele>
        <time>2011-01-26T09:07:36Z</time>
      </trkpt>
      <trkpt lat="44.13962" lon="1.41537">
        <ele>30</ele>
        <time>2011-01-26T09:07:37Z</time>
      </trkpt>
      <trkpt lat="44.13961" lon="1.41541">
        <ele>30</ele>
        <time>2011-01-26T09:07:38Z</time>
      </trkpt>
      <trkpt lat="44.13961" lon="1.41544">
        <ele>30</ele>
        <time>2011-01-26T09:07:39Z</time>
      </trkpt>
      <trkpt lat="44.1396" lon="1.41547">
        <ele>30</ele>
        <time>2011-01-26T09:07:40Z</time>
      </trkpt>
      <trkpt lat="44.13959" lon="1.4155">
        <ele>30</ele>
        <time>2011-01-26T09:07:41Z</time>
      </trkpt>
      <trkpt lat="44.13959" lon="1.41553">
        <ele>30</ele>
        <time>2011-01-26T09:07:42Z</time>
      </trkpt>
      <trkpt lat="44.13958" lon="1.41557">
        <ele>30</ele>
        <time>2011-01-26T09:07:43Z</time>
      </trkpt>
      <trkpt lat="44.13959" lon="1.4156">
        <ele>30</ele>
        <time>2011-01-26T09:07:44Z</time>
      </trkpt>
      <trkpt lat="44.1396" lon="1.41563">
        <ele>30</ele>
        <time>2011-01-26T09:07:45Z</time>
      </trkpt>
      <trkpt lat="44.13961" lon="1.41564">
        <ele>30</ele>
        <time>2011-01-26T09:07:46Z</time>
      </trkpt>
      <trkpt lat="44.13963" lon="1.41564">
        <ele>30</ele>
        <time>2011-01-26T09:07:46Z</time>
      </trkpt>
      <trkpt lat="44.13966" lon="1.41564">
        <ele>30</ele>
        <time>2011-01-26T09:07:47Z</time>
      </trkpt>
      <trkpt lat="44.13968" lon="1.41563">
        <ele>30</ele>
        <time>2011-01-26T09:07:48Z</time>
      </trkpt>
      <trkpt lat="44.13971" lon="1.41563">
        <ele>30</ele>
        <time>2011-01-26T09:07:49Z</time>
      </trkpt>
      <trkpt lat="44.13973" lon="1.41562">
        <ele>30</ele>
        <time>2011-01-26T09:07:50Z</time>
      </trkpt>
      <trkpt lat="44.13976" lon="1.41561">
        <ele>30</ele>
        <time>2011-01-26T09:07:52Z</time>
      </trkpt>
      <trkpt lat="44.13979" lon="1.4156">
        <ele>30</ele>
        <time>2011-01-26T09:07:53Z</time>
      </trkpt>
      <trkpt lat="44.13981" lon="1.41558">
        <ele>30</ele>
        <time>2011-01-26T09:07:54Z</time>
      </trkpt>
      <trkpt lat="44.13983" lon="1.41557">
        <ele>30</ele>
        <time>2011-01-26T09:07:55Z</time>
      </trkpt>
      <trkpt lat="44.13985" lon="1.41555">
        <ele>30</ele>
        <time>2011-01-26T09:07:56Z</time>
      </trkpt>
      <trkpt lat="44.13987" lon="1.41554">
        <ele>30</ele>
        <time>2011-01-26T09:07:57Z</time>
      </trkpt>
      <trkpt lat="44.1399" lon="1.41552">
        <ele>30</ele>
        <time>2011-01-26T09:07:58Z</time>
      </trkpt>
      <trkpt lat="44.13992" lon="1.41551">
        <ele>30</ele>
        <time>2011-01-26T09:07:58Z</time>
      </trkpt>
      <trkpt lat="44.13994" lon="1.4155">
        <ele>30</ele>
        <time>2011-01-26T09:07:59Z</time>
      </trkpt>
      <trkpt lat="44.13996" lon="1.41549">
        <ele>30</ele>
        <time>2011-01-26T09:08:00Z</time>
      </trkpt>
      <trkpt lat="44.13999" lon="1.41547">
        <ele>30</ele>
        <time>2011-01-26T09:08:02Z</time>
      </trkpt>
      <trkpt lat="44.14001" lon="1.41546">
        <ele>30</ele>
        <time>2011-01-26T09:08:03Z</time>
      </trkpt>
      <trkpt lat="44.14003" lon="1.41545">
        <ele>30</ele>
        <time>2011-01-26T09:08:03Z</time>
      </trkpt>
      <trkpt lat="44.14005" lon="1.41544">
        <ele>30</ele>
        <time>2011-01-26T09:08:04Z</time>
      </trkpt>
      <trkpt lat="44.14007" lon="1.41543">
        <ele>30</ele>
        <time>2011-01-26T09:08:05Z</time>
      </trkpt>
      <trkpt lat="44.14008" lon="1.41542">
        <ele>30</ele>
        <time>2011-01-26T09:08:06Z</time>
      </trkpt>
      <trkpt lat="44.14009" lon="1.41542">
        <ele>30</ele>
        <time>2011-01-26T09:08:06Z</time>
      </trkpt>
      <trkpt lat="44.14011" lon="1.41543">
        <ele>30</ele>
        <time>2011-01-26T09:08:07Z</time>
      </trkpt>
      <trkpt lat="44.14011" lon="1.41544">
        <ele>30</ele>
        <time>2011-01-26T09:08:07Z</time>
      </trkpt>
      <trkpt lat="44.14011" lon="1.41546">
        <ele>30</ele>
        <time>2011-01-26T09:08:08Z</time>
      </trkpt>
      <trkpt lat="44.14011" lon="1.41548">
        <ele>30</ele>
        <time>2011-01-26T09:08:08Z</time>
      </trkpt>
      <trkpt lat="44.14012" lon="1.4155">
        <ele>30</ele>
        <time>2011-01-26T09:08:09Z</time>
      </trkpt>
      <trkpt lat="44.14013" lon="1.41551">
        <ele>30</ele>
        <time>2011-01-26T09:08:09Z</time>
      </trkpt>
      <trkpt lat="44.14014" lon="1.41554">
        <ele>30</ele>
        <time>2011-01-26T09:08:10Z</time>
      </trkpt>
      <trkpt lat="44.14015" lon="1.41555">
        <ele>30</ele>
        <time>2011-01-26T09:08:11Z</time>
      </trkpt>
      <trkpt lat="44.14017" lon="1.41556">
        <ele>30</ele>
        <time>2011-01-26T09:08:12Z</time>
      </trkpt>
      <trkpt lat="44.14018" lon="1.41557">
        <ele>30</ele>
        <time>2011-01-26T09:08:12Z</time>
      </trkpt>
      <trkpt lat="44.1402" lon="1.41556">
        <ele>30</ele>
        <time>2011-01-26T09:08:13Z</time>
      </trkpt>
      <trkpt lat="44.14021" lon="1.41558">
        <ele>30</ele>
        <time>2011-01-26T09:08:13Z</time>
      </trkpt>
      <trkpt lat="44.14022" lon="1.41559">
        <ele>30</ele>
        <time>2011-01-26T09:08:14Z</time>
      </trkpt>
      <trkpt lat="44.14024" lon="1.4156">
        <ele>30</ele>
        <time>2011-01-26T09:08:15Z</time>
      </trkpt>
      <trkpt lat="44.14026" lon="1.41561">
        <ele>30</ele>
        <time>2011-01-26T09:08:16Z</time>
      </trkpt>
      <trkpt lat="44.14027" lon="1.41562">
        <ele>30</ele>
        <time>2011-01-26T09:08:16Z</time>
      </trkpt>
      <trkpt lat="44.14029" lon="1.41563">
        <ele>30</ele>
        <time>2011-01-26T09:08:17Z</time>
      </trkpt>
      <trkpt lat="44.14031" lon="1.41565">
        <ele>30</ele>
        <time>2011-01-26T09:08:18Z</time>
      </trkpt>
      <trkpt lat="44.14032" lon="1.41565">
        <ele>30</ele>
        <time>2011-01-26T09:08:19Z</time>
      </trkpt>
      <trkpt lat="44.14034" lon="1.41566">
        <ele>30</ele>
        <time>2011-01-26T09:08:19Z</time>
      </trkpt>
      <trkpt lat="44.14036" lon="1.41567">
        <ele>30</ele>
        <time>2011-01-26T09:08:20Z</time>
      </trkpt>
      <trkpt lat="44.14037" lon="1.41567">
        <ele>30</ele>
        <time>2011-01-26T09:08:20Z</time>
      </trkpt>
      <trkpt lat="44.14039" lon="1.41568">
        <ele>30</ele>
        <time>2011-01-26T09:08:21Z</time>
      </trkpt>
      <trkpt lat="44.1404" lon="1.41569">
        <ele>30</ele>
        <time>2011-01-26T09:08:22Z</time>
      </trkpt>
      <trkpt lat="44.14042" lon="1.4157">
        <ele>30</ele>
        <time>2011-01-26T09:08:23Z</time>
      </trkpt>
      <trkpt lat="44.14044" lon="1.4157">
        <ele>30</ele>
        <time>2011-01-26T09:08:23Z</time>
      </trkpt>
      <trkpt lat="44.14046" lon="1.41571">
        <ele>30</ele>
        <time>2011-01-26T09:08:24Z</time>
      </trkpt>
      <trkpt lat="44.14048" lon="1.41572">
        <ele>30</ele>
        <time>2011-01-26T09:08:25Z</time>
      </trkpt>
      <trkpt lat="44.14049" lon="1.41572">
        <ele>30</ele>
        <time>2011-01-26T09:08:25Z</time>
      </trkpt>
      <trkpt lat="44.14051" lon="1.41573">
        <ele>30</ele>
        <time>2011-01-26T09:08:26Z</time>
      </trkpt>
      <trkpt lat="44.14053" lon="1.41573">
        <ele>30</ele>
        <time>2011-01-26T09:08:27Z</time>
      </trkpt>
      <trkpt lat="44.14056" lon="1.41573">
        <ele>30</ele>
        <time>2011-01-26T09:08:28Z</time>
      </trkpt>
      <trkpt lat="44.14059" lon="1.41573">
        <ele>30</ele>
        <time>2011-01-26T09:08:29Z</time>
      </trkpt>
      <trkpt lat="44.14061" lon="1.41573">
        <ele>30</ele>
        <time>2011-01-26T09:08:30Z</time>
      </trkpt>
      <trkpt lat="44.14064" lon="1.41573">
        <ele>30</ele>
        <time>2011-01-26T09:08:31Z</time>
      </trkpt>
      <trkpt lat="44.14067" lon="1.41574">
        <ele>30</ele>
        <time>2011-01-26T09:08:33Z</time>
      </trkpt>
      <trkpt lat="44.14069" lon="1.41574">
        <ele>30</ele>
        <time>2011-01-26T09:08:34Z</time>
      </trkpt>
      <trkpt lat="44.14072" lon="1.41574">
        <ele>30</ele>
        <time>2011-01-26T09:08:35Z</time>
      </trkpt>
      <trkpt lat="44.14074" lon="1.41574">
        <ele>30</ele>
        <time>2011-01-26T09:08:36Z</time>
      </trkpt>
      <trkpt lat="44.14077" lon="1.41574">
        <ele>30</ele>
        <time>2011-01-26T09:08:37Z</time>
      </trkpt>
      <trkpt lat="44.1408" lon="1.41574">
        <ele>30</ele>
        <time>2011-01-26T09:08:38Z</time>
      </trkpt>
      <trkpt lat="44.14082" lon="1.41574">
        <ele>30</ele>
        <time>2011-01-26T09:08:39Z</time>
      </trkpt>
      <trkpt lat="44.14085" lon="1.41574">
        <ele>30</ele>
        <time>2011-01-26T09:08:40Z</time>
      </trkpt>
      <trkpt lat="44.14088" lon="1.41574">
        <ele>30</ele>
        <time>2011-01-26T09:08:41Z</time>
      </trkpt>
      <trkpt lat="44.14091" lon="1.41574">
        <ele>30</ele>
        <time>2011-01-26T09:08:42Z</time>
      </trkpt>
      <trkpt lat="44.14094" lon="1.41575">
        <ele>30</ele>
        <time>2011-01-26T09:08:43Z</time>
      </trkpt>
      <trkpt lat="44.14096" lon="1.41575">
        <ele>30</ele>
        <time>2011-01-26T09:08:44Z</time>
      </trkpt>
      <trkpt lat="44.14099" lon="1.41575">
        <ele>30</ele>
        <time>2011-01-26T09:08:45Z</time>
      </trkpt>
      <trkpt lat="44.14101" lon="1.41575">
        <ele>30</ele>
        <time>2011-01-26T09:08:46Z</time>
      </trkpt>
      <trkpt lat="44.14104" lon="1.41576">
        <ele>30</ele>
        <time>2011-01-26T09:08:47Z</time>
      </trkpt>
      <trkpt lat="44.14106" lon="1.41576">
        <ele>30</ele>
        <time>2011-01-26T09:08:48Z</time>
      </trkpt>
      <trkpt lat="44.14109" lon="1.41576">
        <ele>30</ele>
        <time>2011-01-26T09:08:49Z</time>
      </trkpt>
      <trkpt lat="44.14111" lon="1.41576">
        <ele>30</ele>
        <time>2011-01-26T09:08:50Z</time>
      </trkpt>
      <trkpt lat="44.14113" lon="1.41576">
        <ele>30</ele>
        <time>2011-01-26T09:08:51Z</time>
      </trkpt>
      <trkpt lat="44.14116" lon="1.41576">
        <ele>30</ele>
        <time>2011-01-26T09:08:52Z</time>
      </trkpt>
      <trkpt lat="44.14118" lon="1.41577">
        <ele>30</ele>
        <time>2011-01-26T09:08:53Z</time>
      </trkpt>
      <trkpt lat="44.1412" lon="1.41577">
        <ele>30</ele>
        <time>2011-01-26T09:08:54Z</time>
      </trkpt>
      <trkpt lat="44.14122" lon="1.41579">
        <ele>30</ele>
        <time>2011-01-26T09:08:55Z</time>
      </trkpt>
      <trkpt lat="44.14124" lon="1.41581">
        <ele>30</ele>
        <time>2011-01-26T09:08:56Z</time>
      </trkpt>
      <trkpt lat="44.14125" lon="1.41584">
        <ele>30</ele>
        <time>2011-01-26T09:08:57Z</time>
      </trkpt>
      <trkpt lat="44.14125" lon="1.41588">
        <ele>30</ele>
        <time>2011-01-26T09:08:58Z</time>
      </trkpt>
      <trkpt lat="44.14125" lon="1.41591">
        <ele>30</ele>
        <time>2011-01-26T09:08:59Z</time>
      </trkpt>
      <trkpt lat="44.14124" lon="1.41593">
        <ele>30</ele>
        <time>2011-01-26T09:09:00Z</time>
      </trkpt>
      <trkpt lat="44.14122" lon="1.41595">
        <ele>30</ele>
        <time>2011-01-26T09:09:00Z</time>
      </trkpt>
      <trkpt lat="44.1412" lon="1.41596">
        <ele>30</ele>
        <time>2011-01-26T09:09:01Z</time>
      </trkpt>
      <trkpt lat="44.14118" lon="1.41597">
        <ele>30</ele>
        <time>2011-01-26T09:09:02Z</time>
      </trkpt>
      <trkpt lat="44.14116" lon="1.41599">
        <ele>30</ele>
        <time>2011-01-26T09:09:03Z</time>
      </trkpt>
      <trkpt lat="44.14114" lon="1.416">
        <ele>30</ele>
        <time>2011-01-26T09:09:04Z</time>
      </trkpt>
      <trkpt lat="44.14112" lon="1.41602">
        <ele>30</ele>
        <time>2011-01-26T09:09:05Z</time>
      </trkpt>
      <trkpt lat="44.14109" lon="1.41604">
        <ele>30</ele>
        <time>2011-01-26T09:09:06Z</time>
      </trkpt>
      <trkpt lat="44.14107" lon="1.41606">
        <ele>30</ele>
        <time>2011-01-26T09:09:07Z</time>
      </trkpt>
      <trkpt lat="44.14106" lon="1.41607">
        <ele>30</ele>
        <time>2011-01-26T09:09:08Z</time>
      </trkpt>
      <trkpt lat="44.14103" lon="1.41609">
        <ele>30</ele>
        <time>2011-01-26T09:09:09Z</time>
      </trkpt>
      <trkpt lat="44.14101" lon="1.41611">
        <ele>30</ele>
        <time>2011-01-26T09:09:10Z</time>
      </trkpt>
      <trkpt lat="44.141" lon="1.41613">
        <ele>30</ele>
        <time>2011-01-26T09:09:11Z</time>
      </trkpt>
      <trkpt lat="44.14098" lon="1.41615">
        <ele>30</ele>
        <time>2011-01-26T09:09:12Z</time>
      </trkpt>
      <trkpt lat="44.14096" lon="1.41616">
        <ele>30</ele>
        <time>2011-01-26T09:09:13Z</time>
      </trkpt>
      <trkpt lat="44.14094" lon="1.41618">
        <ele>30</ele>
        <time>2011-01-26T09:09:14Z</time>
      </trkpt>
      <trkpt lat="44.14092" lon="1.4162">
        <ele>30</ele>
        <time>2011-01-26T09:09:14Z</time>
      </trkpt>
      <trkpt lat="44.1409" lon="1.41622">
        <ele>30</ele>
        <time>2011-01-26T09:09:15Z</time>
      </trkpt>
      <trkpt lat="44.14089" lon="1.41623">
        <ele>30</ele>
        <time>2011-01-26T09:09:16Z</time>
      </trkpt>
      <trkpt lat="44.14087" lon="1.41625">
        <ele>30</ele>
        <time>2011-01-26T09:09:17Z</time>
      </trkpt>
      <trkpt lat="44.14085" lon="1.41627">
        <ele>30</ele>
        <time>2011-01-26T09:09:18Z</time>
      </trkpt>
      <trkpt lat="44.14083" lon="1.41629">
        <ele>30</ele>
        <time>2011-01-26T09:09:19Z</time>
      </trkpt>
      <trkpt lat="44.14081" lon="1.41631">
        <ele>30</ele>
        <time>2011-01-26T09:09:20Z</time>
      </trkpt>
      <trkpt lat="44.1408" lon="1.41633">
        <ele>30</ele>
        <time>2011-01-26T09:09:21Z</time>
      </trkpt>
      <trkpt lat="44.14077" lon="1.41635">
        <ele>30</ele>
        <time>2011-01-26T09:09:22Z</time>
      </trkpt>
      <trkpt lat="44.14075" lon="1.41637">
        <ele>30</ele>
        <time>2011-01-26T09:09:23Z</time>
      </trkpt>
      <trkpt lat="44.14073" lon="1.41639">
        <ele>30</ele>
        <time>2011-01-26T09:09:24Z</time>
      </trkpt>
      <trkpt lat="44.14071" lon="1.41641">
        <ele>30</ele>
        <time>2011-01-26T09:09:25Z</time>
      </trkpt>
      <trkpt lat="44.14069" lon="1.41643">
        <ele>30</ele>
        <time>2011-01-26T09:09:26Z</time>
      </trkpt>
      <trkpt lat="44.14068" lon="1.41645">
        <ele>30</ele>
        <time>2011-01-26T09:09:27Z</time>
      </trkpt>
      <trkpt lat="44.14066" lon="1.41646">
        <ele>30</ele>
        <time>2011-01-26T09:09:28Z</time>
      </trkpt>
      <trkpt lat="44.14064" lon="1.41648">
        <ele>30</ele>
        <time>2011-01-26T09:09:29Z</time>
      </trkpt>
      <trkpt lat="44.14062" lon="1.4165">
        <ele>30</ele>
        <time>2011-01-26T09:09:29Z</time>
      </trkpt>
      <trkpt lat="44.1406" lon="1.41652">
        <ele>30</ele>
        <time>2011-01-26T09:09:30Z</time>
      </trkpt>
      <trkpt lat="44.14058" lon="1.41654">
        <ele>30</ele>
        <time>2011-01-26T09:09:31Z</time>
      </trkpt>
      <trkpt lat="44.14056" lon="1.41655">
        <ele>30</ele>
        <time>2011-01-26T09:09:32Z</time>
      </trkpt>
      <trkpt lat="44.14054" lon="1.41657">
        <ele>30</ele>
        <time>2011-01-26T09:09:33Z</time>
      </trkpt>
      <trkpt lat="44.14052" lon="1.41659">
        <ele>30</ele>
        <time>2011-01-26T09:09:34Z</time>
      </trkpt>
      <trkpt lat="44.14051" lon="1.4166">
        <ele>30</ele>
        <time>2011-01-26T09:09:35Z</time>
      </trkpt>
      <trkpt lat="44.14049" lon="1.41662">
        <ele>30</ele>
        <time>2011-01-26T09:09:36Z</time>
      </trkpt>
      <trkpt lat="44.14047" lon="1.41664">
        <ele>30</ele>
        <time>2011-01-26T09:09:37Z</time>
      </trkpt>
      <trkpt lat="44.14045" lon="1.41666">
        <ele>30</ele>
        <time>2011-01-26T09:09:38Z</time>
      </trkpt>
      <trkpt lat="44.14043" lon="1.41668">
        <ele>30</ele>
        <time>2011-01-26T09:09:39Z</time>
      </trkpt>
      <trkpt lat="44.14041" lon="1.4167">
        <ele>30</ele>
        <time>2011-01-26T09:09:40Z</time>
      </trkpt>
      <trkpt lat="44.14039" lon="1.41672">
        <ele>30</ele>
        <time>2011-01-26T09:09:41Z</time>
      </trkpt>
      <trkpt lat="44.14037" lon="1.41674">
        <ele>30</ele>
        <time>2011-01-26T09:09:42Z</time>
      </trkpt>
      <trkpt lat="44.14035" lon="1.41676">
        <ele>30</ele>
        <time>2011-01-26T09:09:43Z</time>
      </trkpt>
      <trkpt lat="44.14033" lon="1.41678">
        <ele>30</ele>
        <time>2011-01-26T09:09:44Z</time>
      </trkpt>
      <trkpt lat="44.14031" lon="1.4168">
        <ele>30</ele>
        <time>2011-01-26T09:09:45Z</time>
      </trkpt>
      <trkpt lat="44.14029" lon="1.41683">
        <ele>30</ele>
        <time>2011-01-26T09:09:46Z</time>
      </trkpt>
      <trkpt lat="44.14027" lon="1.41685">
        <ele>30</ele>
        <time>2011-01-26T09:09:47Z</time>
      </trkpt>
      <trkpt lat="44.14025" lon="1.41687">
        <ele>30</ele>
        <time>2011-01-26T09:09:48Z</time>
      </trkpt>
      <trkpt lat="44.14023" lon="1.41689">
        <ele>30</ele>
        <time>2011-01-26T09:09:49Z</time>
      </trkpt>
      <trkpt lat="44.14021" lon="1.41691">
        <ele>30</ele>
        <time>2011-01-26T09:09:50Z</time>
      </trkpt>
      <trkpt lat="44.14019" lon="1.41693">
        <ele>30</ele>
        <time>2011-01-26T09:09:51Z</time>
      </trkpt>
      <trkpt lat="44.14017" lon="1.41695">
        <ele>30</ele>
        <time>2011-01-26T09:09:52Z</time>
      </trkpt>
      <trkpt lat="44.14015" lon="1.41697">
        <ele>30</ele>
        <time>2011-01-26T09:09:53Z</time>
      </trkpt>
      <trkpt lat="44.14013" lon="1.417">
        <ele>30</ele>
        <time>2011-01-26T09:09:54Z</time>
      </trkpt>
      <trkpt lat="44.14011" lon="1.41702">
        <ele>30</ele>
        <time>2011-01-26T09:09:55Z</time>
      </trkpt>
      <trkpt lat="44.14009" lon="1.41705">
        <ele>30</ele>
        <time>2011-01-26T09:09:56Z</time>
      </trkpt>
      <trkpt lat="44.14007" lon="1.41707">
        <ele>30</ele>
        <time>2011-01-26T09:09:57Z</time>
      </trkpt>
      <trkpt lat="44.14005" lon="1.41709">
        <ele>30</ele>
        <time>2011-01-26T09:09:58Z</time>
      </trkpt>
      <trkpt lat="44.14003" lon="1.41712">
        <ele>30</ele>
        <time>2011-01-26T09:09:59Z</time>
      </trkpt>
      <trkpt lat="44.14001" lon="1.41714">
        <ele>30</ele>
        <time>2011-01-26T09:10:00Z</time>
      </trkpt>
      <trkpt lat="44.14" lon="1.41717">
        <ele>30</ele>
        <time>2011-01-26T09:10:01Z</time>
      </trkpt>
      <trkpt lat="44.13998" lon="1.4172">
        <ele>30</ele>
        <time>2011-01-26T09:10:02Z</time>
      </trkpt>
      <trkpt lat="44.13996" lon="1.41723">
        <ele>30</ele>
        <time>2011-01-26T09:10:03Z</time>
      </trkpt>
      <trkpt lat="44.13994" lon="1.41725">
        <ele>30</ele>
        <time>2011-01-26T09:10:04Z</time>
      </trkpt>
      <trkpt lat="44.13992" lon="1.41728">
        <ele>30</ele>
        <time>2011-01-26T09:10:05Z</time>
      </trkpt>
      <trkpt lat="44.1399" lon="1.41731">
        <ele>30</ele>
        <time>2011-01-26T09:10:06Z</time>
      </trkpt>
      <trkpt lat="44.13989" lon="1.41733">
        <ele>30</ele>
        <time>2011-01-26T09:10:07Z</time>
      </trkpt>
      <trkpt lat="44.13987" lon="1.41736">
        <ele>30</ele>
        <time>2011-01-26T09:10:08Z</time>
      </trkpt>
      <trkpt lat="44.13985" lon="1.41738">
        <ele>30</ele>
        <time>2011-01-26T09:10:09Z</time>
      </trkpt>
      <trkpt lat="44.13984" lon="1.41741">
        <ele>30</ele>
        <time>2011-01-26T09:10:10Z</time>
      </trkpt>
      <trkpt lat="44.13982" lon="1.41744">
        <ele>30</ele>
        <time>2011-01-26T09:10:12Z</time>
      </trkpt>
      <trkpt lat="44.1398" lon="1.41746">
        <ele>30</ele>
        <time>2011-01-26T09:10:13Z</time>
      </trkpt>
      <trkpt lat="44.13979" lon="1.41749">
        <ele>30</ele>
        <time>2011-01-26T09:10:14Z</time>
      </trkpt>
      <trkpt lat="44.13977" lon="1.41752">
        <ele>30</ele>
        <time>2011-01-26T09:10:15Z</time>
      </trkpt>
      <trkpt lat="44.13975" lon="1.41754">
        <ele>30</ele>
        <time>2011-01-26T09:10:16Z</time>
      </trkpt>
      <trkpt lat="44.13973" lon="1.41757">
        <ele>30</ele>
        <time>2011-01-26T09:10:17Z</time>
      </trkpt>
      <trkpt lat="44.13972" lon="1.4176">
        <ele>30</ele>
        <time>2011-01-26T09:10:18Z</time>
      </trkpt>
      <trkpt lat="44.1397" lon="1.41762">
        <ele>30</ele>
        <time>2011-01-26T09:10:19Z</time>
      </trkpt>
      <trkpt lat="44.13968" lon="1.41765">
        <ele>30</ele>
        <time>2011-01-26T09:10:20Z</time>
      </trkpt>
      <trkpt lat="44.13966" lon="1.41767">
        <ele>30</ele>
        <time>2011-01-26T09:10:21Z</time>
      </trkpt>
      <trkpt lat="44.13965" lon="1.4177">
        <ele>30</ele>
        <time>2011-01-26T09:10:22Z</time>
      </trkpt>
      <trkpt lat="44.13963" lon="1.41772">
        <ele>30</ele>
        <time>2011-01-26T09:10:23Z</time>
      </trkpt>
      <trkpt lat="44.13962" lon="1.41774">
        <ele>30</ele>
        <time>2011-01-26T09:10:23Z</time>
      </trkpt>
      <trkpt lat="44.1396" lon="1.41777">
        <ele>30</ele>
        <time>2011-01-26T09:10:24Z</time>
      </trkpt>
      <trkpt lat="44.13959" lon="1.41779">
        <ele>30</ele>
        <time>2011-01-26T09:10:25Z</time>
      </trkpt>
      <trkpt lat="44.13958" lon="1.41781">
        <ele>30</ele>
        <time>2011-01-26T09:10:26Z</time>
      </trkpt>
      <trkpt lat="44.13956" lon="1.41783">
        <ele>30</ele>
        <time>2011-01-26T09:10:27Z</time>
      </trkpt>
      <trkpt lat="44.13955" lon="1.41785">
        <ele>30</ele>
        <time>2011-01-26T09:10:28Z</time>
      </trkpt>
      <trkpt lat="44.13953" lon="1.41788">
        <ele>30</ele>
        <time>2011-01-26T09:10:29Z</time>
      </trkpt>
      <trkpt lat="44.13952" lon="1.4179">
        <ele>30</ele>
        <time>2011-01-26T09:10:29Z</time>
      </trkpt>
      <trkpt lat="44.13951" lon="1.41792">
        <ele>30</ele>
        <time>2011-01-26T09:10:30Z</time>
      </trkpt>
      <trkpt lat="44.1395" lon="1.41794">
        <ele>30</ele>
        <time>2011-01-26T09:10:31Z</time>
      </trkpt>
      <trkpt lat="44.13948" lon="1.41797">
        <ele>30</ele>
        <time>2011-01-26T09:10:32Z</time>
      </trkpt>
      <trkpt lat="44.13947" lon="1.41799">
        <ele>30</ele>
        <time>2011-01-26T09:10:33Z</time>
      </trkpt>
      <trkpt lat="44.13946" lon="1.41801">
        <ele>30</ele>
        <time>2011-01-26T09:10:34Z</time>
      </trkpt>
      <trkpt lat="44.13945" lon="1.41803">
        <ele>30</ele>
        <time>2011-01-26T09:10:34Z</time>
      </trkpt>
      <trkpt lat="44.13943" lon="1.41806">
        <ele>30</ele>
        <time>2011-01-26T09:10:35Z</time>
      </trkpt>
      <trkpt lat="44.13942" lon="1.41808">
        <ele>30</ele>
        <time>2011-01-26T09:10:36Z</time>
      </trkpt>
      <trkpt lat="44.1394" lon="1.41811">
        <ele>30</ele>
        <time>2011-01-26T09:10:37Z</time>
      </trkpt>
      <trkpt lat="44.13939" lon="1.41813">
        <ele>30</ele>
        <time>2011-01-26T09:10:38Z</time>
      </trkpt>
      <trkpt lat="44.13938" lon="1.41816">
        <ele>30</ele>
        <time>2011-01-26T09:10:39Z</time>
      </trkpt>
      <trkpt lat="44.13937" lon="1.41818">
        <ele>30</ele>
        <time>2011-01-26T09:10:40Z</time>
      </trkpt>
      <trkpt lat="44.13935" lon="1.4182">
        <ele>30</ele>
        <time>2011-01-26T09:10:40Z</time>
      </trkpt>
      <trkpt lat="44.13934" lon="1.41823">
        <ele>30</ele>
        <time>2011-01-26T09:10:41Z</time>
      </trkpt>
      <trkpt lat="44.13933" lon="1.41825">
        <ele>30</ele>
        <time>2011-01-26T09:10:42Z</time>
      </trkpt>
      <trkpt lat="44.13932" lon="1.41828">
        <ele>30</ele>
        <time>2011-01-26T09:10:43Z</time>
      </trkpt>
      <trkpt lat="44.13931" lon="1.4183">
        <ele>30</ele>
        <time>2011-01-26T09:10:44Z</time>
      </trkpt>
      <trkpt lat="44.1393" lon="1.41833">
        <ele>30</ele>
        <time>2011-01-26T09:10:45Z</time>
      </trkpt>
      <trkpt lat="44.13929" lon="1.41836">
        <ele>30</ele>
        <time>2011-01-26T09:10:46Z</time>
      </trkpt>
      <trkpt lat="44.13928" lon="1.41839">
        <ele>30</ele>
        <time>2011-01-26T09:10:46Z</time>
      </trkpt>
      <trkpt lat="44.13927" lon="1.41841">
        <ele>30</ele>
        <time>2011-01-26T09:10:47Z</time>
      </trkpt>
      <trkpt lat="44.13926" lon="1.41844">
        <ele>30</ele>
        <time>2011-01-26T09:10:48Z</time>
      </trkpt>
      <trkpt lat="44.13924" lon="1.41847">
        <ele>30</ele>
        <time>2011-01-26T09:10:49Z</time>
      </trkpt>
      <trkpt lat="44.13923" lon="1.4185">
        <ele>30</ele>
        <time>2011-01-26T09:10:50Z</time>
      </trkpt>
      <trkpt lat="44.13922" lon="1.41853">
        <ele>30</ele>
        <time>2011-01-26T09:10:51Z</time>
      </trkpt>
      <trkpt lat="44.13921" lon="1.41856">
        <ele>30</ele>
        <time>2011-01-26T09:10:52Z</time>
      </trkpt>
      <trkpt lat="44.13919" lon="1.41859">
        <ele>30</ele>
        <time>2011-01-26T09:10:53Z</time>
      </trkpt>
      <trkpt lat="44.13919" lon="1.41862">
        <ele>30</ele>
        <time>2011-01-26T09:10:54Z</time>
      </trkpt>
      <trkpt lat="44.13917" lon="1.41865">
        <ele>30</ele>
        <time>2011-01-26T09:10:55Z</time>
      </trkpt>
      <trkpt lat="44.13916" lon="1.41868">
        <ele>30</ele>
        <time>2011-01-26T09:10:56Z</time>
      </trkpt>
      <trkpt lat="44.13915" lon="1.41871">
        <ele>30</ele>
        <time>2011-01-26T09:10:57Z</time>
      </trkpt>
      <trkpt lat="44.13913" lon="1.41875">
        <ele>30</ele>
        <time>2011-01-26T09:10:58Z</time>
      </trkpt>
      <trkpt lat="44.13912" lon="1.41878">
        <ele>30</ele>
        <time>2011-01-26T09:11:00Z</time>
      </trkpt>
      <trkpt lat="44.13911" lon="1.41881">
        <ele>30</ele>
        <time>2011-01-26T09:11:01Z</time>
      </trkpt>
      <trkpt lat="44.13909" lon="1.41884">
        <ele>30</ele>
        <time>2011-01-26T09:11:02Z</time>
      </trkpt>
      <trkpt lat="44.13908" lon="1.41887">
        <ele>30</ele>
        <time>2011-01-26T09:11:03Z</time>
      </trkpt>
      <trkpt lat="44.13906" lon="1.41889">
        <ele>30</ele>
        <time>2011-01-26T09:11:04Z</time>
      </trkpt>
      <trkpt lat="44.13905" lon="1.41892">
        <ele>30</ele>
        <time>2011-01-26T09:11:05Z</time>
      </trkpt>
      <trkpt lat="44.13903" lon="1.41895">
        <ele>30</ele>
        <time>2011-01-26T09:11:06Z</time>
      </trkpt>
      <trkpt lat="44.13902" lon="1.41898">
        <ele>30</ele>
        <time>2011-01-26T09:11:07Z</time>
      </trkpt>
      <trkpt lat="44.13901" lon="1.41902">
        <ele>30</ele>
        <time>2011-01-26T09:11:08Z</time>
      </trkpt>
      <trkpt lat="44.13899" lon="1.41905">
        <ele>30</ele>
        <time>2011-01-26T09:11:09Z</time>
      </trkpt>
      <trkpt lat="44.13898" lon="1.41908">
        <ele>30</ele>
        <time>2011-01-26T09:11:10Z</time>
      </trkpt>
      <trkpt lat="44.13896" lon="1.41912">
        <ele>30</ele>
        <time>2011-01-26T09:11:11Z</time>
      </trkpt>
      <trkpt lat="44.13895" lon="1.41915">
        <ele>30</ele>
        <time>2011-01-26T09:11:12Z</time>
      </trkpt>
      <trkpt lat="44.13893" lon="1.41919">
        <ele>30</ele>
        <time>2011-01-26T09:11:14Z</time>
      </trkpt>
      <trkpt lat="44.13891" lon="1.41922">
        <ele>30</ele>
        <time>2011-01-26T09:11:15Z</time>
      </trkpt>
      <trkpt lat="44.1389" lon="1.41925">
        <ele>30</ele>
        <time>2011-01-26T09:11:16Z</time>
      </trkpt>
      <trkpt lat="44.13888" lon="1.41929">
        <ele>30</ele>
        <time>2011-01-26T09:11:17Z</time>
      </trkpt>
      <trkpt lat="44.13887" lon="1.41932">
        <ele>30</ele>
        <time>2011-01-26T09:11:18Z</time>
      </trkpt>
      <trkpt lat="44.13885" lon="1.41935">
        <ele>30</ele>
        <time>2011-01-26T09:11:19Z</time>
      </trkpt>
      <trkpt lat="44.13883" lon="1.41939">
        <ele>30</ele>
        <time>2011-01-26T09:11:21Z</time>
      </trkpt>
      <trkpt lat="44.13881" lon="1.41942">
        <ele>30</ele>
        <time>2011-01-26T09:11:22Z</time>
      </trkpt>
      <trkpt lat="44.13879" lon="1.41945">
        <ele>30</ele>
        <time>2011-01-26T09:11:23Z</time>
      </trkpt>
      <trkpt lat="44.13877" lon="1.41948">
        <ele>30</ele>
        <time>2011-01-26T09:11:24Z</time>
      </trkpt>
      <trkpt lat="44.13876" lon="1.4195">
        <ele>30</ele>
        <time>2011-01-26T09:11:25Z</time>
      </trkpt>
      <trkpt lat="44.13874" lon="1.41953">
        <ele>30</ele>
        <time>2011-01-26T09:11:26Z</time>
      </trkpt>
      <trkpt lat="44.13872" lon="1.41956">
        <ele>30</ele>
        <time>2011-01-26T09:11:27Z</time>
      </trkpt>
      <trkpt lat="44.1387" lon="1.41958">
        <ele>30</ele>
        <time>2011-01-26T09:11:28Z</time>
      </trkpt>
      <trkpt lat="44.13868" lon="1.41961">
        <ele>30</ele>
        <time>2011-01-26T09:11:29Z</time>
      </trkpt>
      <trkpt lat="44.13866" lon="1.41964">
        <ele>30</ele>
        <time>2011-01-26T09:11:30Z</time>
      </trkpt>
      <trkpt lat="44.13865" lon="1.41967">
        <ele>30</ele>
        <time>2011-01-26T09:11:31Z</time>
      </trkpt>
      <trkpt lat="44.13864" lon="1.4197">
        <ele>30</ele>
        <time>2011-01-26T09:11:32Z</time>
      </trkpt>
      <trkpt lat="44.13864" lon="1.41973">
        <ele>30</ele>
        <time>2011-01-26T09:11:33Z</time>
      </trkpt>
      <trkpt lat="44.13864" lon="1.41977">
        <ele>30</ele>
        <time>2011-01-26T09:11:34Z</time>
      </trkpt>
      <trkpt lat="44.13864" lon="1.41981">
        <ele>30</ele>
        <time>2011-01-26T09:11:35Z</time>
      </trkpt>
      <trkpt lat="44.13866" lon="1.41984">
        <ele>30</ele>
        <time>2011-01-26T09:11:37Z</time>
      </trkpt>
      <trkpt lat="44.13866" lon="1.41988">
        <ele>30</ele>
        <time>2011-01-26T09:11:38Z</time>
      </trkpt>
      <trkpt lat="44.13868" lon="1.41992">
        <ele>30</ele>
        <time>2011-01-26T09:11:39Z</time>
      </trkpt>
      <trkpt lat="44.13868" lon="1.41995">
        <ele>30</ele>
        <time>2011-01-26T09:11:40Z</time>
      </trkpt>
      <trkpt lat="44.13868" lon="1.41998">
        <ele>30</ele>
        <time>2011-01-26T09:11:41Z</time>
      </trkpt>
      <trkpt lat="44.13868" lon="1.42002">
        <ele>30</ele>
        <time>2011-01-26T09:11:42Z</time>
      </trkpt>
      <trkpt lat="44.13869" lon="1.42005">
        <ele>30</ele>
        <time>2011-01-26T09:11:43Z</time>
      </trkpt>
      <trkpt lat="44.13869" lon="1.42009">
        <ele>30</ele>
        <time>2011-01-26T09:11:44Z</time>
      </trkpt>
      <trkpt lat="44.13868" lon="1.42013">
        <ele>30</ele>
        <time>2011-01-26T09:11:45Z</time>
      </trkpt>
      <trkpt lat="44.13868" lon="1.42016">
        <ele>30</ele>
        <time>2011-01-26T09:11:46Z</time>
      </trkpt>
      <trkpt lat="44.13868" lon="1.42019">
        <ele>30</ele>
        <time>2011-01-26T09:11:47Z</time>
      </trkpt>
      <trkpt lat="44.13868" lon="1.42022">
        <ele>30</ele>
        <time>2011-01-26T09:11:48Z</time>
      </trkpt>
      <trkpt lat="44.13868" lon="1.42025">
        <ele>30</ele>
        <time>2011-01-26T09:11:49Z</time>
      </trkpt>
      <trkpt lat="44.13868" lon="1.42028">
        <ele>30</ele>
        <time>2011-01-26T09:11:49Z</time>
      </trkpt>
      <trkpt lat="44.13868" lon="1.42031">
        <ele>30</ele>
        <time>2011-01-26T09:11:50Z</time>
      </trkpt>
      <trkpt lat="44.13868" lon="1.42034">
        <ele>30</ele>
        <time>2011-01-26T09:11:51Z</time>
      </trkpt>
      <trkpt lat="44.13868" lon="1.42037">
        <ele>30</ele>
        <time>2011-01-26T09:11:52Z</time>
      </trkpt>
      <trkpt lat="44.13868" lon="1.4204">
        <ele>30</ele>
        <time>2011-01-26T09:11:53Z</time>
      </trkpt>
      <trkpt lat="44.13868" lon="1.42044">
        <ele>30</ele>
        <time>2011-01-26T09:11:54Z</time>
      </trkpt>
      <trkpt lat="44.13868" lon="1.42047">
        <ele>30</ele>
        <time>2011-01-26T09:11:55Z</time>
      </trkpt>
      <trkpt lat="44.13868" lon="1.4205">
        <ele>30</ele>
        <time>2011-01-26T09:11:56Z</time>
      </trkpt>
      <trkpt lat="44.13868" lon="1.42053">
        <ele>30</ele>
        <time>2011-01-26T09:11:57Z</time>
      </trkpt>
      <trkpt lat="44.13869" lon="1.42056">
        <ele>30</ele>
        <time>2011-01-26T09:11:58Z</time>
      </trkpt>
      <trkpt lat="44.13869" lon="1.42059">
        <ele>30</ele>
        <time>2011-01-26T09:11:58Z</time>
      </trkpt>
      <trkpt lat="44.1387" lon="1.42061">
        <ele>30</ele>
        <time>2011-01-26T09:11:59Z</time>
      </trkpt>
      <trkpt lat="44.13871" lon="1.42064">
        <ele>30</ele>
        <time>2011-01-26T09:12:00Z</time>
      </trkpt>
      <trkpt lat="44.13872" lon="1.42066">
        <ele>30</ele>
        <time>2011-01-26T09:12:01Z</time>
      </trkpt>
      <trkpt lat="44.13874" lon="1.42068">
        <ele>30</ele>
        <time>2011-01-26T09:12:02Z</time>
      </trkpt>
      <trkpt lat="44.13875" lon="1.42071">
        <ele>30</ele>
        <time>2011-01-26T09:12:03Z</time>
      </trkpt>
      <trkpt lat="44.13876" lon="1.42073">
        <ele>30</ele>
        <time>2011-01-26T09:12:03Z</time>
      </trkpt>
      <trkpt lat="44.13878" lon="1.42076">
        <ele>30</ele>
        <time>2011-01-26T09:12:05Z</time>
      </trkpt>
      <trkpt lat="44.1388" lon="1.42078">
        <ele>30</ele>
        <time>2011-01-26T09:12:05Z</time>
      </trkpt>
      <trkpt lat="44.13881" lon="1.4208">
        <ele>30</ele>
        <time>2011-01-26T09:12:06Z</time>
      </trkpt>
      <trkpt lat="44.13883" lon="1.42083">
        <ele>30</ele>
        <time>2011-01-26T09:12:07Z</time>
      </trkpt>
      <trkpt lat="44.13884" lon="1.42085">
        <ele>30</ele>
        <time>2011-01-26T09:12:08Z</time>
      </trkpt>
      <trkpt lat="44.13886" lon="1.42087">
        <ele>30</ele>
        <time>2011-01-26T09:12:09Z</time>
      </trkpt>
      <trkpt lat="44.13888" lon="1.42089">
        <ele>30</ele>
        <time>2011-01-26T09:12:10Z</time>
      </trkpt>
      <trkpt lat="44.1389" lon="1.42092">
        <ele>30</ele>
        <time>2011-01-26T09:12:11Z</time>
      </trkpt>
      <trkpt lat="44.13892" lon="1.42094">
        <ele>30</ele>
        <time>2011-01-26T09:12:12Z</time>
      </trkpt>
      <trkpt lat="44.13894" lon="1.42096">
        <ele>30</ele>
        <time>2011-01-26T09:12:13Z</time>
      </trkpt>
      <trkpt lat="44.13895" lon="1.42099">
        <ele>30</ele>
        <time>2011-01-26T09:12:14Z</time>
      </trkpt>
      <trkpt lat="44.13897" lon="1.42101">
        <ele>30</ele>
        <time>2011-01-26T09:12:15Z</time>
      </trkpt>
      <trkpt lat="44.13898" lon="1.42103">
        <ele>30</ele>
        <time>2011-01-26T09:12:16Z</time>
      </trkpt>
      <trkpt lat="44.139" lon="1.42105">
        <ele>30</ele>
        <time>2011-01-26T09:12:17Z</time>
      </trkpt>
      <trkpt lat="44.13901" lon="1.42107">
        <ele>30</ele>
        <time>2011-01-26T09:12:17Z</time>
      </trkpt>
      <trkpt lat="44.13903" lon="1.42109">
        <ele>30</ele>
        <time>2011-01-26T09:12:18Z</time>
      </trkpt>
      <trkpt lat="44.13904" lon="1.42111">
        <ele>30</ele>
        <time>2011-01-26T09:12:19Z</time>
      </trkpt>
      <trkpt lat="44.13906" lon="1.42113">
        <ele>30</ele>
        <time>2011-01-26T09:12:20Z</time>
      </trkpt>
      <trkpt lat="44.13908" lon="1.42116">
        <ele>30</ele>
        <time>2011-01-26T09:12:21Z</time>
      </trkpt>
      <trkpt lat="44.13909" lon="1.42118">
        <ele>30</ele>
        <time>2011-01-26T09:12:22Z</time>
      </trkpt>
      <trkpt lat="44.13911" lon="1.4212">
        <ele>30</ele>
        <time>2011-01-26T09:12:23Z</time>
      </trkpt>
      <trkpt lat="44.13913" lon="1.42121">
        <ele>30</ele>
        <time>2011-01-26T09:12:24Z</time>
      </trkpt>
      <trkpt lat="44.13914" lon="1.42123">
        <ele>30</ele>
        <time>2011-01-26T09:12:25Z</time>
      </trkpt>
      <trkpt lat="44.13916" lon="1.42125">
        <ele>30</ele>
        <time>2011-01-26T09:12:25Z</time>
      </trkpt>
      <trkpt lat="44.13918" lon="1.42127">
        <ele>30</ele>
        <time>2011-01-26T09:12:26Z</time>
      </trkpt>
      <trkpt lat="44.13919" lon="1.42129">
        <ele>30</ele>
        <time>2011-01-26T09:12:27Z</time>
      </trkpt>
      <trkpt lat="44.13921" lon="1.42131">
        <ele>30</ele>
        <time>2011-01-26T09:12:28Z</time>
      </trkpt>
      <trkpt lat="44.13922" lon="1.42133">
        <ele>30</ele>
        <time>2011-01-26T09:12:29Z</time>
      </trkpt>
      <trkpt lat="44.13924" lon="1.42134">
        <ele>30</ele>
        <time>2011-01-26T09:12:29Z</time>
      </trkpt>
      <trkpt lat="44.13925" lon="1.42136">
        <ele>30</ele>
        <time>2011-01-26T09:12:30Z</time>
      </trkpt>
      <trkpt lat="44.13927" lon="1.42138">
        <ele>30</ele>
        <time>2011-01-26T09:12:31Z</time>
      </trkpt>
      <trkpt lat="44.13929" lon="1.42141">
        <ele>30</ele>
        <time>2011-01-26T09:12:32Z</time>
      </trkpt>
      <trkpt lat="44.1393" lon="1.42142">
        <ele>30</ele>
        <time>2011-01-26T09:12:33Z</time>
      </trkpt>
      <trkpt lat="44.13932" lon="1.42144">
        <ele>30</ele>
        <time>2011-01-26T09:12:34Z</time>
      </trkpt>
      <trkpt lat="44.13933" lon="1.42146">
        <ele>30</ele>
        <time>2011-01-26T09:12:34Z</time>
      </trkpt>
      <trkpt lat="44.13934" lon="1.42148">
        <ele>30</ele>
        <time>2011-01-26T09:12:35Z</time>
      </trkpt>
      <trkpt lat="44.13936" lon="1.4215">
        <ele>30</ele>
        <time>2011-01-26T09:12:36Z</time>
      </trkpt>
      <trkpt lat="44.13937" lon="1.42152">
        <ele>30</ele>
        <time>2011-01-26T09:12:37Z</time>
      </trkpt>
      <trkpt lat="44.13939" lon="1.42154">
        <ele>30</ele>
        <time>2011-01-26T09:12:38Z</time>
      </trkpt>
      <trkpt lat="44.1394" lon="1.42156">
        <ele>30</ele>
        <time>2011-01-26T09:12:38Z</time>
      </trkpt>
      <trkpt lat="44.13941" lon="1.42158">
        <ele>30</ele>
        <time>2011-01-26T09:12:39Z</time>
      </trkpt>
      <trkpt lat="44.13942" lon="1.4216">
        <ele>30</ele>
        <time>2011-01-26T09:12:40Z</time>
      </trkpt>
      <trkpt lat="44.13944" lon="1.42162">
        <ele>30</ele>
        <time>2011-01-26T09:12:41Z</time>
      </trkpt>
      <trkpt lat="44.13945" lon="1.42164">
        <ele>30</ele>
        <time>2011-01-26T09:12:42Z</time>
      </trkpt>
      <trkpt lat="44.13946" lon="1.42166">
        <ele>30</ele>
        <time>2011-01-26T09:12:42Z</time>
      </trkpt>
      <trkpt lat="44.13948" lon="1.42168">
        <ele>30</ele>
        <time>2011-01-26T09:12:43Z</time>
      </trkpt>
      <trkpt lat="44.13949" lon="1.4217">
        <ele>30</ele>
        <time>2011-01-26T09:12:44Z</time>
      </trkpt>
      <trkpt lat="44.1395" lon="1.42173">
        <ele>30</ele>
        <time>2011-01-26T09:12:45Z</time>
      </trkpt>
      <trkpt lat="44.1395" lon="1.42175">
        <ele>30</ele>
        <time>2011-01-26T09:12:45Z</time>
      </trkpt>
      <trkpt lat="44.13951" lon="1.42177">
        <ele>30</ele>
        <time>2011-01-26T09:12:46Z</time>
      </trkpt>
      <trkpt lat="44.13952" lon="1.4218">
        <ele>30</ele>
        <time>2011-01-26T09:12:47Z</time>
      </trkpt>
      <trkpt lat="44.13953" lon="1.42182">
        <ele>30</ele>
        <time>2011-01-26T09:12:48Z</time>
      </trkpt>
      <trkpt lat="44.13955" lon="1.42184">
        <ele>30</ele>
        <time>2011-01-26T09:12:49Z</time>
      </trkpt>
      <trkpt lat="44.13955" lon="1.42187">
        <ele>30</ele>
        <time>2011-01-26T09:12:49Z</time>
      </trkpt>
      <trkpt lat="44.13956" lon="1.42189">
        <ele>30</ele>
        <time>2011-01-26T09:12:50Z</time>
      </trkpt>
      <trkpt lat="44.13957" lon="1.42191">
        <ele>30</ele>
        <time>2011-01-26T09:12:51Z</time>
      </trkpt>
      <trkpt lat="44.13958" lon="1.42194">
        <ele>30</ele>
        <time>2011-01-26T09:12:52Z</time>
      </trkpt>
      <trkpt lat="44.13959" lon="1.42196">
        <ele>30</ele>
        <time>2011-01-26T09:12:52Z</time>
      </trkpt>
      <trkpt lat="44.1396" lon="1.42198">
        <ele>30</ele>
        <time>2011-01-26T09:12:53Z</time>
      </trkpt>
      <trkpt lat="44.13961" lon="1.422">
        <ele>30</ele>
        <time>2011-01-26T09:12:54Z</time>
      </trkpt>
      <trkpt lat="44.13962" lon="1.42202">
        <ele>30</ele>
        <time>2011-01-26T09:12:54Z</time>
      </trkpt>
      <trkpt lat="44.13963" lon="1.42204">
        <ele>30</ele>
        <time>2011-01-26T09:12:55Z</time>
      </trkpt>
      <trkpt lat="44.13963" lon="1.42207">
        <ele>30</ele>
        <time>2011-01-26T09:12:56Z</time>
      </trkpt>
      <trkpt lat="44.13964" lon="1.42209">
        <ele>30</ele>
        <time>2011-01-26T09:12:57Z</time>
      </trkpt>
      <trkpt lat="44.13964" lon="1.4221">
        <ele>30</ele>
        <time>2011-01-26T09:12:57Z</time>
      </trkpt>
      <trkpt lat="44.13965" lon="1.42212">
        <ele>30</ele>
        <time>2011-01-26T09:12:57Z</time>
      </trkpt>
      <trkpt lat="44.13966" lon="1.42213">
        <ele>30</ele>
        <time>2011-01-26T09:12:58Z</time>
      </trkpt>
      <trkpt lat="44.13967" lon="1.42216">
        <ele>30</ele>
        <time>2011-01-26T09:12:59Z</time>
      </trkpt>
      <trkpt lat="44.13968" lon="1.42217">
        <ele>30</ele>
        <time>2011-01-26T09:13:00Z</time>
      </trkpt>
      <trkpt lat="44.13969" lon="1.42219">
        <ele>30</ele>
        <time>2011-01-26T09:13:00Z</time>
      </trkpt>
      <trkpt lat="44.13971" lon="1.42221">
        <ele>30</ele>
        <time>2011-01-26T09:13:01Z</time>
      </trkpt>
      <trkpt lat="44.13972" lon="1.42222">
        <ele>30</ele>
        <time>2011-01-26T09:13:02Z</time>
      </trkpt>
      <trkpt lat="44.13974" lon="1.42221">
        <ele>30</ele>
        <time>2011-01-26T09:13:03Z</time>
      </trkpt>
      <trkpt lat="44.13976" lon="1.42221">
        <ele>30</ele>
        <time>2011-01-26T09:13:03Z</time>
      </trkpt>
      <trkpt lat="44.13979" lon="1.42221">
        <ele>30</ele>
        <time>2011-01-26T09:13:04Z</time>
      </trkpt>
      <trkpt lat="44.1398" lon="1.4222">
        <ele>30</ele>
        <time>2011-01-26T09:13:05Z</time>
      </trkpt>
      <trkpt lat="44.13982" lon="1.4222">
        <ele>30</ele>
        <time>2011-01-26T09:13:06Z</time>
      </trkpt>
      <trkpt lat="44.13983" lon="1.4222">
        <ele>30</ele>
        <time>2011-01-26T09:13:06Z</time>
      </trkpt>
      <trkpt lat="44.13985" lon="1.4222">
        <ele>30</ele>
        <time>2011-01-26T09:13:07Z</time>
      </trkpt>
      <trkpt lat="44.13986" lon="1.4222">
        <ele>30</ele>
        <time>2011-01-26T09:13:07Z</time>
      </trkpt>
      <trkpt lat="44.13987" lon="1.4222">
        <ele>30</ele>
        <time>2011-01-26T09:13:08Z</time>
      </trkpt>
      <trkpt lat="44.13989" lon="1.42219">
        <ele>30</ele>
        <time>2011-01-26T09:13:09Z</time>
      </trkpt>
      <trkpt lat="44.1399" lon="1.42219">
        <ele>30</ele>
        <time>2011-01-26T09:13:09Z</time>
      </trkpt>
      <trkpt lat="44.13992" lon="1.42219">
        <ele>30</ele>
        <time>2011-01-26T09:13:10Z</time>
      </trkpt>
      <trkpt lat="44.1399" lon="1.42218">
        <ele>30</ele>
        <time>2011-01-26T09:13:10Z</time>
      </trkpt>
      <trkpt lat="44.13992" lon="1.42218">
        <ele>30</ele>
        <time>2011-01-26T09:13:11Z</time>
      </trkpt>
      <trkpt lat="44.13993" lon="1.42218">
        <ele>30</ele>
        <time>2011-01-26T09:13:11Z</time>
      </trkpt>
      <trkpt lat="44.13995" lon="1.42217">
        <ele>30</ele>
        <time>2011-01-26T09:13:12Z</time>
      </trkpt>
      <trkpt lat="44.13997" lon="1.42216">
        <ele>30</ele>
        <time>2011-01-26T09:13:13Z</time>
      </trkpt>
      <trkpt lat="44.13998" lon="1.42216">
        <ele>30</ele>
        <time>2011-01-26T09:13:13Z</time>
      </trkpt>
      <trkpt lat="44.14" lon="1.42215">
        <ele>30</ele>
        <time>2011-01-26T09:13:14Z</time>
      </trkpt>
      <trkpt lat="44.14002" lon="1.42213">
        <ele>30</ele>
        <time>2011-01-26T09:13:15Z</time>
      </trkpt>
      <trkpt lat="44.14003" lon="1.42213">
        <ele>30</ele>
        <time>2011-01-26T09:13:16Z</time>
      </trkpt>
      <trkpt lat="44.14006" lon="1.42211">
        <ele>30</ele>
        <time>2011-01-26T09:13:17Z</time>
      </trkpt>
      <trkpt lat="44.14007" lon="1.4221">
        <ele>30</ele>
        <time>2011-01-26T09:13:17Z</time>
      </trkpt>
      <trkpt lat="44.14009" lon="1.42208">
        <ele>30</ele>
        <time>2011-01-26T09:13:18Z</time>
      </trkpt>
      <trkpt lat="44.14011" lon="1.42206">
        <ele>30</ele>
        <time>2011-01-26T09:13:19Z</time>
      </trkpt>
      <trkpt lat="44.14013" lon="1.42203">
        <ele>30</ele>
        <time>2011-01-26T09:13:20Z</time>
      </trkpt>
      <trkpt lat="44.14014" lon="1.42201">
        <ele>30</ele>
        <time>2011-01-26T09:13:21Z</time>
      </trkpt>
      <trkpt lat="44.14015" lon="1.42199">
        <ele>30</ele>
        <time>2011-01-26T09:13:22Z</time>
      </trkpt>
      <trkpt lat="44.14016" lon="1.42197">
        <ele>30</ele>
        <time>2011-01-26T09:13:22Z</time>
      </trkpt>
      <trkpt lat="44.14017" lon="1.42194">
        <ele>30</ele>
        <time>2011-01-26T09:13:23Z</time>
      </trkpt>
      <trkpt lat="44.14017" lon="1.42191">
        <ele>30</ele>
        <time>2011-01-26T09:13:24Z</time>
      </trkpt>
      <trkpt lat="44.14017" lon="1.42187">
        <ele>30</ele>
        <time>2011-01-26T09:13:25Z</time>
      </trkpt>
      <trkpt lat="44.14017" lon="1.42184">
        <ele>30</ele>
        <time>2011-01-26T09:13:26Z</time>
      </trkpt>
      <trkpt lat="44.14018" lon="1.42181">
        <ele>30</ele>
        <time>2011-01-26T09:13:27Z</time>
      </trkpt>
      <trkpt lat="44.14018" lon="1.42178">
        <ele>30</ele>
        <time>2011-01-26T09:13:28Z</time>
      </trkpt>
      <trkpt lat="44.14018" lon="1.42175">
        <ele>30</ele>
        <time>2011-01-26T09:13:29Z</time>
      </trkpt>
      <trkpt lat="44.14018" lon="1.42172">
        <ele>30</ele>
        <time>2011-01-26T09:13:30Z</time>
      </trkpt>
      <trkpt lat="44.14018" lon="1.42169">
        <ele>30</ele>
        <time>2011-01-26T09:13:31Z</time>
      </trkpt>
      <trkpt lat="44.14018" lon="1.42165">
        <ele>30</ele>
        <time>2011-01-26T09:13:32Z</time>
      </trkpt>
      <trkpt lat="44.14018" lon="1.42162">
        <ele>30</ele>
        <time>2011-01-26T09:13:32Z</time>
      </trkpt>
      <trkpt lat="44.14019" lon="1.42159">
        <ele>30</ele>
        <time>2011-01-26T09:13:33Z</time>
      </trkpt>
      <trkpt lat="44.14019" lon="1.42157">
        <ele>30</ele>
        <time>2011-01-26T09:13:34Z</time>
      </trkpt>
      <trkpt lat="44.14019" lon="1.42154">
        <ele>30</ele>
        <time>2011-01-26T09:13:35Z</time>
      </trkpt>
      <trkpt lat="44.1402" lon="1.42151">
        <ele>30</ele>
        <time>2011-01-26T09:13:36Z</time>
      </trkpt>
      <trkpt lat="44.14021" lon="1.42148">
        <ele>30</ele>
        <time>2011-01-26T09:13:37Z</time>
      </trkpt>
      <trkpt lat="44.14022" lon="1.42145">
        <ele>30</ele>
        <time>2011-01-26T09:13:38Z</time>
      </trkpt>
      <trkpt lat="44.14023" lon="1.42143">
        <ele>30</ele>
        <time>2011-01-26T09:13:39Z</time>
      </trkpt>
      <trkpt lat="44.14024" lon="1.4214">
        <ele>30</ele>
        <time>2011-01-26T09:13:39Z</time>
      </trkpt>
      <trkpt lat="44.14026" lon="1.42138">
        <ele>30</ele>
        <time>2011-01-26T09:13:40Z</time>
      </trkpt>
      <trkpt lat="44.14028" lon="1.42137">
        <ele>30</ele>
        <time>2011-01-26T09:13:41Z</time>
      </trkpt>
      <trkpt lat="44.1403" lon="1.42136">
        <ele>30</ele>
        <time>2011-01-26T09:13:42Z</time>
      </trkpt>
      <trkpt lat="44.14032" lon="1.42134">
        <ele>30</ele>
        <time>2011-01-26T09:13:43Z</time>
      </trkpt>
      <trkpt lat="44.14034" lon="1.42132">
        <ele>30</ele>
        <time>2011-01-26T09:13:44Z</time>
      </trkpt>
      <trkpt lat="44.14036" lon="1.42131">
        <ele>30</ele>
        <time>2011-01-26T09:13:45Z</time>
      </trkpt>
      <trkpt lat="44.14038" lon="1.4213">
        <ele>30</ele>
        <time>2011-01-26T09:13:46Z</time>
      </trkpt>
      <trkpt lat="44.1404" lon="1.42129">
        <ele>30</ele>
        <time>2011-01-26T09:13:46Z</time>
      </trkpt>
      <trkpt lat="44.14042" lon="1.42128">
        <ele>30</ele>
        <time>2011-01-26T09:13:47Z</time>
      </trkpt>
      <trkpt lat="44.14044" lon="1.42127">
        <ele>30</ele>
        <time>2011-01-26T09:13:48Z</time>
      </trkpt>
      <trkpt lat="44.14046" lon="1.42127">
        <ele>30</ele>
        <time>2011-01-26T09:13:49Z</time>
      </trkpt>
      <trkpt lat="44.14048" lon="1.42127">
        <ele>30</ele>
        <time>2011-01-26T09:13:50Z</time>
      </trkpt>
      <trkpt lat="44.1405" lon="1.42127">
        <ele>30</ele>
        <time>2011-01-26T09:13:51Z</time>
      </trkpt>
      <trkpt lat="44.14052" lon="1.42127">
        <ele>30</ele>
        <time>2011-01-26T09:13:51Z</time>
      </trkpt>
      <trkpt lat="44.14054" lon="1.42128">
        <ele>30</ele>
        <time>2011-01-26T09:13:52Z</time>
      </trkpt>
      <trkpt lat="44.14056" lon="1.42129">
        <ele>30</ele>
        <time>2011-01-26T09:13:53Z</time>
      </trkpt>
      <trkpt lat="44.14059" lon="1.42129">
        <ele>30</ele>
        <time>2011-01-26T09:13:54Z</time>
      </trkpt>
      <trkpt lat="44.14061" lon="1.42131">
        <ele>30</ele>
        <time>2011-01-26T09:13:55Z</time>
      </trkpt>
      <trkpt lat="44.14063" lon="1.42132">
        <ele>30</ele>
        <time>2011-01-26T09:13:56Z</time>
      </trkpt>
      <trkpt lat="44.14065" lon="1.42133">
        <ele>30</ele>
        <time>2011-01-26T09:13:57Z</time>
      </trkpt>
      <trkpt lat="44.14066" lon="1.42135">
        <ele>30</ele>
        <time>2011-01-26T09:13:58Z</time>
      </trkpt>
      <trkpt lat="44.14068" lon="1.42136">
        <ele>30</ele>
        <time>2011-01-26T09:13:58Z</time>
      </trkpt>
      <trkpt lat="44.14069" lon="1.42138">
        <ele>30</ele>
        <time>2011-01-26T09:13:59Z</time>
      </trkpt>
      <trkpt lat="44.14071" lon="1.42139">
        <ele>30</ele>
        <time>2011-01-26T09:14:00Z</time>
      </trkpt>
      <trkpt lat="44.14073" lon="1.4214">
        <ele>30</ele>
        <time>2011-01-26T09:14:01Z</time>
      </trkpt>
      <trkpt lat="44.14075" lon="1.42142">
        <ele>30</ele>
        <time>2011-01-26T09:14:02Z</time>
      </trkpt>
      <trkpt lat="44.14076" lon="1.42143">
        <ele>30</ele>
        <time>2011-01-26T09:14:02Z</time>
      </trkpt>
      <trkpt lat="44.14077" lon="1.42144">
        <ele>30</ele>
        <time>2011-01-26T09:14:03Z</time>
      </trkpt>
      <trkpt lat="44.14079" lon="1.42146">
        <ele>30</ele>
        <time>2011-01-26T09:14:04Z</time>
      </trkpt>
      <trkpt lat="44.14081" lon="1.42147">
        <ele>30</ele>
        <time>2011-01-26T09:14:05Z</time>
      </trkpt>
      <trkpt lat="44.14083" lon="1.42148">
        <ele>30</ele>
        <time>2011-01-26T09:14:06Z</time>
      </trkpt>
      <trkpt lat="44.14086" lon="1.4215">
        <ele>30</ele>
        <time>2011-01-26T09:14:07Z</time>
      </trkpt>
      <trkpt lat="44.14088" lon="1.4215">
        <ele>30</ele>
        <time>2011-01-26T09:14:07Z</time>
      </trkpt>
      <trkpt lat="44.1409" lon="1.4215">
        <ele>30</ele>
        <time>2011-01-26T09:14:08Z</time>
      </trkpt>
      <trkpt lat="44.14092" lon="1.42151">
        <ele>30</ele>
        <time>2011-01-26T09:14:09Z</time>
      </trkpt>
      <trkpt lat="44.14094" lon="1.42152">
        <ele>30</ele>
        <time>2011-01-26T09:14:10Z</time>
      </trkpt>
      <trkpt lat="44.14096" lon="1.42153">
        <ele>30</ele>
        <time>2011-01-26T09:14:11Z</time>
      </trkpt>
      <trkpt lat="44.14098" lon="1.42153">
        <ele>30</ele>
        <time>2011-01-26T09:14:12Z</time>
      </trkpt>
      <trkpt lat="44.14101" lon="1.42154">
        <ele>30</ele>
        <time>2011-01-26T09:14:13Z</time>
      </trkpt>
      <trkpt lat="44.14103" lon="1.42155">
        <ele>30</ele>
        <time>2011-01-26T09:14:14Z</time>
      </trkpt>
      <trkpt lat="44.14105" lon="1.42155">
        <ele>30</ele>
        <time>2011-01-26T09:14:15Z</time>
      </trkpt>
      <trkpt lat="44.14108" lon="1.42156">
        <ele>30</ele>
        <time>2011-01-26T09:14:16Z</time>
      </trkpt>
      <trkpt lat="44.1411" lon="1.42156">
        <ele>30</ele>
        <time>2011-01-26T09:14:16Z</time>
      </trkpt>
      <trkpt lat="44.14112" lon="1.42156">
        <ele>30</ele>
        <time>2011-01-26T09:14:17Z</time>
      </trkpt>
      <trkpt lat="44.14114" lon="1.42156">
        <ele>30</ele>
        <time>2011-01-26T09:14:18Z</time>
      </trkpt>
      <trkpt lat="44.14116" lon="1.42156">
        <ele>30</ele>
        <time>2011-01-26T09:14:19Z</time>
      </trkpt>
      <trkpt lat="44.14118" lon="1.42157">
        <ele>30</ele>
        <time>2011-01-26T09:14:20Z</time>
      </trkpt>
      <trkpt lat="44.1412" lon="1.42157">
        <ele>30</ele>
        <time>2011-01-26T09:14:21Z</time>
      </trkpt>
      <trkpt lat="44.14123" lon="1.42157">
        <ele>30</ele>
        <time>2011-01-26T09:14:22Z</time>
      </trkpt>
      <trkpt lat="44.14125" lon="1.42157">
        <ele>30</ele>
        <time>2011-01-26T09:14:22Z</time>
      </trkpt>
      <trkpt lat="44.14127" lon="1.42157">
        <ele>30</ele>
        <time>2011-01-26T09:14:23Z</time>
      </trkpt>
      <trkpt lat="44.14129" lon="1.42157">
        <ele>30</ele>
        <time>2011-01-26T09:14:24Z</time>
      </trkpt>
      <trkpt lat="44.14131" lon="1.42157">
        <ele>30</ele>
        <time>2011-01-26T09:14:25Z</time>
      </trkpt>
      <trkpt lat="44.14133" lon="1.42157">
        <ele>30</ele>
        <time>2011-01-26T09:14:26Z</time>
      </trkpt>
      <trkpt lat="44.14136" lon="1.42157">
        <ele>30</ele>
        <time>2011-01-26T09:14:27Z</time>
      </trkpt>
      <trkpt lat="44.14138" lon="1.42157">
        <ele>30</ele>
        <time>2011-01-26T09:14:28Z</time>
      </trkpt>
      <trkpt lat="44.1414" lon="1.42158">
        <ele>30</ele>
        <time>2011-01-26T09:14:28Z</time>
      </trkpt>
      <trkpt lat="44.14142" lon="1.42158">
        <ele>30</ele>
        <time>2011-01-26T09:14:29Z</time>
      </trkpt>
      <trkpt lat="44.14144" lon="1.42158">
        <ele>30</ele>
        <time>2011-01-26T09:14:30Z</time>
      </trkpt>
      <trkpt lat="44.14147" lon="1.42158">
        <ele>30</ele>
        <time>2011-01-26T09:14:31Z</time>
      </trkpt>
      <trkpt lat="44.14149" lon="1.42158">
        <ele>30</ele>
        <time>2011-01-26T09:14:32Z</time>
      </trkpt>
      <trkpt lat="44.14151" lon="1.42159">
        <ele>30</ele>
        <time>2011-01-26T09:14:33Z</time>
      </trkpt>
      <trkpt lat="44.14153" lon="1.42159">
        <ele>30</ele>
        <time>2011-01-26T09:14:34Z</time>
      </trkpt>
      <trkpt lat="44.14155" lon="1.42159">
        <ele>30</ele>
        <time>2011-01-26T09:14:35Z</time>
      </trkpt>
      <trkpt lat="44.14157" lon="1.42159">
        <ele>30</ele>
        <time>2011-01-26T09:14:36Z</time>
      </trkpt>
      <trkpt lat="44.1416" lon="1.42159">
        <ele>30</ele>
        <time>2011-01-26T09:14:36Z</time>
      </trkpt>
      <trkpt lat="44.14162" lon="1.4216">
        <ele>30</ele>
        <time>2011-01-26T09:14:37Z</time>
      </trkpt>
      <trkpt lat="44.14164" lon="1.4216">
        <ele>30</ele>
        <time>2011-01-26T09:14:38Z</time>
      </trkpt>
      <trkpt lat="44.14166" lon="1.4216">
        <ele>30</ele>
        <time>2011-01-26T09:14:39Z</time>
      </trkpt>
      <trkpt lat="44.14169" lon="1.42161">
        <ele>30</ele>
        <time>2011-01-26T09:14:40Z</time>
      </trkpt>
      <trkpt lat="44.14171" lon="1.4216">
        <ele>30</ele>
        <time>2011-01-26T09:14:41Z</time>
      </trkpt>
      <trkpt lat="44.14174" lon="1.4216">
        <ele>30</ele>
        <time>2011-01-26T09:14:42Z</time>
      </trkpt>
      <trkpt lat="44.14176" lon="1.4216">
        <ele>30</ele>
        <time>2011-01-26T09:14:43Z</time>
      </trkpt>
      <trkpt lat="44.14178" lon="1.4216">
        <ele>30</ele>
        <time>2011-01-26T09:14:44Z</time>
      </trkpt>
      <trkpt lat="44.1418" lon="1.42161">
        <ele>30</ele>
        <time>2011-01-26T09:14:45Z</time>
      </trkpt>
      <trkpt lat="44.14183" lon="1.42161">
        <ele>30</ele>
        <time>2011-01-26T09:14:46Z</time>
      </trkpt>
      <trkpt lat="44.14185" lon="1.42161">
        <ele>30</ele>
        <time>2011-01-26T09:14:46Z</time>
      </trkpt>
      <trkpt lat="44.14186" lon="1.42161">
        <ele>30</ele>
        <time>2011-01-26T09:14:47Z</time>
      </trkpt>
      <trkpt lat="44.14189" lon="1.42161">
        <ele>30</ele>
        <time>2011-01-26T09:14:48Z</time>
      </trkpt>
      <trkpt lat="44.14191" lon="1.42161">
        <ele>30</ele>
        <time>2011-01-26T09:14:49Z</time>
      </trkpt>
      <trkpt lat="44.14193" lon="1.42161">
        <ele>30</ele>
        <time>2011-01-26T09:14:50Z</time>
      </trkpt>
      <trkpt lat="44.14195" lon="1.42161">
        <ele>30</ele>
        <time>2011-01-26T09:14:51Z</time>
      </trkpt>
      <trkpt lat="44.14198" lon="1.4216">
        <ele>30</ele>
        <time>2011-01-26T09:14:52Z</time>
      </trkpt>
      <trkpt lat="44.142" lon="1.4216">
        <ele>30</ele>
        <time>2011-01-26T09:14:53Z</time>
      </trkpt>
      <trkpt lat="44.14202" lon="1.4216">
        <ele>30</ele>
        <time>2011-01-26T09:14:53Z</time>
      </trkpt>
      <trkpt lat="44.14204" lon="1.42159">
        <ele>30</ele>
        <time>2011-01-26T09:14:54Z</time>
      </trkpt>
      <trkpt lat="44.14205" lon="1.42157">
        <ele>30</ele>
        <time>2011-01-26T09:14:55Z</time>
      </trkpt>
      <trkpt lat="44.14206" lon="1.42156">
        <ele>30</ele>
        <time>2011-01-26T09:14:56Z</time>
      </trkpt>
      <trkpt lat="44.14203" lon="1.42155">
        <ele>30</ele>
        <time>2011-01-26T09:14:57Z</time>
      </trkpt>
      <trkpt lat="44.142" lon="1.42155">
        <ele>30</ele>
        <time>2011-01-26T09:14:58Z</time>
      </trkpt>
      <trkpt lat="44.14197" lon="1.42154">
        <ele>30</ele>
        <time>2011-01-26T09:14:59Z</time>
      </trkpt>
      <trkpt lat="44.14195" lon="1.42154">
        <ele>30</ele>
        <time>2011-01-26T09:15:00Z</time>
      </trkpt>
      <trkpt lat="44.14192" lon="1.42154">
        <ele>30</ele>
        <time>2011-01-26T09:15:01Z</time>
      </trkpt>
      <trkpt lat="44.1419" lon="1.42153">
        <ele>30</ele>
        <time>2011-01-26T09:15:02Z</time>
      </trkpt>
      <trkpt lat="44.14188" lon="1.42153">
        <ele>30</ele>
        <time>2011-01-26T09:15:03Z</time>
      </trkpt>
      <trkpt lat="44.14185" lon="1.42152">
        <ele>30</ele>
        <time>2011-01-26T09:15:04Z</time>
      </trkpt>
      <trkpt lat="44.14183" lon="1.42151">
        <ele>30</ele>
        <time>2011-01-26T09:15:05Z</time>
      </trkpt>
      <trkpt lat="44.1418" lon="1.42151">
        <ele>30</ele>
        <time>2011-01-26T09:15:06Z</time>
      </trkpt>
      <trkpt lat="44.14177" lon="1.4215">
        <ele>30</ele>
        <time>2011-01-26T09:15:07Z</time>
      </trkpt>
      <trkpt lat="44.14175" lon="1.4215">
        <ele>30</ele>
        <time>2011-01-26T09:15:08Z</time>
      </trkpt>
      <trkpt lat="44.14173" lon="1.4215">
        <ele>30</ele>
        <time>2011-01-26T09:15:09Z</time>
      </trkpt>
      <trkpt lat="44.1417" lon="1.4215">
        <ele>30</ele>
        <time>2011-01-26T09:15:10Z</time>
      </trkpt>
      <trkpt lat="44.14168" lon="1.4215">
        <ele>30</ele>
        <time>2011-01-26T09:15:11Z</time>
      </trkpt>
      <trkpt lat="44.14165" lon="1.42149">
        <ele>30</ele>
        <time>2011-01-26T09:15:12Z</time>
      </trkpt>
      <trkpt lat="44.14163" lon="1.42149">
        <ele>30</ele>
        <time>2011-01-26T09:15:13Z</time>
      </trkpt>
      <trkpt lat="44.1416" lon="1.42149">
        <ele>30</ele>
        <time>2011-01-26T09:15:14Z</time>
      </trkpt>
      <trkpt lat="44.14157" lon="1.42148">
        <ele>30</ele>
        <time>2011-01-26T09:15:15Z</time>
      </trkpt>
      <trkpt lat="44.14155" lon="1.42148">
        <ele>30</ele>
        <time>2011-01-26T09:15:16Z</time>
      </trkpt>
      <trkpt lat="44.14152" lon="1.42149">
        <ele>30</ele>
        <time>2011-01-26T09:15:17Z</time>
      </trkpt>
      <trkpt lat="44.14149" lon="1.42149">
        <ele>30</ele>
        <time>2011-01-26T09:15:18Z</time>
      </trkpt>
      <trkpt lat="44.14146" lon="1.42149">
        <ele>30</ele>
        <time>2011-01-26T09:15:20Z</time>
      </trkpt>
      <trkpt lat="44.14144" lon="1.4215">
        <ele>30</ele>
        <time>2011-01-26T09:15:21Z</time>
      </trkpt>
      <trkpt lat="44.14141" lon="1.42149">
        <ele>30</ele>
        <time>2011-01-26T09:15:22Z</time>
      </trkpt>
      <trkpt lat="44.14138" lon="1.42149">
        <ele>30</ele>
        <time>2011-01-26T09:15:23Z</time>
      </trkpt>
      <trkpt lat="44.14136" lon="1.42149">
        <ele>30</ele>
        <time>2011-01-26T09:15:24Z</time>
      </trkpt>
      <trkpt lat="44.14133" lon="1.42149">
        <ele>30</ele>
        <time>2011-01-26T09:15:25Z</time>
      </trkpt>
      <trkpt lat="44.1413" lon="1.42149">
        <ele>30</ele>
        <time>2011-01-26T09:15:26Z</time>
      </trkpt>
      <trkpt lat="44.14127" lon="1.42149">
        <ele>30</ele>
        <time>2011-01-26T09:15:27Z</time>
      </trkpt>
      <trkpt lat="44.14125" lon="1.42148">
        <ele>30</ele>
        <time>2011-01-26T09:15:28Z</time>
      </trkpt>
      <trkpt lat="44.14122" lon="1.42147">
        <ele>30</ele>
        <time>2011-01-26T09:15:30Z</time>
      </trkpt>
      <trkpt lat="44.14119" lon="1.42147">
        <ele>30</ele>
        <time>2011-01-26T09:15:30Z</time>
      </trkpt>
      <trkpt lat="44.14116" lon="1.42147">
        <ele>30</ele>
        <time>2011-01-26T09:15:32Z</time>
      </trkpt>
      <trkpt lat="44.14113" lon="1.42147">
        <ele>30</ele>
        <time>2011-01-26T09:15:33Z</time>
      </trkpt>
      <trkpt lat="44.1411" lon="1.42146">
        <ele>30</ele>
        <time>2011-01-26T09:15:34Z</time>
      </trkpt>
      <trkpt lat="44.14108" lon="1.42146">
        <ele>30</ele>
        <time>2011-01-26T09:15:35Z</time>
      </trkpt>
      <trkpt lat="44.14105" lon="1.42145">
        <ele>30</ele>
        <time>2011-01-26T09:15:36Z</time>
      </trkpt>
      <trkpt lat="44.14102" lon="1.42144">
        <ele>30</ele>
        <time>2011-01-26T09:15:37Z</time>
      </trkpt>
      <trkpt lat="44.14099" lon="1.42143">
        <ele>30</ele>
        <time>2011-01-26T09:15:39Z</time>
      </trkpt>
      <trkpt lat="44.14096" lon="1.42142">
        <ele>30</ele>
        <time>2011-01-26T09:15:40Z</time>
      </trkpt>
      <trkpt lat="44.14094" lon="1.42141">
        <ele>30</ele>
        <time>2011-01-26T09:15:41Z</time>
      </trkpt>
      <trkpt lat="44.14092" lon="1.4214">
        <ele>30</ele>
        <time>2011-01-26T09:15:42Z</time>
      </trkpt>
      <trkpt lat="44.14089" lon="1.42138">
        <ele>30</ele>
        <time>2011-01-26T09:15:43Z</time>
      </trkpt>
      <trkpt lat="44.14087" lon="1.42136">
        <ele>30</ele>
        <time>2011-01-26T09:15:44Z</time>
      </trkpt>
      <trkpt lat="44.14085" lon="1.42134">
        <ele>30</ele>
        <time>2011-01-26T09:15:45Z</time>
      </trkpt>
      <trkpt lat="44.14083" lon="1.42132">
        <ele>30</ele>
        <time>2011-01-26T09:15:46Z</time>
      </trkpt>
      <trkpt lat="44.14081" lon="1.4213">
        <ele>30</ele>
        <time>2011-01-26T09:15:47Z</time>
      </trkpt>
      <trkpt lat="44.14079" lon="1.42128">
        <ele>30</ele>
        <time>2011-01-26T09:15:48Z</time>
      </trkpt>
      <trkpt lat="44.14077" lon="1.42125">
        <ele>30</ele>
        <time>2011-01-26T09:15:49Z</time>
      </trkpt>
      <trkpt lat="44.14077" lon="1.42122">
        <ele>30</ele>
        <time>2011-01-26T09:15:50Z</time>
      </trkpt>
      <trkpt lat="44.14076" lon="1.42119">
        <ele>30</ele>
        <time>2011-01-26T09:15:51Z</time>
      </trkpt>
      <trkpt lat="44.14075" lon="1.42116">
        <ele>30</ele>
        <time>2011-01-26T09:15:52Z</time>
      </trkpt>
      <trkpt lat="44.14074" lon="1.42112">
        <ele>30</ele>
        <time>2011-01-26T09:15:53Z</time>
      </trkpt>
      <trkpt lat="44.14073" lon="1.42109">
        <ele>30</ele>
        <time>2011-01-26T09:15:54Z</time>
      </trkpt>
      <trkpt lat="44.14072" lon="1.42105">
        <ele>30</ele>
        <time>2011-01-26T09:15:55Z</time>
      </trkpt>
      <trkpt lat="44.14072" lon="1.42101">
        <ele>30</ele>
        <time>2011-01-26T09:15:56Z</time>
      </trkpt>
      <trkpt lat="44.14072" lon="1.42098">
        <ele>30</ele>
        <time>2011-01-26T09:15:57Z</time>
      </trkpt>
      <trkpt lat="44.14073" lon="1.42094">
        <ele>30</ele>
        <time>2011-01-26T09:15:58Z</time>
      </trkpt>
      <trkpt lat="44.14073" lon="1.42091">
        <ele>30</ele>
        <time>2011-01-26T09:15:59Z</time>
      </trkpt>
      <trkpt lat="44.14074" lon="1.42087">
        <ele>30</ele>
        <time>2011-01-26T09:16:00Z</time>
      </trkpt>
      <trkpt lat="44.14074" lon="1.42084">
        <ele>30</ele>
        <time>2011-01-26T09:16:01Z</time>
      </trkpt>
      <trkpt lat="44.14075" lon="1.42081">
        <ele>30</ele>
        <time>2011-01-26T09:16:02Z</time>
      </trkpt>
      <trkpt lat="44.14075" lon="1.42078">
        <ele>30</ele>
        <time>2011-01-26T09:16:03Z</time>
      </trkpt>
      <trkpt lat="44.14076" lon="1.42075">
        <ele>30</ele>
        <time>2011-01-26T09:16:04Z</time>
      </trkpt>
      <trkpt lat="44.14077" lon="1.42072">
        <ele>30</ele>
        <time>2011-01-26T09:16:05Z</time>
      </trkpt>
      <trkpt lat="44.14079" lon="1.42069">
        <ele>30</ele>
        <time>2011-01-26T09:16:06Z</time>
      </trkpt>
      <trkpt lat="44.1408" lon="1.42066">
        <ele>30</ele>
        <time>2011-01-26T09:16:07Z</time>
      </trkpt>
      <trkpt lat="44.14081" lon="1.42064">
        <ele>30</ele>
        <time>2011-01-26T09:16:08Z</time>
      </trkpt>
      <trkpt lat="44.14082" lon="1.42061">
        <ele>30</ele>
        <time>2011-01-26T09:16:09Z</time>
      </trkpt>
      <trkpt lat="44.14084" lon="1.42058">
        <ele>30</ele>
        <time>2011-01-26T09:16:10Z</time>
      </trkpt>
      <trkpt lat="44.14085" lon="1.42054">
        <ele>30</ele>
        <time>2011-01-26T09:16:11Z</time>
      </trkpt>
      <trkpt lat="44.14086" lon="1.42051">
        <ele>30</ele>
        <time>2011-01-26T09:16:12Z</time>
      </trkpt>
      <trkpt lat="44.14088" lon="1.42048">
        <ele>30</ele>
        <time>2011-01-26T09:16:13Z</time>
      </trkpt>
      <trkpt lat="44.14089" lon="1.42045">
        <ele>30</ele>
        <time>2011-01-26T09:16:14Z</time>
      </trkpt>
      <trkpt lat="44.1409" lon="1.42042">
        <ele>30</ele>
        <time>2011-01-26T09:16:15Z</time>
      </trkpt>
      <trkpt lat="44.14091" lon="1.42039">
        <ele>30</ele>
        <time>2011-01-26T09:16:16Z</time>
      </trkpt>
      <trkpt lat="44.14093" lon="1.42036">
        <ele>30</ele>
        <time>2011-01-26T09:16:17Z</time>
      </trkpt>
      <trkpt lat="44.14094" lon="1.42033">
        <ele>30</ele>
        <time>2011-01-26T09:16:18Z</time>
      </trkpt>
      <trkpt lat="44.14096" lon="1.4203">
        <ele>30</ele>
        <time>2011-01-26T09:16:19Z</time>
      </trkpt>
      <trkpt lat="44.14097" lon="1.42027">
        <ele>30</ele>
        <time>2011-01-26T09:16:20Z</time>
      </trkpt>
      <trkpt lat="44.14098" lon="1.42023">
        <ele>30</ele>
        <time>2011-01-26T09:16:21Z</time>
      </trkpt>
      <trkpt lat="44.14099" lon="1.4202">
        <ele>30</ele>
        <time>2011-01-26T09:16:22Z</time>
      </trkpt>
      <trkpt lat="44.141" lon="1.42016">
        <ele>30</ele>
        <time>2011-01-26T09:16:23Z</time>
      </trkpt>
      <trkpt lat="44.14101" lon="1.42013">
        <ele>30</ele>
        <time>2011-01-26T09:16:24Z</time>
      </trkpt>
      <trkpt lat="44.14102" lon="1.4201">
        <ele>30</ele>
        <time>2011-01-26T09:16:25Z</time>
      </trkpt>
      <trkpt lat="44.14103" lon="1.42007">
        <ele>30</ele>
        <time>2011-01-26T09:16:26Z</time>
      </trkpt>
      <trkpt lat="44.14105" lon="1.42004">
        <ele>30</ele>
        <time>2011-01-26T09:16:28Z</time>
      </trkpt>
      <trkpt lat="44.14106" lon="1.42001">
        <ele>30</ele>
        <time>2011-01-26T09:16:28Z</time>
      </trkpt>
      <trkpt lat="44.14107" lon="1.41997">
        <ele>30</ele>
        <time>2011-01-26T09:16:30Z</time>
      </trkpt>
      <trkpt lat="44.14108" lon="1.41994">
        <ele>30</ele>
        <time>2011-01-26T09:16:31Z</time>
      </trkpt>
      <trkpt lat="44.14109" lon="1.4199">
        <ele>30</ele>
        <time>2011-01-26T09:16:32Z</time>
      </trkpt>
      <trkpt lat="44.14111" lon="1.41987">
        <ele>30</ele>
        <time>2011-01-26T09:16:33Z</time>
      </trkpt>
      <trkpt lat="44.14112" lon="1.41983">
        <ele>30</ele>
        <time>2011-01-26T09:16:34Z</time>
      </trkpt>
      <trkpt lat="44.14113" lon="1.4198">
        <ele>30</ele>
        <time>2011-01-26T09:16:35Z</time>
      </trkpt>
      <trkpt lat="44.14114" lon="1.41977">
        <ele>30</ele>
        <time>2011-01-26T09:16:36Z</time>
      </trkpt>
      <trkpt lat="44.14116" lon="1.41974">
        <ele>30</ele>
        <time>2011-01-26T09:16:37Z</time>
      </trkpt>
      <trkpt lat="44.14117" lon="1.41971">
        <ele>30</ele>
        <time>2011-01-26T09:16:38Z</time>
      </trkpt>
      <trkpt lat="44.14118" lon="1.41969">
        <ele>30</ele>
        <time>2011-01-26T09:16:39Z</time>
      </trkpt>
      <trkpt lat="44.14119" lon="1.41966">
        <ele>30</ele>
        <time>2011-01-26T09:16:40Z</time>
      </trkpt>
      <trkpt lat="44.14121" lon="1.41963">
        <ele>30</ele>
        <time>2011-01-26T09:16:41Z</time>
      </trkpt>
      <trkpt lat="44.14123" lon="1.4196">
        <ele>30</ele>
        <time>2011-01-26T09:16:42Z</time>
      </trkpt>
      <trkpt lat="44.14125" lon="1.41959">
        <ele>30</ele>
        <time>2011-01-26T09:16:43Z</time>
      </trkpt>
      <trkpt lat="44.14127" lon="1.41957">
        <ele>30</ele>
        <time>2011-01-26T09:16:44Z</time>
      </trkpt>
      <trkpt lat="44.1413" lon="1.41956">
        <ele>30</ele>
        <time>2011-01-26T09:16:45Z</time>
      </trkpt>
      <trkpt lat="44.14132" lon="1.41957">
        <ele>30</ele>
        <time>2011-01-26T09:16:46Z</time>
      </trkpt>
      <trkpt lat="44.14135" lon="1.41957">
        <ele>30</ele>
        <time>2011-01-26T09:16:47Z</time>
      </trkpt>
      <trkpt lat="44.14137" lon="1.41958">
        <ele>30</ele>
        <time>2011-01-26T09:16:48Z</time>
      </trkpt>
      <trkpt lat="44.14139" lon="1.41959">
        <ele>30</ele>
        <time>2011-01-26T09:16:49Z</time>
      </trkpt>
      <trkpt lat="44.14141" lon="1.4196">
        <ele>30</ele>
        <time>2011-01-26T09:16:50Z</time>
      </trkpt>
      <trkpt lat="44.14144" lon="1.41962">
        <ele>30</ele>
        <time>2011-01-26T09:16:51Z</time>
      </trkpt>
      <trkpt lat="44.14146" lon="1.41963">
        <ele>30</ele>
        <time>2011-01-26T09:16:52Z</time>
      </trkpt>
      <trkpt lat="44.14148" lon="1.41964">
        <ele>30</ele>
        <time>2011-01-26T09:16:53Z</time>
      </trkpt>
      <trkpt lat="44.1415" lon="1.41965">
        <ele>30</ele>
        <time>2011-01-26T09:16:54Z</time>
      </trkpt>
      <trkpt lat="44.14152" lon="1.41967">
        <ele>30</ele>
        <time>2011-01-26T09:16:55Z</time>
      </trkpt>
      <trkpt lat="44.14154" lon="1.41968">
        <ele>30</ele>
        <time>2011-01-26T09:16:56Z</time>
      </trkpt>
      <trkpt lat="44.14157" lon="1.41969">
        <ele>30</ele>
        <time>2011-01-26T09:16:57Z</time>
      </trkpt>
      <trkpt lat="44.14159" lon="1.4197">
        <ele>30</ele>
        <time>2011-01-26T09:16:58Z</time>
      </trkpt>
      <trkpt lat="44.14162" lon="1.41972">
        <ele>30</ele>
        <time>2011-01-26T09:16:59Z</time>
      </trkpt>
      <trkpt lat="44.14164" lon="1.41973">
        <ele>30</ele>
        <time>2011-01-26T09:17:00Z</time>
      </trkpt>
      <trkpt lat="44.14166" lon="1.41974">
        <ele>30</ele>
        <time>2011-01-26T09:17:01Z</time>
      </trkpt>
      <trkpt lat="44.14169" lon="1.41975">
        <ele>30</ele>
        <time>2011-01-26T09:17:02Z</time>
      </trkpt>
      <trkpt lat="44.1417" lon="1.41976">
        <ele>30</ele>
        <time>2011-01-26T09:17:02Z</time>
      </trkpt>
      <trkpt lat="44.14172" lon="1.41977">
        <ele>30</ele>
        <time>2011-01-26T09:17:03Z</time>
      </trkpt>
      <trkpt lat="44.14175" lon="1.41978">
        <ele>30</ele>
        <time>2011-01-26T09:17:04Z</time>
      </trkpt>
      <trkpt lat="44.14177" lon="1.41979">
        <ele>30</ele>
        <time>2011-01-26T09:17:05Z</time>
      </trkpt>
      <trkpt lat="44.14179" lon="1.4198">
        <ele>30</ele>
        <time>2011-01-26T09:17:06Z</time>
      </trkpt>
      <trkpt lat="44.14181" lon="1.41982">
        <ele>30</ele>
        <time>2011-01-26T09:17:07Z</time>
      </trkpt>
      <trkpt lat="44.14184" lon="1.41983">
        <ele>30</ele>
        <time>2011-01-26T09:17:08Z</time>
      </trkpt>
      <trkpt lat="44.14186" lon="1.41984">
        <ele>30</ele>
        <time>2011-01-26T09:17:09Z</time>
      </trkpt>
      <trkpt lat="44.14188" lon="1.41986">
        <ele>30</ele>
        <time>2011-01-26T09:17:10Z</time>
      </trkpt>
      <trkpt lat="44.14191" lon="1.41988">
        <ele>30</ele>
        <time>2011-01-26T09:17:11Z</time>
      </trkpt>
      <trkpt lat="44.14193" lon="1.41989">
        <ele>30</ele>
        <time>2011-01-26T09:17:12Z</time>
      </trkpt>
      <trkpt lat="44.14195" lon="1.4199">
        <ele>30</ele>
        <time>2011-01-26T09:17:13Z</time>
      </trkpt>
      <trkpt lat="44.14198" lon="1.41991">
        <ele>30</ele>
        <time>2011-01-26T09:17:14Z</time>
      </trkpt>
      <trkpt lat="44.142" lon="1.41993">
        <ele>30</ele>
        <time>2011-01-26T09:17:15Z</time>
      </trkpt>
      <trkpt lat="44.14203" lon="1.41994">
        <ele>30</ele>
        <time>2011-01-26T09:17:16Z</time>
      </trkpt>
      <trkpt lat="44.14205" lon="1.41995">
        <ele>30</ele>
        <time>2011-01-26T09:17:17Z</time>
      </trkpt>
      <trkpt lat="44.14207" lon="1.41996">
        <ele>30</ele>
        <time>2011-01-26T09:17:18Z</time>
      </trkpt>
      <trkpt lat="44.1421" lon="1.41998">
        <ele>30</ele>
        <time>2011-01-26T09:17:19Z</time>
      </trkpt>
      <trkpt lat="44.14212" lon="1.41999">
        <ele>30</ele>
        <time>2011-01-26T09:17:21Z</time>
      </trkpt>
      <trkpt lat="44.14215" lon="1.42">
        <ele>30</ele>
        <time>2011-01-26T09:17:22Z</time>
      </trkpt>
      <trkpt lat="44.14217" lon="1.42001">
        <ele>30</ele>
        <time>2011-01-26T09:17:23Z</time>
      </trkpt>
      <trkpt lat="44.1422" lon="1.42002">
        <ele>30</ele>
        <time>2011-01-26T09:17:24Z</time>
      </trkpt>
      <trkpt lat="44.14222" lon="1.42004">
        <ele>30</ele>
        <time>2011-01-26T09:17:25Z</time>
      </trkpt>
      <trkpt lat="44.14225" lon="1.42005">
        <ele>30</ele>
        <time>2011-01-26T09:17:26Z</time>
      </trkpt>
      <trkpt lat="44.14227" lon="1.42006">
        <ele>30</ele>
        <time>2011-01-26T09:17:27Z</time>
      </trkpt>
      <trkpt lat="44.14229" lon="1.42007">
        <ele>30</ele>
        <time>2011-01-26T09:17:28Z</time>
      </trkpt>
      <trkpt lat="44.14231" lon="1.42009">
        <ele>30</ele>
        <time>2011-01-26T09:17:29Z</time>
      </trkpt>
      <trkpt lat="44.14234" lon="1.4201">
        <ele>30</ele>
        <time>2011-01-26T09:17:30Z</time>
      </trkpt>
      <trkpt lat="44.14236" lon="1.42011">
        <ele>30</ele>
        <time>2011-01-26T09:17:31Z</time>
      </trkpt>
      <trkpt lat="44.14239" lon="1.42012">
        <ele>30</ele>
        <time>2011-01-26T09:17:32Z</time>
      </trkpt>
      <trkpt lat="44.14241" lon="1.42013">
        <ele>30</ele>
        <time>2011-01-26T09:17:33Z</time>
      </trkpt>
      <trkpt lat="44.14243" lon="1.42013">
        <ele>30</ele>
        <time>2011-01-26T09:17:34Z</time>
      </trkpt>
      <trkpt lat="44.14246" lon="1.42014">
        <ele>30</ele>
        <time>2011-01-26T09:17:35Z</time>
      </trkpt>
      <trkpt lat="44.14249" lon="1.42015">
        <ele>30</ele>
        <time>2011-01-26T09:17:36Z</time>
      </trkpt>
      <trkpt lat="44.14251" lon="1.42015">
        <ele>30</ele>
        <time>2011-01-26T09:17:37Z</time>
      </trkpt>
      <trkpt lat="44.14254" lon="1.42015">
        <ele>30</ele>
        <time>2011-01-26T09:17:38Z</time>
      </trkpt>
      <trkpt lat="44.14256" lon="1.42015">
        <ele>30</ele>
        <time>2011-01-26T09:17:39Z</time>
      </trkpt>
      <trkpt lat="44.14258" lon="1.42015">
        <ele>30</ele>
        <time>2011-01-26T09:17:40Z</time>
      </trkpt>
      <trkpt lat="44.14261" lon="1.42014">
        <ele>30</ele>
        <time>2011-01-26T09:17:41Z</time>
      </trkpt>
      <trkpt lat="44.14263" lon="1.42014">
        <ele>30</ele>
        <time>2011-01-26T09:17:42Z</time>
      </trkpt>
      <trkpt lat="44.14266" lon="1.42013">
        <ele>30</ele>
        <time>2011-01-26T09:17:43Z</time>
      </trkpt>
      <trkpt lat="44.14268" lon="1.42013">
        <ele>30</ele>
        <time>2011-01-26T09:17:44Z</time>
      </trkpt>
      <trkpt lat="44.14271" lon="1.42012">
        <ele>30</ele>
        <time>2011-01-26T09:17:45Z</time>
      </trkpt>
      <trkpt lat="44.14273" lon="1.42012">
        <ele>30</ele>
        <time>2011-01-26T09:17:46Z</time>
      </trkpt>
      <trkpt lat="44.14276" lon="1.42012">
        <ele>30</ele>
        <time>2011-01-26T09:17:47Z</time>
      </trkpt>
      <trkpt lat="44.14278" lon="1.42012">
        <ele>30</ele>
        <time>2011-01-26T09:17:48Z</time>
      </trkpt>
      <trkpt lat="44.1428" lon="1.42012">
        <ele>30</ele>
        <time>2011-01-26T09:17:49Z</time>
      </trkpt>
      <trkpt lat="44.14283" lon="1.42012">
        <ele>30</ele>
        <time>2011-01-26T09:17:49Z</time>
      </trkpt>
      <trkpt lat="44.14285" lon="1.42012">
        <ele>30</ele>
        <time>2011-01-26T09:17:50Z</time>
      </trkpt>
      <trkpt lat="44.14288" lon="1.42012">
        <ele>30</ele>
        <time>2011-01-26T09:17:51Z</time>
      </trkpt>
      <trkpt lat="44.1429" lon="1.42012">
        <ele>30</ele>
        <time>2011-01-26T09:17:53Z</time>
      </trkpt>
      <trkpt lat="44.14293" lon="1.42012">
        <ele>30</ele>
        <time>2011-01-26T09:17:54Z</time>
      </trkpt>
      <trkpt lat="44.14295" lon="1.42012">
        <ele>30</ele>
        <time>2011-01-26T09:17:55Z</time>
      </trkpt>
      <trkpt lat="44.14298" lon="1.42011">
        <ele>30</ele>
        <time>2011-01-26T09:17:56Z</time>
      </trkpt>
      <trkpt lat="44.14301" lon="1.42011">
        <ele>30</ele>
        <time>2011-01-26T09:17:57Z</time>
      </trkpt>
      <trkpt lat="44.14303" lon="1.42011">
        <ele>30</ele>
        <time>2011-01-26T09:17:58Z</time>
      </trkpt>
      <trkpt lat="44.14306" lon="1.4201">
        <ele>30</ele>
        <time>2011-01-26T09:17:59Z</time>
      </trkpt>
      <trkpt lat="44.14308" lon="1.4201">
        <ele>30</ele>
        <time>2011-01-26T09:18:00Z</time>
      </trkpt>
      <trkpt lat="44.14311" lon="1.42009">
        <ele>30</ele>
        <time>2011-01-26T09:18:01Z</time>
      </trkpt>
      <trkpt lat="44.14314" lon="1.42008">
        <ele>30</ele>
        <time>2011-01-26T09:18:02Z</time>
      </trkpt>
      <trkpt lat="44.14316" lon="1.42007">
        <ele>30</ele>
        <time>2011-01-26T09:18:03Z</time>
      </trkpt>
      <trkpt lat="44.14318" lon="1.42007">
        <ele>30</ele>
        <time>2011-01-26T09:18:04Z</time>
      </trkpt>
      <trkpt lat="44.14322" lon="1.42008">
        <ele>30</ele>
        <time>2011-01-26T09:18:05Z</time>
      </trkpt>
      <trkpt lat="44.14324" lon="1.42007">
        <ele>30</ele>
        <time>2011-01-26T09:18:06Z</time>
      </trkpt>
      <trkpt lat="44.14327" lon="1.42006">
        <ele>30</ele>
        <time>2011-01-26T09:18:07Z</time>
      </trkpt>
      <trkpt lat="44.1433" lon="1.42005">
        <ele>30</ele>
        <time>2011-01-26T09:18:08Z</time>
      </trkpt>
      <trkpt lat="44.14332" lon="1.42003">
        <ele>30</ele>
        <time>2011-01-26T09:18:10Z</time>
      </trkpt>
      <trkpt lat="44.14334" lon="1.42001">
        <ele>30</ele>
        <time>2011-01-26T09:18:11Z</time>
      </trkpt>
      <trkpt lat="44.14337" lon="1.42">
        <ele>30</ele>
        <time>2011-01-26T09:18:12Z</time>
      </trkpt>
      <trkpt lat="44.14339" lon="1.41998">
        <ele>30</ele>
        <time>2011-01-26T09:18:13Z</time>
      </trkpt>
      <trkpt lat="44.14342" lon="1.41996">
        <ele>30</ele>
        <time>2011-01-26T09:18:14Z</time>
      </trkpt>
      <trkpt lat="44.14344" lon="1.41994">
        <ele>30</ele>
        <time>2011-01-26T09:18:15Z</time>
      </trkpt>
      <trkpt lat="44.14346" lon="1.41993">
        <ele>30</ele>
        <time>2011-01-26T09:18:16Z</time>
      </trkpt>
      <trkpt lat="44.14348" lon="1.41991">
        <ele>30</ele>
        <time>2011-01-26T09:18:17Z</time>
      </trkpt>
      <trkpt lat="44.14351" lon="1.41989">
        <ele>30</ele>
        <time>2011-01-26T09:18:18Z</time>
      </trkpt>
      <trkpt lat="44.14353" lon="1.41987">
        <ele>30</ele>
        <time>2011-01-26T09:18:19Z</time>
      </trkpt>
      <trkpt lat="44.14355" lon="1.41984">
        <ele>30</ele>
        <time>2011-01-26T09:18:20Z</time>
      </trkpt>
      <trkpt lat="44.14358" lon="1.41983">
        <ele>30</ele>
        <time>2011-01-26T09:18:22Z</time>
      </trkpt>
      <trkpt lat="44.14361" lon="1.41981">
        <ele>30</ele>
        <time>2011-01-26T09:18:23Z</time>
      </trkpt>
      <trkpt lat="44.14363" lon="1.41979">
        <ele>30</ele>
        <time>2011-01-26T09:18:24Z</time>
      </trkpt>
      <trkpt lat="44.14365" lon="1.41977">
        <ele>30</ele>
        <time>2011-01-26T09:18:25Z</time>
      </trkpt>
      <trkpt lat="44.14368" lon="1.41975">
        <ele>30</ele>
        <time>2011-01-26T09:18:26Z</time>
      </trkpt>
      <trkpt lat="44.1437" lon="1.41974">
        <ele>30</ele>
        <time>2011-01-26T09:18:27Z</time>
      </trkpt>
      <trkpt lat="44.14373" lon="1.41972">
        <ele>30</ele>
        <time>2011-01-26T09:18:28Z</time>
      </trkpt>
      <trkpt lat="44.14376" lon="1.41971">
        <ele>30</ele>
        <time>2011-01-26T09:18:30Z</time>
      </trkpt>
      <trkpt lat="44.14379" lon="1.41969">
        <ele>30</ele>
        <time>2011-01-26T09:18:31Z</time>
      </trkpt>
      <trkpt lat="44.14381" lon="1.41967">
        <ele>30</ele>
        <time>2011-01-26T09:18:32Z</time>
      </trkpt>
      <trkpt lat="44.14384" lon="1.41967">
        <ele>30</ele>
        <time>2011-01-26T09:18:33Z</time>
      </trkpt>
      <trkpt lat="44.14386" lon="1.41966">
        <ele>30</ele>
        <time>2011-01-26T09:18:34Z</time>
      </trkpt>
      <trkpt lat="44.14389" lon="1.41965">
        <ele>30</ele>
        <time>2011-01-26T09:18:35Z</time>
      </trkpt>
      <trkpt lat="44.14392" lon="1.41964">
        <ele>30</ele>
        <time>2011-01-26T09:18:36Z</time>
      </trkpt>
    </trkseg>
  </trk>
</gpx>